Wetterdaten: Donnerstag, 11.04.2019
Datum Zeit Temp. A. Pool Temp. Temp. 5cm Feuchte A. Luftdruck Regen Wind Richtung Richtung Sonnenschein ET UV Solar Taupunkt Windchill Windben Empfang
11.04.2019 00:01 7,7 C 0,0 C 7,8 C 96 % 1011,5 hPa 0,0 l/m 5,1 km/h (1 Bft) N-NO 33 0 min 0,000 mm 0,0 UV-I 0 W/m 7,1 C 7,7 C 8,0 km/h (2 Bft) 100,00 %
11.04.2019 00:02 7,7 C 0,0 C 7,8 C 96 % 1011,5 hPa 0,0 l/m 4,9 km/h (1 Bft) N-NO 19 0 min 0,000 mm 0,0 UV-I 0 W/m 7,1 C 7,7 C 6,4 km/h (2 Bft) 100,00 %
11.04.2019 00:04 7,6 C 0,0 C 7,8 C 96 % 1011,5 hPa 0,2 l/m 4,9 km/h (1 Bft) N-NO 31 0 min 0,000 mm 0,0 UV-I 0 W/m 7,0 C 7,6 C 6,4 km/h (2 Bft) 100,00 %
11.04.2019 00:06 7,6 C 0,0 C 7,8 C 96 % 1011,5 hPa 0,0 l/m 4,4 km/h (1 Bft) N-NO 30 0 min 0,000 mm 0,0 UV-I 0 W/m 7,0 C 7,6 C 6,4 km/h (2 Bft) 98,00 %
11.04.2019 00:08 7,6 C 0,0 C 7,8 C 96 % 1011,5 hPa 0,0 l/m 4,6 km/h (1 Bft) NO 43 0 min 0,000 mm 0,0 UV-I 0 W/m 7,0 C 7,6 C 8,0 km/h (2 Bft) 100,00 %
11.04.2019 00:10 7,6 C 0,0 C 7,8 C 96 % 1011,5 hPa 0,0 l/m 4,7 km/h (1 Bft) NO 44 0 min 0,000 mm 0,0 UV-I 0 W/m 7,0 C 7,6 C 6,4 km/h (2 Bft) 100,00 %
11.04.2019 00:12 7,6 C 0,0 C 7,8 C 96 % 1011,5 hPa 0,0 l/m 5,0 km/h (1 Bft) NO 34 0 min 0,000 mm 0,0 UV-I 0 W/m 7,0 C 7,6 C 6,4 km/h (2 Bft) 100,00 %
11.04.2019 00:14 7,7 C 0,0 C 7,8 C 96 % 1011,5 hPa 0,0 l/m 6,0 km/h (2 Bft) NO 45 0 min 0,000 mm 0,0 UV-I 0 W/m 7,1 C 7,7 C 8,0 km/h (2 Bft) 100,00 %
11.04.2019 00:16 7,6 C 0,0 C 7,8 C 96 % 1011,5 hPa 0,0 l/m 5,9 km/h (2 Bft) NO 34 0 min 0,000 mm 0,0 UV-I 0 W/m 7,0 C 7,6 C 8,0 km/h (2 Bft) 100,00 %
11.04.2019 00:18 7,6 C 0,0 C 7,8 C 96 % 1011,5 hPa 0,0 l/m 5,6 km/h (1 Bft) NO 36 0 min 0,000 mm 0,0 UV-I 0 W/m 7,0 C 7,6 C 6,4 km/h (2 Bft) 100,00 %
11.04.2019 00:20 7,6 C 0,0 C 7,8 C 96 % 1011,5 hPa 0,0 l/m 6,0 km/h (2 Bft) NO 40 0 min 0,000 mm 0,0 UV-I 0 W/m 7,0 C 7,6 C 8,0 km/h (2 Bft) 97,87 %
11.04.2019 00:22 7,6 C 0,0 C 7,8 C 96 % 1011,5 hPa 0,0 l/m 4,9 km/h (1 Bft) NO 41 0 min 0,000 mm 0,0 UV-I 0 W/m 7,0 C 7,6 C 6,4 km/h (2 Bft) 97,87 %
11.04.2019 00:24 7,6 C 0,0 C 7,8 C 96 % 1011,5 hPa 0,0 l/m 5,8 km/h (2 Bft) NO 37 0 min 0,000 mm 0,0 UV-I 0 W/m 7,0 C 7,6 C 8,0 km/h (2 Bft) 95,74 %
11.04.2019 00:26 7,7 C 0,0 C 7,8 C 96 % 1011,6 hPa 0,0 l/m 5,5 km/h (1 Bft) NO 44 0 min 0,000 mm 0,0 UV-I 0 W/m 7,1 C 7,7 C 6,4 km/h (2 Bft) 97,87 %
11.04.2019 00:28 7,6 C 0,0 C 7,8 C 96 % 1011,6 hPa 0,0 l/m 5,5 km/h (1 Bft) NO 45 0 min 0,000 mm 0,0 UV-I 0 W/m 7,0 C 7,6 C 8,0 km/h (2 Bft) 93,62 %
11.04.2019 00:30 7,6 C 0,0 C 7,8 C 96 % 1011,6 hPa 0,0 l/m 6,4 km/h (2 Bft) NO 42 0 min 0,000 mm 0,0 UV-I 0 W/m 7,0 C 7,6 C 9,7 km/h (2 Bft) 97,87 %
11.04.2019 00:32 7,6 C 0,0 C 7,8 C 96 % 1011,6 hPa 0,0 l/m 5,7 km/h (1 Bft) N-NO 32 0 min 0,000 mm 0,0 UV-I 0 W/m 7,0 C 7,6 C 8,0 km/h (2 Bft) 93,62 %
11.04.2019 00:34 7,6 C 0,0 C 7,8 C 96 % 1011,6 hPa 0,0 l/m 6,5 km/h (2 Bft) NO 40 0 min 0,000 mm 0,0 UV-I 0 W/m 7,0 C 7,5 C 8,0 km/h (2 Bft) 93,62 %
11.04.2019 00:36 7,6 C 0,0 C 7,2 C 96 % 1011,6 hPa 0,0 l/m 7,5 km/h (2 Bft) NO 42 0 min 0,000 mm 0,0 UV-I 0 W/m 7,0 C 6,7 C 9,7 km/h (2 Bft) 93,62 %
11.04.2019 00:38 7,5 C 0,0 C 7,2 C 96 % 1011,6 hPa 0,0 l/m 6,2 km/h (2 Bft) NO 35 0 min 0,000 mm 0,0 UV-I 0 W/m 6,9 C 7,5 C 8,0 km/h (2 Bft) 94,74 %
11.04.2019 00:40 7,5 C 0,0 C 7,2 C 96 % 1011,6 hPa 0,0 l/m 7,8 km/h (2 Bft) NO 46 0 min 0,000 mm 0,0 UV-I 0 W/m 6,9 C 6,4 C 9,7 km/h (2 Bft) 95,74 %
11.04.2019 00:42 7,5 C 0,0 C 7,2 C 96 % 1011,6 hPa 0,0 l/m 6,1 km/h (2 Bft) N-NO 25 0 min 0,000 mm 0,0 UV-I 0 W/m 6,9 C 7,5 C 8,0 km/h (2 Bft) 96,23 %
11.04.2019 00:44 7,5 C 0,0 C 7,2 C 96 % 1011,6 hPa 0,0 l/m 5,3 km/h (1 Bft) NO 40 0 min 0,000 mm 0,0 UV-I 0 W/m 6,9 C 7,5 C 8,0 km/h (2 Bft) 95,74 %
11.04.2019 00:46 7,5 C 0,0 C 7,2 C 96 % 1011,6 hPa 0,0 l/m 5,1 km/h (1 Bft) NO 49 0 min 0,000 mm 0,0 UV-I 0 W/m 6,9 C 7,5 C 8,0 km/h (2 Bft) 91,49 %
11.04.2019 00:48 7,5 C 0,0 C 7,8 C 96 % 1011,6 hPa 0,0 l/m 3,4 km/h (1 Bft) NO 49 0 min 0,000 mm 0,0 UV-I 0 W/m 6,9 C 7,5 C 4,8 km/h (1 Bft) 93,62 %
11.04.2019 00:50 7,5 C 0,0 C 7,8 C 96 % 1011,6 hPa 0,0 l/m 4,5 km/h (1 Bft) NO 36 0 min 0,000 mm 0,0 UV-I 0 W/m 6,9 C 7,5 C 6,4 km/h (2 Bft) 94,44 %
11.04.2019 00:52 7,5 C 0,0 C 7,8 C 96 % 1011,6 hPa 0,0 l/m 7,3 km/h (2 Bft) NO 47 0 min 0,000 mm 0,0 UV-I 0 W/m 6,9 C 6,8 C 9,7 km/h (2 Bft) 96,00 %
11.04.2019 00:54 7,5 C 0,0 C 7,8 C 96 % 1011,6 hPa 0,0 l/m 6,8 km/h (2 Bft) NO 44 0 min 0,000 mm 0,0 UV-I 0 W/m 6,9 C 7,2 C 9,7 km/h (2 Bft) 94,00 %
11.04.2019 00:56 7,5 C 0,0 C 7,8 C 96 % 1011,5 hPa 0,0 l/m 5,9 km/h (2 Bft) NO 38 0 min 0,000 mm 0,0 UV-I 0 W/m 6,9 C 7,5 C 8,0 km/h (2 Bft) 100,00 %
11.04.2019 00:58 7,5 C 0,0 C 7,8 C 96 % 1011,5 hPa 0,0 l/m 6,3 km/h (2 Bft) NO 40 0 min 0,000 mm 0,0 UV-I 0 W/m 6,9 C 7,5 C 8,0 km/h (2 Bft) 97,87 %
11.04.2019 01:00 7,5 C 0,0 C 7,8 C 96 % 1011,5 hPa 0,0 l/m 6,0 km/h (2 Bft) NO 50 0 min 0,000 mm 0,0 UV-I 0 W/m 6,9 C 7,5 C 8,0 km/h (2 Bft) 100,00 %
11.04.2019 01:02 7,5 C 0,0 C 7,8 C 96 % 1011,5 hPa 0,0 l/m 6,2 km/h (2 Bft) O-NO 59 0 min 0,000 mm 0,0 UV-I 0 W/m 6,9 C 7,5 C 8,0 km/h (2 Bft) 98,00 %
11.04.2019 01:04 7,5 C 0,0 C 7,8 C 96 % 1011,6 hPa 0,0 l/m 5,4 km/h (1 Bft) O-NO 61 0 min 0,000 mm 0,0 UV-I 0 W/m 6,9 C 7,5 C 8,0 km/h (2 Bft) 93,62 %
11.04.2019 01:06 7,5 C 0,0 C 7,8 C 96 % 1011,6 hPa 0,0 l/m 5,5 km/h (1 Bft) O-NO 63 0 min 0,000 mm 0,0 UV-I 0 W/m 6,9 C 7,5 C 8,0 km/h (2 Bft) 100,00 %
11.04.2019 01:08 7,5 C 0,0 C 7,8 C 96 % 1011,6 hPa 0,0 l/m 6,7 km/h (2 Bft) NO 51 0 min 0,000 mm 0,0 UV-I 0 W/m 6,9 C 7,3 C 9,7 km/h (2 Bft) 97,87 %
11.04.2019 01:10 7,5 C 0,0 C 7,8 C 96 % 1011,6 hPa 0,0 l/m 7,1 km/h (2 Bft) O-NO 63 0 min 0,000 mm 0,0 UV-I 0 W/m 6,9 C 6,9 C 9,7 km/h (2 Bft) 92,11 %
11.04.2019 01:12 7,5 C 0,0 C 7,8 C 96 % 1011,6 hPa 0,0 l/m 5,4 km/h (1 Bft) NO 44 0 min 0,000 mm 0,0 UV-I 0 W/m 6,9 C 7,5 C 8,0 km/h (2 Bft) 100,00 %
11.04.2019 01:14 7,5 C 0,0 C 7,8 C 96 % 1011,6 hPa 0,0 l/m 3,6 km/h (1 Bft) N-NO 15 0 min 0,000 mm 0,0 UV-I 0 W/m 6,9 C 7,5 C 4,8 km/h (1 Bft) 97,87 %
11.04.2019 01:16 7,5 C 0,0 C 7,8 C 96 % 1011,6 hPa 0,0 l/m 4,8 km/h (1 Bft) O-NO 60 0 min 0,000 mm 0,0 UV-I 0 W/m 6,9 C 7,5 C 8,0 km/h (2 Bft) 100,00 %
11.04.2019 01:18 7,4 C 0,0 C 7,8 C 96 % 1011,6 hPa 0,0 l/m 5,4 km/h (1 Bft) NO 49 0 min 0,000 mm 0,0 UV-I 0 W/m 6,8 C 7,4 C 8,0 km/h (2 Bft) 97,87 %
11.04.2019 01:20 7,4 C 0,0 C 7,2 C 96 % 1011,6 hPa 0,0 l/m 5,8 km/h (2 Bft) N-NO 27 0 min 0,000 mm 0,0 UV-I 0 W/m 6,8 C 7,4 C 8,0 km/h (2 Bft) 100,00 %
11.04.2019 01:22 7,4 C 0,0 C 7,2 C 96 % 1011,6 hPa 0,0 l/m 5,5 km/h (1 Bft) NO 44 0 min 0,000 mm 0,0 UV-I 0 W/m 6,8 C 7,4 C 8,0 km/h (2 Bft) 96,00 %
11.04.2019 01:24 7,4 C 0,0 C 7,2 C 96 % 1011,6 hPa 0,0 l/m 5,8 km/h (2 Bft) NO 47 0 min 0,000 mm 0,0 UV-I 0 W/m 6,8 C 7,4 C 8,0 km/h (2 Bft) 100,00 %
11.04.2019 01:26 7,4 C 0,0 C 7,2 C 96 % 1011,6 hPa 0,0 l/m 6,3 km/h (2 Bft) O-NO 60 0 min 0,000 mm 0,0 UV-I 0 W/m 6,8 C 7,4 C 8,0 km/h (2 Bft) 94,87 %
11.04.2019 01:28 7,4 C 0,0 C 7,2 C 96 % 1011,6 hPa 0,0 l/m 6,7 km/h (2 Bft) O-NO 69 0 min 0,000 mm 0,0 UV-I 0 W/m 6,8 C 7,2 C 9,7 km/h (2 Bft) 98,00 %
11.04.2019 01:30 7,4 C 0,0 C 7,2 C 96 % 1011,6 hPa 0,0 l/m 5,3 km/h (1 Bft) NO 49 0 min 0,000 mm 0,0 UV-I 0 W/m 6,8 C 7,4 C 8,0 km/h (2 Bft) 97,87 %
11.04.2019 01:32 7,4 C 0,0 C 7,2 C 96 % 1011,6 hPa 0,0 l/m 3,4 km/h (1 Bft) NO 34 0 min 0,000 mm 0,0 UV-I 0 W/m 6,8 C 7,4 C 6,4 km/h (2 Bft) 97,87 %
11.04.2019 01:34 7,4 C 0,0 C 7,2 C 96 % 1011,6 hPa 0,0 l/m 5,3 km/h (1 Bft) NO 41 0 min 0,000 mm 0,0 UV-I 0 W/m 6,8 C 7,4 C 8,0 km/h (2 Bft) 96,00 %
11.04.2019 01:36 7,4 C 0,0 C 7,2 C 96 % 1011,6 hPa 0,0 l/m 5,6 km/h (1 Bft) O-NO 62 0 min 0,000 mm 0,0 UV-I 0 W/m 6,8 C 7,4 C 8,0 km/h (2 Bft) 97,87 %
11.04.2019 01:38 7,4 C 0,0 C 7,2 C 96 % 1011,6 hPa 0,0 l/m 5,6 km/h (1 Bft) O-NO 66 0 min 0,000 mm 0,0 UV-I 0 W/m 6,8 C 7,4 C 8,0 km/h (2 Bft) 98,00 %
11.04.2019 01:40 7,4 C 0,0 C 7,2 C 96 % 1011,6 hPa 0,0 l/m 6,2 km/h (2 Bft) O-NO 67 0 min 0,000 mm 0,0 UV-I 0 W/m 6,8 C 7,4 C 8,0 km/h (2 Bft) 97,14 %
11.04.2019 01:42 7,4 C 0,0 C 7,2 C 96 % 1011,7 hPa 0,0 l/m 4,8 km/h (1 Bft) O-NO 67 0 min 0,000 mm 0,0 UV-I 0 W/m 6,8 C 7,4 C 8,0 km/h (2 Bft) 96,00 %
11.04.2019 01:44 7,4 C 0,0 C 7,2 C 96 % 1011,6 hPa 0,0 l/m 3,8 km/h (1 Bft) O-NO 62 0 min 0,000 mm 0,0 UV-I 0 W/m 6,8 C 7,4 C 6,4 km/h (2 Bft) 97,87 %
11.04.2019 01:46 7,4 C 0,0 C 7,2 C 96 % 1011,6 hPa 0,0 l/m 6,2 km/h (2 Bft) O-NO 75 0 min 0,000 mm 0,0 UV-I 0 W/m 6,8 C 7,4 C 8,0 km/h (2 Bft) 97,87 %
11.04.2019 01:48 7,4 C 0,0 C 7,2 C 96 % 1011,6 hPa 0,0 l/m 5,5 km/h (1 Bft) O-NO 65 0 min 0,000 mm 0,0 UV-I 0 W/m 6,8 C 7,4 C 9,7 km/h (2 Bft) 97,87 %
11.04.2019 01:50 7,4 C 0,0 C 7,2 C 96 % 1011,7 hPa 0,0 l/m 5,8 km/h (2 Bft) NO 43 0 min 0,000 mm 0,0 UV-I 0 W/m 6,8 C 7,4 C 8,0 km/h (2 Bft) 100,00 %
11.04.2019 01:52 7,4 C 0,0 C 7,2 C 96 % 1011,7 hPa 0,0 l/m 5,9 km/h (2 Bft) O-NO 65 0 min 0,000 mm 0,0 UV-I 0 W/m 6,8 C 7,4 C 8,0 km/h (2 Bft) 97,87 %
11.04.2019 01:54 7,4 C 0,0 C 7,2 C 96 % 1011,7 hPa 0,0 l/m 6,7 km/h (2 Bft) NO 45 0 min 0,000 mm 0,0 UV-I 0 W/m 6,8 C 7,2 C 9,7 km/h (2 Bft) 95,74 %
11.04.2019 01:56 7,4 C 0,0 C 7,2 C 96 % 1011,7 hPa 0,0 l/m 5,2 km/h (1 Bft) O-NO 62 0 min 0,000 mm 0,0 UV-I 0 W/m 6,8 C 7,4 C 9,7 km/h (2 Bft) 94,00 %
11.04.2019 01:58 7,4 C 0,0 C 7,2 C 96 % 1011,7 hPa 0,0 l/m 5,4 km/h (1 Bft) NO 45 0 min 0,000 mm 0,0 UV-I 0 W/m 6,8 C 7,4 C 8,0 km/h (2 Bft) 93,62 %
11.04.2019 02:00 7,4 C 0,0 C 7,2 C 96 % 1011,7 hPa 0,0 l/m 6,0 km/h (2 Bft) NO 39 0 min 0,000 mm 0,0 UV-I 0 W/m 6,8 C 7,4 C 8,0 km/h (2 Bft) 95,74 %
11.04.2019 02:02 7,4 C 0,0 C 7,2 C 96 % 1011,7 hPa 0,0 l/m 6,1 km/h (2 Bft) O-NO 65 0 min 0,000 mm 0,0 UV-I 0 W/m 6,8 C 7,4 C 9,7 km/h (2 Bft) 91,49 %
11.04.2019 02:04 7,4 C 0,0 C 7,2 C 96 % 1011,7 hPa 0,0 l/m 5,6 km/h (1 Bft) NO 51 0 min 0,000 mm 0,0 UV-I 0 W/m 6,8 C 7,4 C 8,0 km/h (2 Bft) 96,00 %
11.04.2019 02:06 7,4 C 0,0 C 7,2 C 96 % 1011,7 hPa 0,0 l/m 6,6 km/h (2 Bft) NO 55 0 min 0,000 mm 0,0 UV-I 0 W/m 6,8 C 7,3 C 11,3 km/h (2 Bft) 92,31 %
11.04.2019 02:08 7,4 C 0,0 C 7,2 C 96 % 1011,8 hPa 0,0 l/m 6,3 km/h (2 Bft) O-NO 59 0 min 0,000 mm 0,0 UV-I 0 W/m 6,8 C 7,4 C 12,9 km/h (3 Bft) 96,00 %
11.04.2019 02:10 7,4 C 0,0 C 7,2 C 96 % 1011,8 hPa 0,0 l/m 6,0 km/h (2 Bft) NO 39 0 min 0,000 mm 0,0 UV-I 0 W/m 6,8 C 7,4 C 8,0 km/h (2 Bft) 95,74 %
11.04.2019 02:12 7,4 C 0,0 C 7,2 C 96 % 1011,8 hPa 0,0 l/m 5,2 km/h (1 Bft) O-NO 63 0 min 0,000 mm 0,0 UV-I 0 W/m 6,8 C 7,4 C 6,4 km/h (2 Bft) 95,74 %
11.04.2019 02:14 7,3 C 0,0 C 7,2 C 96 % 1011,8 hPa 0,0 l/m 5,5 km/h (1 Bft) O-NO 64 0 min 0,000 mm 0,0 UV-I 0 W/m 6,7 C 7,3 C 8,0 km/h (2 Bft) 96,00 %
11.04.2019 02:16 7,4 C 0,0 C 7,2 C 96 % 1011,8 hPa 0,0 l/m 6,1 km/h (2 Bft) NO 34 0 min 0,000 mm 0,0 UV-I 0 W/m 6,8 C 7,4 C 8,0 km/h (2 Bft) 89,47 %
11.04.2019 02:18 7,4 C 0,0 C 7,2 C 96 % 1011,8 hPa 0,0 l/m 6,1 km/h (2 Bft) O-NO 65 0 min 0,000 mm 0,0 UV-I 0 W/m 6,8 C 7,4 C 8,0 km/h (2 Bft) 97,87 %
11.04.2019 02:20 7,4 C 0,0 C 7,2 C 96 % 1011,8 hPa 0,0 l/m 4,5 km/h (1 Bft) O-NO 70 0 min 0,000 mm 0,0 UV-I 0 W/m 6,8 C 7,4 C 6,4 km/h (2 Bft) 96,00 %
11.04.2019 02:22 7,4 C 0,0 C 7,2 C 96 % 1011,8 hPa 0,0 l/m 3,7 km/h (1 Bft) NO 55 0 min 0,000 mm 0,0 UV-I 0 W/m 6,8 C 7,4 C 6,4 km/h (2 Bft) 96,00 %
11.04.2019 02:24 7,3 C 0,0 C 7,2 C 96 % 1011,8 hPa 0,0 l/m 3,4 km/h (1 Bft) O-NO 73 0 min 0,000 mm 0,0 UV-I 0 W/m 6,7 C 7,3 C 4,8 km/h (1 Bft) 94,00 %
11.04.2019 02:26 7,4 C 0,0 C 7,2 C 96 % 1011,8 hPa 0,0 l/m 4,2 km/h (1 Bft) O 80 0 min 0,000 mm 0,0 UV-I 0 W/m 6,8 C 7,4 C 6,4 km/h (2 Bft) 95,74 %
11.04.2019 02:28 7,4 C 0,0 C 7,2 C 96 % 1011,8 hPa 0,0 l/m 4,4 km/h (1 Bft) O-NO 63 0 min 0,000 mm 0,0 UV-I 0 W/m 6,8 C 7,4 C 8,0 km/h (2 Bft) 93,48 %
11.04.2019 02:30 7,4 C 0,0 C 7,2 C 96 % 1011,8 hPa 0,0 l/m 5,1 km/h (1 Bft) O-NO 58 0 min 0,000 mm 0,0 UV-I 0 W/m 6,8 C 7,4 C 8,0 km/h (2 Bft) 97,87 %
11.04.2019 02:32 7,4 C 0,0 C 7,2 C 96 % 1011,8 hPa 0,0 l/m 5,9 km/h (2 Bft) O-NO 67 0 min 0,000 mm 0,0 UV-I 0 W/m 6,8 C 7,4 C 8,0 km/h (2 Bft) 97,14 %
11.04.2019 02:34 7,4 C 0,0 C 7,2 C 96 % 1011,9 hPa 0,0 l/m 7,0 km/h (2 Bft) NO 53 0 min 0,000 mm 0,0 UV-I 0 W/m 6,8 C 6,9 C 9,7 km/h (2 Bft) 95,74 %
11.04.2019 02:36 7,4 C 0,0 C 7,2 C 96 % 1011,9 hPa 0,0 l/m 6,5 km/h (2 Bft) O-NO 64 0 min 0,000 mm 0,0 UV-I 0 W/m 6,8 C 7,3 C 9,7 km/h (2 Bft) 97,92 %
11.04.2019 02:38 7,4 C 0,0 C 7,2 C 96 % 1011,9 hPa 0,0 l/m 7,5 km/h (2 Bft) O-NO 57 0 min 0,000 mm 0,0 UV-I 0 W/m 6,8 C 6,5 C 11,3 km/h (2 Bft) 96,00 %
11.04.2019 02:40 7,4 C 0,0 C 7,2 C 96 % 1011,9 hPa 0,0 l/m 8,0 km/h (2 Bft) NO 45 0 min 0,000 mm 0,0 UV-I 0 W/m 6,8 C 6,1 C 11,3 km/h (2 Bft) 98,00 %
11.04.2019 02:42 7,4 C 0,0 C 7,2 C 96 % 1011,9 hPa 0,0 l/m 6,0 km/h (2 Bft) NO 48 0 min 0,000 mm 0,0 UV-I 0 W/m 6,8 C 7,4 C 8,0 km/h (2 Bft) 94,29 %
11.04.2019 02:44 7,4 C 0,0 C 7,2 C 96 % 1011,9 hPa 0,0 l/m 7,4 km/h (2 Bft) NO 48 0 min 0,000 mm 0,0 UV-I 0 W/m 6,8 C 6,6 C 9,7 km/h (2 Bft) 98,39 %
11.04.2019 02:46 7,4 C 0,0 C 7,2 C 96 % 1011,9 hPa 0,0 l/m 7,4 km/h (2 Bft) N-NO 33 0 min 0,000 mm 0,0 UV-I 0 W/m 6,8 C 6,6 C 9,7 km/h (2 Bft) 95,74 %
11.04.2019 02:48 7,4 C 0,0 C 7,2 C 96 % 1011,9 hPa 0,0 l/m 7,7 km/h (2 Bft) N-NO 32 0 min 0,000 mm 0,0 UV-I 0 W/m 6,8 C 6,4 C 11,3 km/h (2 Bft) 95,74 %
11.04.2019 02:50 7,4 C 0,0 C 7,2 C 96 % 1011,9 hPa 0,0 l/m 8,7 km/h (2 Bft) NO 35 0 min 0,000 mm 0,0 UV-I 0 W/m 6,8 C 5,6 C 12,9 km/h (3 Bft) 97,87 %
11.04.2019 02:52 7,4 C 0,0 C 7,2 C 96 % 1011,9 hPa 0,2 l/m 9,4 km/h (2 Bft) N-NO 28 0 min 0,000 mm 0,0 UV-I 0 W/m 6,8 C 5,1 C 14,5 km/h (3 Bft) 97,37 %
11.04.2019 02:54 7,4 C 0,0 C 7,2 C 96 % 1012,0 hPa 0,0 l/m 8,5 km/h (2 Bft) NO 44 0 min 0,000 mm 0,0 UV-I 0 W/m 6,8 C 5,8 C 11,3 km/h (2 Bft) 97,87 %
11.04.2019 02:56 7,4 C 0,0 C 7,2 C 96 % 1012,0 hPa 0,0 l/m 8,2 km/h (2 Bft) NO 46 0 min 0,000 mm 0,0 UV-I 0 W/m 6,8 C 6,0 C 9,7 km/h (2 Bft) 97,87 %
11.04.2019 02:58 7,4 C 0,0 C 7,2 C 96 % 1012,0 hPa 0,0 l/m 9,0 km/h (2 Bft) NO 43 0 min 0,000 mm 0,0 UV-I 0 W/m 6,8 C 5,4 C 14,5 km/h (3 Bft) 100,00 %
11.04.2019 03:00 7,4 C 0,0 C 7,2 C 96 % 1012,0 hPa 0,0 l/m 9,8 km/h (2 Bft) NO 44 0 min 0,000 mm 0,0 UV-I 0 W/m 6,8 C 4,9 C 14,5 km/h (3 Bft) 100,00 %
11.04.2019 03:02 7,4 C 0,0 C 7,2 C 96 % 1012,0 hPa 0,0 l/m 11,3 km/h (2 Bft) NO 35 0 min 0,000 mm 0,0 UV-I 0 W/m 6,8 C 3,9 C 16,1 km/h (3 Bft) 96,00 %
11.04.2019 03:04 7,4 C 0,0 C 7,2 C 96 % 1012,0 hPa 0,0 l/m 10,5 km/h (2 Bft) O-NO 59 0 min 0,000 mm 0,0 UV-I 0 W/m 6,8 C 4,4 C 14,5 km/h (3 Bft) 100,00 %
11.04.2019 03:06 7,4 C 0,0 C 7,2 C 96 % 1012,0 hPa 0,0 l/m 10,8 km/h (2 Bft) NO 45 0 min 0,000 mm 0,0 UV-I 0 W/m 6,8 C 4,2 C 16,1 km/h (3 Bft) 100,00 %
11.04.2019 03:08 7,4 C 0,0 C 7,2 C 96 % 1012,0 hPa 0,0 l/m 10,0 km/h (2 Bft) O-NO 63 0 min 0,000 mm 0,0 UV-I 0 W/m 6,8 C 4,7 C 14,5 km/h (3 Bft) 97,37 %
11.04.2019 03:10 7,4 C 0,0 C 7,2 C 96 % 1012,0 hPa 0,0 l/m 12,4 km/h (3 Bft) O-NO 61 0 min 0,000 mm 0,0 UV-I 0 W/m 6,8 C 3,3 C 16,1 km/h (3 Bft) 100,00 %
11.04.2019 03:12 7,4 C 0,0 C 7,2 C 96 % 1012,1 hPa 0,0 l/m 11,0 km/h (2 Bft) NO 42 0 min 0,000 mm 0,0 UV-I 0 W/m 6,8 C 4,1 C 16,1 km/h (3 Bft) 100,00 %
11.04.2019 03:14 7,4 C 0,0 C 7,2 C 96 % 1012,1 hPa 0,0 l/m 10,6 km/h (2 Bft) O-NO 57 0 min 0,000 mm 0,0 UV-I 0 W/m 6,8 C 4,3 C 17,7 km/h (3 Bft) 100,00 %
11.04.2019 03:16 7,4 C 0,0 C 7,2 C 96 % 1012,0 hPa 0,0 l/m 11,4 km/h (2 Bft) NO 55 0 min 0,000 mm 0,0 UV-I 0 W/m 6,8 C 3,9 C 14,5 km/h (3 Bft) 97,62 %
11.04.2019 03:18 7,3 C 0,0 C 7,2 C 96 % 1012,1 hPa 0,0 l/m 11,5 km/h (2 Bft) NO 51 0 min 0,000 mm 0,0 UV-I 0 W/m 6,7 C 3,7 C 19,3 km/h (3 Bft) 98,00 %
11.04.2019 03:20 7,3 C 0,0 C 7,2 C 96 % 1012,1 hPa 0,0 l/m 11,8 km/h (2 Bft) O-NO 72 0 min 0,000 mm 0,0 UV-I 0 W/m 6,7 C 3,5 C 19,3 km/h (3 Bft) 95,74 %
11.04.2019 03:22 7,3 C 0,0 C 7,2 C 96 % 1012,1 hPa 0,2 l/m 10,0 km/h (2 Bft) NO 39 0 min 0,000 mm 0,0 UV-I 0 W/m 6,7 C 4,6 C 14,5 km/h (3 Bft) 95,74 %
11.04.2019 03:24 7,2 C 0,0 C 7,2 C 96 % 1012,1 hPa 0,0 l/m 11,1 km/h (2 Bft) NO 48 0 min 0,000 mm 0,0 UV-I 0 W/m 6,6 C 3,8 C 16,1 km/h (3 Bft) 95,74 %
11.04.2019 03:26 7,1 C 0,0 C 7,2 C 96 % 1012,1 hPa 0,0 l/m 8,7 km/h (2 Bft) NO 36 0 min 0,000 mm 0,0 UV-I 0 W/m 6,5 C 5,3 C 12,9 km/h (3 Bft) 97,87 %
11.04.2019 03:28 7,1 C 0,0 C 7,2 C 96 % 1012,1 hPa 0,0 l/m 13,3 km/h (3 Bft) NO 52 0 min 0,000 mm 0,0 UV-I 0 W/m 6,5 C 2,5 C 17,7 km/h (3 Bft) 97,87 %
11.04.2019 03:30 7,0 C 0,0 C 6,7 C 96 % 1012,2 hPa 0,0 l/m 13,1 km/h (3 Bft) O-NO 58 0 min 0,000 mm 0,0 UV-I 0 W/m 6,4 C 2,5 C 17,7 km/h (3 Bft) 97,87 %
11.04.2019 03:32 7,0 C 0,0 C 6,7 C 95 % 1012,2 hPa 0,0 l/m 11,3 km/h (2 Bft) NO 51 0 min 0,000 mm 0,0 UV-I 0 W/m 6,3 C 3,5 C 16,1 km/h (3 Bft) 97,87 %
11.04.2019 03:34 7,1 C 0,0 C 6,7 C 95 % 1012,2 hPa 0,0 l/m 7,8 km/h (2 Bft) O-NO 60 0 min 0,000 mm 0,0 UV-I 0 W/m 6,4 C 6,0 C 14,5 km/h (3 Bft) 95,74 %
11.04.2019 03:36 7,1 C 0,0 C 6,7 C 95 % 1012,2 hPa 0,0 l/m 11,2 km/h (2 Bft) NO 53 0 min 0,000 mm 0,0 UV-I 0 W/m 6,4 C 3,6 C 17,7 km/h (3 Bft) 96,00 %
11.04.2019 03:38 7,1 C 0,0 C 6,7 C 95 % 1012,2 hPa 0,0 l/m 8,4 km/h (2 Bft) O-NO 77 0 min 0,000 mm 0,0 UV-I 0 W/m 6,4 C 5,5 C 14,5 km/h (3 Bft) 97,87 %
11.04.2019 03:40 7,1 C 0,0 C 6,7 C 95 % 1012,2 hPa 0,0 l/m 7,5 km/h (2 Bft) NO 53 0 min 0,000 mm 0,0 UV-I 0 W/m 6,4 C 6,2 C 12,9 km/h (3 Bft) 97,87 %
11.04.2019 03:42 7,2 C 0,0 C 6,7 C 95 % 1012,2 hPa 0,0 l/m 8,1 km/h (2 Bft) NO 51 0 min 0,000 mm 0,0 UV-I 0 W/m 6,5 C 5,8 C 14,5 km/h (3 Bft) 100,00 %
11.04.2019 03:44 7,2 C 0,0 C 6,7 C 94 % 1012,2 hPa 0,0 l/m 9,8 km/h (2 Bft) O-NO 65 0 min 0,000 mm 0,0 UV-I 0 W/m 6,3 C 4,6 C 14,5 km/h (3 Bft) 100,00 %
11.04.2019 03:46 7,2 C 0,0 C 6,7 C 94 % 1012,3 hPa 0,0 l/m 7,5 km/h (2 Bft) NO 34 0 min 0,000 mm 0,0 UV-I 0 W/m 6,3 C 6,3 C 12,9 km/h (3 Bft) 95,74 %
11.04.2019 03:48 7,2 C 0,0 C 6,7 C 94 % 1012,3 hPa 0,0 l/m 8,6 km/h (2 Bft) NO 48 0 min 0,000 mm 0,0 UV-I 0 W/m 6,3 C 5,5 C 14,5 km/h (3 Bft) 100,00 %
11.04.2019 03:50 7,2 C 0,0 C 6,7 C 94 % 1012,4 hPa 0,0 l/m 6,6 km/h (2 Bft) O-NO 66 0 min 0,000 mm 0,0 UV-I 0 W/m 6,3 C 7,1 C 9,7 km/h (2 Bft) 100,00 %
11.04.2019 03:52 7,2 C 0,0 C 6,7 C 94 % 1012,3 hPa 0,0 l/m 8,9 km/h (2 Bft) NO 52 0 min 0,000 mm 0,0 UV-I 0 W/m 6,3 C 5,2 C 14,5 km/h (3 Bft) 97,87 %
11.04.2019 03:54 7,2 C 0,0 C 6,7 C 94 % 1012,3 hPa 0,0 l/m 9,6 km/h (2 Bft) NO 35 0 min 0,000 mm 0,0 UV-I 0 W/m 6,3 C 4,8 C 14,5 km/h (3 Bft) 98,00 %
11.04.2019 03:56 7,2 C 0,0 C 6,7 C 94 % 1012,4 hPa 0,0 l/m 11,3 km/h (2 Bft) NO 46 0 min 0,000 mm 0,0 UV-I 0 W/m 6,3 C 3,7 C 16,1 km/h (3 Bft) 100,00 %
11.04.2019 03:58 7,1 C 0,0 C 6,7 C 94 % 1012,4 hPa 0,0 l/m 9,9 km/h (2 Bft) NO 37 0 min 0,000 mm 0,0 UV-I 0 W/m 6,2 C 4,5 C 14,5 km/h (3 Bft) 100,00 %
11.04.2019 04:00 7,1 C 0,0 C 6,7 C 94 % 1012,4 hPa 0,0 l/m 8,5 km/h (2 Bft) NO 38 0 min 0,000 mm 0,0 UV-I 0 W/m 6,2 C 5,4 C 11,3 km/h (2 Bft) 97,87 %
11.04.2019 04:02 7,1 C 0,0 C 6,7 C 94 % 1012,4 hPa 0,0 l/m 7,9 km/h (2 Bft) NO 48 0 min 0,000 mm 0,0 UV-I 0 W/m 6,2 C 5,9 C 12,9 km/h (3 Bft) 100,00 %
11.04.2019 04:04 7,1 C 0,0 C 6,7 C 94 % 1012,4 hPa 0,0 l/m 9,3 km/h (2 Bft) NO 42 0 min 0,000 mm 0,0 UV-I 0 W/m 6,2 C 4,9 C 16,1 km/h (3 Bft) 100,00 %
11.04.2019 04:06 7,1 C 0,0 C 6,7 C 94 % 1012,4 hPa 0,0 l/m 9,0 km/h (2 Bft) NO 39 0 min 0,000 mm 0,0 UV-I 0 W/m 6,2 C 5,1 C 14,5 km/h (3 Bft) 100,00 %
11.04.2019 04:08 7,1 C 0,0 C 6,7 C 94 % 1012,4 hPa 0,0 l/m 10,7 km/h (2 Bft) NO 43 0 min 0,000 mm 0,0 UV-I 0 W/m 6,2 C 3,9 C 14,5 km/h (3 Bft) 100,00 %
11.04.2019 04:10 7,0 C 0,0 C 6,7 C 94 % 1012,4 hPa 0,0 l/m 11,8 km/h (2 Bft) O-NO 64 0 min 0,000 mm 0,0 UV-I 0 W/m 6,1 C 3,2 C 16,1 km/h (3 Bft) 100,00 %
11.04.2019 04:12 7,0 C 0,0 C 6,7 C 94 % 1012,4 hPa 0,0 l/m 11,3 km/h (2 Bft) NO 46 0 min 0,000 mm 0,0 UV-I 0 W/m 6,1 C 3,5 C 17,7 km/h (3 Bft) 100,00 %
11.04.2019 04:14 7,0 C 0,0 C 6,7 C 94 % 1012,4 hPa 0,0 l/m 11,2 km/h (2 Bft) NO 37 0 min 0,000 mm 0,0 UV-I 0 W/m 6,1 C 3,5 C 16,1 km/h (3 Bft) 100,00 %
11.04.2019 04:16 7,0 C 0,0 C 6,7 C 94 % 1012,5 hPa 0,0 l/m 11,2 km/h (2 Bft) O-NO 61 0 min 0,000 mm 0,0 UV-I 0 W/m 6,1 C 3,5 C 17,7 km/h (3 Bft) 100,00 %
11.04.2019 04:18 6,9 C 0,0 C 6,7 C 94 % 1012,5 hPa 0,0 l/m 13,0 km/h (3 Bft) O-NO 62 0 min 0,000 mm 0,0 UV-I 0 W/m 6,0 C 2,4 C 20,9 km/h (4 Bft) 98,00 %
11.04.2019 04:20 6,9 C 0,0 C 6,7 C 94 % 1012,4 hPa 0,0 l/m 13,3 km/h (3 Bft) NO 53 0 min 0,000 mm 0,0 UV-I 0 W/m 6,0 C 2,2 C 19,3 km/h (3 Bft) 100,00 %
11.04.2019 04:22 6,9 C 0,0 C 6,7 C 94 % 1012,5 hPa 0,0 l/m 10,2 km/h (2 Bft) NO 53 0 min 0,000 mm 0,0 UV-I 0 W/m 6,0 C 4,0 C 16,1 km/h (3 Bft) 100,00 %
11.04.2019 04:24 6,9 C 0,0 C 6,7 C 94 % 1012,5 hPa 0,0 l/m 11,3 km/h (2 Bft) NO 38 0 min 0,000 mm 0,0 UV-I 0 W/m 6,0 C 3,4 C 17,7 km/h (3 Bft) 100,00 %
11.04.2019 04:26 6,9 C 0,0 C 6,7 C 94 % 1012,5 hPa 0,0 l/m 9,4 km/h (2 Bft) O-NO 59 0 min 0,000 mm 0,0 UV-I 0 W/m 6,0 C 4,6 C 16,1 km/h (3 Bft) 100,00 %
11.04.2019 04:28 6,8 C 0,0 C 6,7 C 94 % 1012,6 hPa 0,0 l/m 9,0 km/h (2 Bft) O-NO 65 0 min 0,000 mm 0,0 UV-I 0 W/m 5,9 C 4,7 C 16,1 km/h (3 Bft) 97,87 %
11.04.2019 04:30 6,8 C 0,0 C 6,7 C 93 % 1012,6 hPa 0,0 l/m 10,3 km/h (2 Bft) O-NO 72 0 min 0,000 mm 0,0 UV-I 0 W/m 5,7 C 3,9 C 14,5 km/h (3 Bft) 95,74 %
11.04.2019 04:32 6,8 C 0,0 C 6,7 C 93 % 1012,6 hPa 0,0 l/m 11,4 km/h (2 Bft) O-NO 76 0 min 0,000 mm 0,0 UV-I 0 W/m 5,7 C 3,2 C 16,1 km/h (3 Bft) 100,00 %
11.04.2019 04:34 6,9 C 0,0 C 6,7 C 93 % 1012,6 hPa 0,0 l/m 10,1 km/h (2 Bft) O 92 0 min 0,000 mm 0,0 UV-I 0 W/m 5,8 C 4,1 C 17,7 km/h (3 Bft) 95,74 %
11.04.2019 04:36 6,9 C 0,0 C 6,7 C 93 % 1012,6 hPa 0,0 l/m 7,8 km/h (2 Bft) O 86 0 min 0,000 mm 0,0 UV-I 0 W/m 5,8 C 5,8 C 14,5 km/h (3 Bft) 97,87 %
11.04.2019 04:38 6,9 C 0,0 C 6,7 C 92 % 1012,6 hPa 0,0 l/m 9,0 km/h (2 Bft) O-NO 68 0 min 0,000 mm 0,0 UV-I 0 W/m 5,7 C 4,9 C 12,9 km/h (3 Bft) 93,62 %
11.04.2019 04:40 6,9 C 0,0 C 6,7 C 92 % 1012,6 hPa 0,0 l/m 10,2 km/h (2 Bft) NO 46 0 min 0,000 mm 0,0 UV-I 0 W/m 5,7 C 4,0 C 14,5 km/h (3 Bft) 93,62 %
11.04.2019 04:42 6,9 C 0,0 C 6,7 C 92 % 1012,6 hPa 0,0 l/m 7,2 km/h (2 Bft) O-NO 63 0 min 0,000 mm 0,0 UV-I 0 W/m 5,7 C 6,2 C 11,3 km/h (2 Bft) 94,00 %
11.04.2019 04:44 6,9 C 0,0 C 6,7 C 92 % 1012,7 hPa 0,0 l/m 8,6 km/h (2 Bft) NO 42 0 min 0,000 mm 0,0 UV-I 0 W/m 5,7 C 5,1 C 14,5 km/h (3 Bft) 93,62 %
11.04.2019 04:46 6,9 C 0,0 C 6,7 C 92 % 1012,6 hPa 0,0 l/m 10,0 km/h (2 Bft) O-NO 69 0 min 0,000 mm 0,0 UV-I 0 W/m 5,7 C 4,2 C 14,5 km/h (3 Bft) 95,74 %
11.04.2019 04:48 6,9 C 0,0 C 6,7 C 92 % 1012,7 hPa 0,0 l/m 10,7 km/h (2 Bft) O 81 0 min 0,000 mm 0,0 UV-I 0 W/m 5,7 C 3,7 C 14,5 km/h (3 Bft) 93,62 %
11.04.2019 04:50 6,9 C 0,0 C 6,1 C 92 % 1012,7 hPa 0,0 l/m 8,2 km/h (2 Bft) O-NO 69 0 min 0,000 mm 0,0 UV-I 0 W/m 5,7 C 5,4 C 12,9 km/h (3 Bft) 95,74 %
11.04.2019 04:52 6,9 C 0,0 C 6,1 C 92 % 1012,7 hPa 0,0 l/m 11,2 km/h (2 Bft) O-NO 78 0 min 0,000 mm 0,0 UV-I 0 W/m 5,7 C 3,4 C 16,1 km/h (3 Bft) 93,62 %
11.04.2019 04:54 6,9 C 0,0 C 6,1 C 91 % 1012,7 hPa 0,0 l/m 10,4 km/h (2 Bft) O-NO 73 0 min 0,000 mm 0,0 UV-I 0 W/m 5,5 C 3,9 C 14,5 km/h (3 Bft) 93,62 %
11.04.2019 04:56 6,8 C 0,0 C 6,1 C 91 % 1012,7 hPa 0,0 l/m 8,6 km/h (2 Bft) O-NO 74 0 min 0,000 mm 0,0 UV-I 0 W/m 5,4 C 5,0 C 14,5 km/h (3 Bft) 97,87 %
11.04.2019 04:58 6,9 C 0,0 C 6,1 C 91 % 1012,7 hPa 0,0 l/m 10,0 km/h (2 Bft) O-NO 74 0 min 0,000 mm 0,0 UV-I 0 W/m 5,5 C 4,2 C 12,9 km/h (3 Bft) 95,74 %
11.04.2019 05:00 6,9 C 0,0 C 6,1 C 91 % 1012,8 hPa 0,0 l/m 8,8 km/h (2 Bft) O-NO 63 0 min 0,000 mm 0,0 UV-I 0 W/m 5,5 C 5,0 C 12,9 km/h (3 Bft) 97,87 %
11.04.2019 05:02 6,8 C 0,0 C 6,1 C 90 % 1012,8 hPa 0,0 l/m 6,9 km/h (2 Bft) O-NO 76 0 min 0,000 mm 0,0 UV-I 0 W/m 5,3 C 6,4 C 12,9 km/h (3 Bft) 97,87 %
11.04.2019 05:04 6,8 C 0,0 C 6,1 C 90 % 1012,8 hPa 0,0 l/m 8,6 km/h (2 Bft) O 90 0 min 0,000 mm 0,0 UV-I 0 W/m 5,3 C 5,0 C 12,9 km/h (3 Bft) 100,00 %
11.04.2019 05:06 6,8 C 0,0 C 6,1 C 90 % 1012,8 hPa 0,0 l/m 9,4 km/h (2 Bft) O-NO 59 0 min 0,000 mm 0,0 UV-I 0 W/m 5,3 C 4,5 C 14,5 km/h (3 Bft) 100,00 %
11.04.2019 05:08 6,8 C 0,0 C 6,1 C 90 % 1012,9 hPa 0,0 l/m 8,6 km/h (2 Bft) O-NO 59 0 min 0,000 mm 0,0 UV-I 0 W/m 5,3 C 5,0 C 12,9 km/h (3 Bft) 96,00 %
11.04.2019 05:10 6,8 C 0,0 C 6,1 C 90 % 1012,9 hPa 0,0 l/m 9,7 km/h (2 Bft) O 86 0 min 0,000 mm 0,0 UV-I 0 W/m 5,3 C 4,3 C 14,5 km/h (3 Bft) 100,00 %
11.04.2019 05:12 6,8 C 0,0 C 6,1 C 89 % 1012,9 hPa 0,0 l/m 8,4 km/h (2 Bft) O 93 0 min 0,000 mm 0,0 UV-I 0 W/m 5,1 C 5,2 C 12,9 km/h (3 Bft) 100,00 %
11.04.2019 05:14 6,7 C 0,0 C 6,1 C 89 % 1012,9 hPa 0,0 l/m 8,3 km/h (2 Bft) O-NO 65 0 min 0,000 mm 0,0 UV-I 0 W/m 5,0 C 5,2 C 12,9 km/h (3 Bft) 100,00 %
11.04.2019 05:16 6,7 C 0,0 C 6,1 C 88 % 1012,9 hPa 0,0 l/m 8,2 km/h (2 Bft) O-NO 76 0 min 0,000 mm 0,0 UV-I 0 W/m 4,9 C 5,2 C 12,9 km/h (3 Bft) 100,00 %
11.04.2019 05:18 6,7 C 0,0 C 6,1 C 88 % 1012,9 hPa 0,0 l/m 8,0 km/h (2 Bft) O-NO 67 0 min 0,000 mm 0,0 UV-I 0 W/m 4,9 C 5,4 C 12,9 km/h (3 Bft) 93,62 %
11.04.2019 05:20 6,7 C 0,0 C 6,1 C 88 % 1012,9 hPa 0,0 l/m 6,1 km/h (2 Bft) NO 49 0 min 0,000 mm 0,0 UV-I 0 W/m 4,9 C 6,7 C 8,0 km/h (2 Bft) 97,87 %
11.04.2019 05:22 6,7 C 0,0 C 6,1 C 88 % 1013,0 hPa 0,0 l/m 8,0 km/h (2 Bft) O-NO 66 0 min 0,000 mm 0,0 UV-I 0 W/m 4,9 C 5,4 C 12,9 km/h (3 Bft) 98,00 %
11.04.2019 05:24 6,6 C 0,0 C 6,1 C 89 % 1013,0 hPa 0,0 l/m 7,7 km/h (2 Bft) NO 38 0 min 0,000 mm 0,0 UV-I 0 W/m 4,9 C 5,5 C 12,9 km/h (3 Bft) 98,00 %
11.04.2019 05:26 6,6 C 0,0 C 6,1 C 89 % 1013,1 hPa 0,0 l/m 7,3 km/h (2 Bft) NO 48 0 min 0,000 mm 0,0 UV-I 0 W/m 4,9 C 5,8 C 9,7 km/h (2 Bft) 95,74 %
11.04.2019 05:28 6,6 C 0,0 C 6,1 C 90 % 1013,1 hPa 0,0 l/m 7,6 km/h (2 Bft) NO 49 0 min 0,000 mm 0,0 UV-I 0 W/m 5,1 C 5,6 C 9,7 km/h (2 Bft) 95,74 %
11.04.2019 05:30 6,6 C 0,0 C 6,1 C 90 % 1013,1 hPa 0,0 l/m 6,7 km/h (2 Bft) NO 40 0 min 0,000 mm 0,0 UV-I 0 W/m 5,1 C 6,4 C 8,0 km/h (2 Bft) 100,00 %
11.04.2019 05:32 6,6 C 0,0 C 6,1 C 91 % 1013,1 hPa 0,0 l/m 5,9 km/h (2 Bft) NO 42 0 min 0,000 mm 0,0 UV-I 0 W/m 5,2 C 6,6 C 8,0 km/h (2 Bft) 95,74 %
11.04.2019 05:34 6,6 C 0,0 C 6,1 C 91 % 1013,1 hPa 0,0 l/m 5,6 km/h (1 Bft) NO 43 0 min 0,000 mm 0,0 UV-I 0 W/m 5,2 C 6,6 C 6,4 km/h (2 Bft) 95,74 %
11.04.2019 05:36 6,5 C 0,0 C 6,1 C 91 % 1013,1 hPa 0,0 l/m 6,0 km/h (2 Bft) NO 40 0 min 0,000 mm 0,0 UV-I 0 W/m 5,1 C 6,5 C 8,0 km/h (2 Bft) 96,00 %
11.04.2019 05:38 6,5 C 0,0 C 6,1 C 92 % 1013,1 hPa 0,0 l/m 7,9 km/h (2 Bft) N-NO 26 0 min 0,000 mm 0,0 UV-I 0 W/m 5,3 C 5,3 C 11,3 km/h (2 Bft) 97,87 %
11.04.2019 05:40 6,5 C 0,0 C 6,1 C 92 % 1013,1 hPa 0,0 l/m 7,2 km/h (2 Bft) NO 46 0 min 0,000 mm 0,0 UV-I 0 W/m 5,3 C 5,8 C 9,7 km/h (2 Bft) 95,74 %
11.04.2019 05:42 6,5 C 0,0 C 6,1 C 92 % 1013,1 hPa 0,0 l/m 11,2 km/h (2 Bft) NO 44 0 min 0,000 mm 0,0 UV-I 0 W/m 5,3 C 3,0 C 16,1 km/h (3 Bft) 98,00 %
11.04.2019 05:44 6,5 C 0,0 C 6,1 C 91 % 1013,1 hPa 0,0 l/m 8,1 km/h (2 Bft) NO 42 0 min 0,000 mm 0,0 UV-I 0 W/m 5,1 C 5,1 C 12,9 km/h (3 Bft) 97,37 %
11.04.2019 05:46 6,4 C 0,0 C 6,1 C 92 % 1013,1 hPa 0,0 l/m 9,2 km/h (2 Bft) NO 35 0 min 0,000 mm 0,0 UV-I 0 W/m 5,2 C 4,2 C 14,5 km/h (3 Bft) 95,74 %
11.04.2019 05:48 6,4 C 0,0 C 6,1 C 92 % 1013,1 hPa 0,0 l/m 8,9 km/h (2 Bft) NO 40 0 min 0,000 mm 0,0 UV-I 0 W/m 5,2 C 4,4 C 11,3 km/h (2 Bft) 98,00 %
11.04.2019 05:50 6,4 C 0,0 C 6,1 C 91 % 1013,2 hPa 0,0 l/m 10,3 km/h (2 Bft) NO 46 0 min 0,000 mm 0,0 UV-I 0 W/m 5,0 C 3,4 C 17,7 km/h (3 Bft) 97,92 %
11.04.2019 05:52 6,3 C 0,0 C 6,1 C 91 % 1013,2 hPa 0,0 l/m 9,9 km/h (2 Bft) O-NO 57 0 min 0,000 mm 0,0 UV-I 0 W/m 4,9 C 3,6 C 14,5 km/h (3 Bft) 96,00 %
11.04.2019 05:54 6,3 C 0,0 C 6,1 C 91 % 1013,2 hPa 0,0 l/m 9,4 km/h (2 Bft) NO 48 0 min 0,000 mm 0,0 UV-I 0 W/m 4,9 C 3,9 C 14,5 km/h (3 Bft) 96,00 %
11.04.2019 05:56 6,3 C 0,0 C 6,1 C 91 % 1013,2 hPa 0,0 l/m 10,2 km/h (2 Bft) NO 43 0 min 0,000 mm 0,0 UV-I 0 W/m 4,9 C 3,4 C 14,5 km/h (3 Bft) 91,43 %
11.04.2019 05:58 6,3 C 0,0 C 6,1 C 91 % 1013,2 hPa 0,0 l/m 7,4 km/h (2 Bft) O-NO 69 0 min 0,000 mm 0,0 UV-I 0 W/m 4,9 C 5,5 C 9,7 km/h (2 Bft) 98,00 %
11.04.2019 06:00 6,3 C 0,0 C 6,1 C 91 % 1013,3 hPa 0,0 l/m 6,2 km/h (2 Bft) NO 46 0 min 0,000 mm 0,0 UV-I 0 W/m 4,9 C 6,3 C 11,3 km/h (2 Bft) 95,74 %
11.04.2019 06:02 6,4 C 0,0 C 6,1 C 91 % 1013,2 hPa 0,0 l/m 5,7 km/h (1 Bft) O-NO 63 0 min 0,000 mm 0,0 UV-I 0 W/m 5,0 C 6,4 C 8,0 km/h (2 Bft) 93,62 %
11.04.2019 06:04 6,4 C 0,0 C 6,1 C 91 % 1013,3 hPa 0,0 l/m 5,4 km/h (1 Bft) O-NO 76 0 min 0,000 mm 0,0 UV-I 0 W/m 5,0 C 6,4 C 8,0 km/h (2 Bft) 93,62 %
11.04.2019 06:06 6,3 C 0,0 C 6,1 C 91 % 1013,3 hPa 0,0 l/m 6,0 km/h (2 Bft) O 80 0 min 0,000 mm 0,0 UV-I 0 W/m 4,9 C 6,3 C 9,7 km/h (2 Bft) 93,62 %
11.04.2019 06:08 6,3 C 0,0 C 6,1 C 91 % 1013,3 hPa 0,0 l/m 4,8 km/h (1 Bft) O-NO 61 0 min 0,000 mm 0,0 UV-I 0 W/m 4,9 C 6,3 C 8,0 km/h (2 Bft) 94,00 %
11.04.2019 06:10 6,3 C 0,0 C 6,1 C 90 % 1013,3 hPa 0,0 l/m 4,7 km/h (1 Bft) O-NO 58 0 min 0,000 mm 0,0 UV-I 0 W/m 4,8 C 6,3 C 8,0 km/h (2 Bft) 95,74 %
11.04.2019 06:12 6,3 C 0,0 C 6,1 C 91 % 1013,4 hPa 0,0 l/m 5,1 km/h (1 Bft) O-NO 61 0 min 0,000 mm 0,0 UV-I 0 W/m 4,9 C 6,3 C 8,0 km/h (2 Bft) 89,36 %
11.04.2019 06:14 6,3 C 0,0 C 6,1 C 91 % 1013,4 hPa 0,0 l/m 5,2 km/h (1 Bft) O-NO 70 0 min 0,000 mm 0,0 UV-I 0 W/m 4,9 C 6,3 C 6,4 km/h (2 Bft) 94,00 %
11.04.2019 06:16 6,3 C 0,0 C 5,6 C 90 % 1013,4 hPa 0,0 l/m 5,9 km/h (2 Bft) NO 46 0 min 0,000 mm 0,0 UV-I 0 W/m 4,8 C 6,3 C 11,3 km/h (2 Bft) 93,62 %
11.04.2019 06:18 6,2 C 0,0 C 5,6 C 90 % 1013,4 hPa 0,0 l/m 4,9 km/h (1 Bft) O 88 0 min 0,000 mm 0,0 UV-I 0 W/m 4,7 C 6,2 C 9,7 km/h (2 Bft) 93,62 %
11.04.2019 06:20 6,2 C 0,0 C 5,6 C 90 % 1013,5 hPa 0,0 l/m 6,2 km/h (2 Bft) O 101 0 min 0,000 mm 0,0 UV-I 0 W/m 4,7 C 6,2 C 8,0 km/h (2 Bft) 97,37 %
11.04.2019 06:22 6,2 C 0,0 C 5,6 C 90 % 1013,5 hPa 0,0 l/m 6,5 km/h (2 Bft) O-NO 71 0 min 0,000 mm 0,0 UV-I 0 W/m 4,7 C 6,1 C 9,7 km/h (2 Bft) 95,74 %
11.04.2019 06:24 6,2 C 0,0 C 5,6 C 90 % 1013,5 hPa 0,0 l/m 6,8 km/h (2 Bft) O-NO 78 0 min 0,000 mm 0,0 UV-I 0 W/m 4,7 C 5,9 C 9,7 km/h (2 Bft) 97,92 %
11.04.2019 06:26 6,2 C 0,0 C 5,6 C 90 % 1013,5 hPa 0,0 l/m 6,5 km/h (2 Bft) O 92 0 min 0,000 mm 0,0 UV-I 0 W/m 4,7 C 6,1 C 9,7 km/h (2 Bft) 100,00 %
11.04.2019 06:28 6,1 C 0,0 C 5,6 C 90 % 1013,5 hPa 0,0 l/m 5,6 km/h (1 Bft) O-NO 59 0 min 0,000 mm 0,0 UV-I 2 W/m 4,6 C 6,1 C 8,0 km/h (2 Bft) 100,00 %
11.04.2019 06:30 6,1 C 0,0 C 5,6 C 90 % 1013,5 hPa 0,0 l/m 5,3 km/h (1 Bft) NO 40 0 min 0,000 mm 0,0 UV-I 5 W/m 4,6 C 6,1 C 9,7 km/h (2 Bft) 97,87 %
11.04.2019 06:32 6,1 C 0,0 C 5,6 C 90 % 1013,6 hPa 0,0 l/m 6,8 km/h (2 Bft) NO 56 0 min 0,000 mm 0,0 UV-I 5 W/m 4,6 C 5,8 C 8,0 km/h (2 Bft) 97,87 %
11.04.2019 06:34 6,1 C 0,0 C 5,6 C 90 % 1013,6 hPa 0,0 l/m 8,9 km/h (2 Bft) O-NO 69 0 min 0,000 mm 0,0 UV-I 5 W/m 4,6 C 4,1 C 12,9 km/h (3 Bft) 97,87 %
11.04.2019 06:36 6,1 C 0,0 C 5,6 C 90 % 1013,6 hPa 0,0 l/m 8,0 km/h (2 Bft) NO 42 0 min 0,000 mm 0,0 UV-I 7 W/m 4,6 C 4,8 C 9,7 km/h (2 Bft) 97,73 %
11.04.2019 06:38 6,1 C 0,0 C 5,6 C 90 % 1013,7 hPa 0,0 l/m 7,8 km/h (2 Bft) NO 42 0 min 0,000 mm 0,0 UV-I 7 W/m 4,6 C 4,9 C 9,7 km/h (2 Bft) 97,87 %
11.04.2019 06:40 6,1 C 0,0 C 5,6 C 90 % 1013,7 hPa 0,0 l/m 6,9 km/h (2 Bft) NO 38 0 min 0,000 mm 0,0 UV-I 7 W/m 4,6 C 5,7 C 9,7 km/h (2 Bft) 97,87 %
11.04.2019 06:42 6,0 C 0,0 C 5,6 C 90 % 1013,7 hPa 0,0 l/m 6,9 km/h (2 Bft) NO 46 0 min 0,000 mm 0,0 UV-I 9 W/m 4,5 C 5,6 C 9,7 km/h (2 Bft) 97,87 %
11.04.2019 06:44 5,9 C 0,0 C 5,6 C 90 % 1013,7 hPa 0,0 l/m 7,3 km/h (2 Bft) NO 51 0 min 0,000 mm 0,0 UV-I 12 W/m 4,4 C 5,1 C 9,7 km/h (2 Bft) 97,87 %
11.04.2019 06:46 5,9 C 0,0 C 5,6 C 90 % 1013,7 hPa 0,0 l/m 7,2 km/h (2 Bft) NO 53 0 min 0,000 mm 0,0 UV-I 14 W/m 4,4 C 5,2 C 11,3 km/h (2 Bft) 97,87 %
11.04.2019 06:48 5,8 C 0,0 C 5,6 C 90 % 1013,7 hPa 0,0 l/m 8,1 km/h (2 Bft) O-NO 59 0 min 0,000 mm 0,0 UV-I 17 W/m 4,3 C 4,4 C 12,9 km/h (3 Bft) 97,87 %
11.04.2019 06:50 5,8 C 0,0 C 5,6 C 90 % 1013,7 hPa 0,0 l/m 8,6 km/h (2 Bft) O-NO 63 0 min 0,000 mm 0,0 UV-I 19 W/m 4,3 C 4,0 C 11,3 km/h (2 Bft) 95,74 %
11.04.2019 06:52 5,8 C 0,0 C 5,6 C 90 % 1013,7 hPa 0,0 l/m 6,5 km/h (2 Bft) NO 55 0 min 0,000 mm 0,0 UV-I 21 W/m 4,3 C 5,7 C 9,7 km/h (2 Bft) 97,87 %
11.04.2019 06:54 5,9 C 0,0 C 5,6 C 90 % 1013,7 hPa 0,0 l/m 4,5 km/h (1 Bft) O-NO 72 0 min 0,000 mm 0,0 UV-I 21 W/m 4,4 C 5,9 C 6,4 km/h (2 Bft) 98,00 %
11.04.2019 06:56 5,9 C 0,0 C 5,6 C 90 % 1013,7 hPa 0,0 l/m 5,0 km/h (1 Bft) O 81 0 min 0,000 mm 0,0 UV-I 21 W/m 4,4 C 5,9 C 8,0 km/h (2 Bft) 97,56 %
11.04.2019 06:58 5,9 C 0,0 C 5,6 C 90 % 1013,7 hPa 0,0 l/m 6,8 km/h (2 Bft) O 80 0 min 0,000 mm 0,0 UV-I 19 W/m 4,4 C 5,6 C 9,7 km/h (2 Bft) 97,87 %
11.04.2019 07:00 5,9 C 0,0 C 5,6 C 90 % 1013,7 hPa 0,0 l/m 6,0 km/h (2 Bft) NO 42 0 min 0,000 mm 0,0 UV-I 19 W/m 4,4 C 5,9 C 8,0 km/h (2 Bft) 95,74 %
11.04.2019 07:02 5,9 C 0,0 C 5,6 C 89 % 1013,7 hPa 0,0 l/m 7,0 km/h (2 Bft) O-NO 74 0 min 0,000 mm 0,0 UV-I 19 W/m 4,2 C 5,4 C 14,5 km/h (3 Bft) 96,00 %
11.04.2019 07:04 5,9 C 0,0 C 5,6 C 89 % 1013,8 hPa 0,0 l/m 9,8 km/h (2 Bft) O 92 0 min 0,000 mm 0,0 UV-I 22 W/m 4,2 C 3,2 C 14,5 km/h (3 Bft) 97,87 %
11.04.2019 07:06 5,9 C 0,0 C 5,6 C 88 % 1013,7 hPa 0,0 l/m 9,7 km/h (2 Bft) NO 42 0 min 0,000 mm 0,0 UV-I 27 W/m 4,1 C 3,3 C 16,1 km/h (3 Bft) 97,87 %
11.04.2019 07:08 5,9 C 0,0 C 5,6 C 88 % 1013,7 hPa 0,0 l/m 8,4 km/h (2 Bft) O 79 0 min 0,000 mm 0,0 UV-I 31 W/m 4,1 C 4,2 C 14,5 km/h (3 Bft) 100,00 %
11.04.2019 07:10 5,9 C 0,0 C 5,6 C 88 % 1013,8 hPa 0,0 l/m 6,9 km/h (2 Bft) N-NO 30 0 min 0,000 mm 0,0 UV-I 33 W/m 4,1 C 5,5 C 12,9 km/h (3 Bft) 98,39 %
11.04.2019 07:12 5,9 C 0,0 C 5,6 C 88 % 1013,8 hPa 0,0 l/m 7,7 km/h (2 Bft) O 80 0 min 0,000 mm 0,0 UV-I 34 W/m 4,1 C 4,8 C 11,3 km/h (2 Bft) 97,87 %
11.04.2019 07:14 5,9 C 0,0 C 5,6 C 88 % 1013,9 hPa 0,0 l/m 10,8 km/h (2 Bft) NO 54 0 min 0,000 mm 0,0 UV-I 36 W/m 4,1 C 2,5 C 16,1 km/h (3 Bft) 100,00 %
11.04.2019 07:16 5,9 C 0,0 C 5,6 C 88 % 1013,9 hPa 0,0 l/m 11,7 km/h (2 Bft) O-NO 62 0 min 0,000 mm 0,0 UV-I 38 W/m 4,1 C 2,0 C 16,1 km/h (3 Bft) 100,00 %
11.04.2019 07:18 5,8 C 0,0 C 5,6 C 88 % 1013,9 hPa 0,0 l/m 9,0 km/h (2 Bft) O-NO 73 0 min 0,000 mm 0,0 UV-I 40 W/m 4,0 C 3,7 C 14,5 km/h (3 Bft) 100,00 %
11.04.2019 07:20 5,8 C 0,0 C 5,6 C 88 % 1013,9 hPa 0,0 l/m 11,1 km/h (2 Bft) NO 56 0 min 0,000 mm 0,0 UV-I 41 W/m 4,0 C 2,2 C 14,5 km/h (3 Bft) 95,00 %
11.04.2019 07:22 5,8 C 0,0 C 5,6 C 87 % 1013,9 hPa 0,0 l/m 11,5 km/h (2 Bft) NO 55 0 min 0,000 mm 0,0 UV-I 43 W/m 3,8 C 2,0 C 14,5 km/h (3 Bft) 93,62 %
11.04.2019 07:24 5,8 C 0,0 C 5,6 C 87 % 1013,9 hPa 0,0 l/m 11,1 km/h (2 Bft) NO 51 0 min 0,000 mm 0,0 UV-I 45 W/m 3,8 C 2,2 C 16,1 km/h (3 Bft) 97,87 %
11.04.2019 07:26 5,8 C 0,0 C 5,6 C 87 % 1013,9 hPa 0,0 l/m 12,2 km/h (2 Bft) NO 51 0 min 0,000 mm 0,0 UV-I 47 W/m 3,8 C 1,6 C 19,3 km/h (3 Bft) 97,87 %
11.04.2019 07:28 5,8 C 0,0 C 5,6 C 86 % 1013,9 hPa 0,0 l/m 9,9 km/h (2 Bft) NO 51 0 min 0,000 mm 0,0 UV-I 49 W/m 3,6 C 3,0 C 16,1 km/h (3 Bft) 95,92 %
11.04.2019 07:30 5,8 C 0,0 C 5,6 C 86 % 1013,9 hPa 0,0 l/m 11,9 km/h (2 Bft) O-NO 67 0 min 0,000 mm 0,0 UV-I 50 W/m 3,6 C 1,7 C 19,3 km/h (3 Bft) 97,87 %
11.04.2019 07:32 5,8 C 0,0 C 5,6 C 86 % 1013,9 hPa 0,0 l/m 11,8 km/h (2 Bft) O-NO 65 0 min 0,000 mm 0,0 UV-I 52 W/m 3,6 C 1,8 C 19,3 km/h (3 Bft) 95,74 %
11.04.2019 07:34 5,8 C 0,0 C 5,6 C 85 % 1013,9 hPa 0,0 l/m 11,3 km/h (2 Bft) O-NO 62 0 min 0,000 mm 0,0 UV-I 53 W/m 3,5 C 2,1 C 17,7 km/h (3 Bft) 94,74 %
11.04.2019 07:36 5,8 C 0,0 C 5,6 C 86 % 1014,0 hPa 0,0 l/m 11,4 km/h (2 Bft) NO 41 0 min 0,000 mm 0,0 UV-I 53 W/m 3,6 C 2,0 C 16,1 km/h (3 Bft) 98,00 %
11.04.2019 07:38 5,8 C 0,0 C 5,6 C 86 % 1013,9 hPa 0,0 l/m 13,0 km/h (3 Bft) O-NO 60 0 min 0,000 mm 0,0 UV-I 53 W/m 3,6 C 1,1 C 19,3 km/h (3 Bft) 97,87 %
11.04.2019 07:40 5,8 C 0,0 C 5,6 C 86 % 1014,0 hPa 0,0 l/m 13,0 km/h (3 Bft) NO 56 0 min 0,000 mm 0,0 UV-I 54 W/m 3,6 C 1,1 C 17,7 km/h (3 Bft) 95,83 %
11.04.2019 07:42 5,8 C 0,0 C 5,6 C 86 % 1014,0 hPa 0,0 l/m 12,5 km/h (3 Bft) NO 47 0 min 0,000 mm 0,0 UV-I 58 W/m 3,6 C 1,4 C 17,7 km/h (3 Bft) 100,00 %
11.04.2019 07:44 5,8 C 0,0 C 5,6 C 86 % 1014,0 hPa 0,0 l/m 10,8 km/h (2 Bft) NO 55 0 min 0,000 mm 0,0 UV-I 61 W/m 3,6 C 2,4 C 16,1 km/h (3 Bft) 98,00 %
11.04.2019 07:46 5,8 C 0,0 C 6,1 C 86 % 1014,0 hPa 0,0 l/m 10,8 km/h (2 Bft) NO 44 0 min 0,000 mm 0,0 UV-I 64 W/m 3,6 C 2,4 C 16,1 km/h (3 Bft) 100,00 %
11.04.2019 07:48 5,8 C 0,0 C 6,1 C 86 % 1014,0 hPa 0,0 l/m 13,1 km/h (3 Bft) O-NO 57 0 min 0,000 mm 0,0 UV-I 68 W/m 3,6 C 1,0 C 17,7 km/h (3 Bft) 97,87 %
11.04.2019 07:50 5,8 C 0,0 C 6,1 C 86 % 1014,0 hPa 0,0 l/m 12,1 km/h (2 Bft) O-NO 65 0 min 0,000 mm 0,0 UV-I 70 W/m 3,6 C 1,6 C 16,1 km/h (3 Bft) 100,00 %
11.04.2019 07:52 5,8 C 0,0 C 6,1 C 86 % 1014,0 hPa 0,0 l/m 14,1 km/h (3 Bft) O-NO 60 0 min 0,000 mm 0,0 UV-I 73 W/m 3,6 C 0,5 C 17,7 km/h (3 Bft) 100,00 %
11.04.2019 07:54 5,8 C 0,0 C 6,1 C 86 % 1014,1 hPa 0,0 l/m 13,0 km/h (3 Bft) NO 47 0 min 0,000 mm 0,0 UV-I 74 W/m 3,6 C 1,1 C 17,7 km/h (3 Bft) 100,00 %
11.04.2019 07:56 5,8 C 0,0 C 6,1 C 86 % 1014,1 hPa 0,0 l/m 11,3 km/h (2 Bft) O-NO 58 0 min 0,000 mm 0,0 UV-I 72 W/m 3,6 C 2,1 C 16,1 km/h (3 Bft) 97,87 %
11.04.2019 07:58 5,8 C 0,0 C 6,1 C 86 % 1014,1 hPa 0,0 l/m 11,4 km/h (2 Bft) O-NO 63 0 min 0,000 mm 0,0 UV-I 72 W/m 3,6 C 2,0 C 17,7 km/h (3 Bft) 96,00 %
11.04.2019 08:00 5,8 C 0,0 C 6,1 C 86 % 1014,1 hPa 0,0 l/m 11,1 km/h (2 Bft) O-NO 57 0 min 0,025 mm 0,0 UV-I 70 W/m 3,6 C 2,2 C 17,7 km/h (3 Bft) 100,00 %
11.04.2019 08:02 5,8 C 0,0 C 6,1 C 86 % 1014,1 hPa 0,0 l/m 9,0 km/h (2 Bft) O-NO 59 0 min 0,000 mm 0,0 UV-I 68 W/m 3,6 C 3,7 C 16,1 km/h (3 Bft) 100,00 %
11.04.2019 08:04 5,8 C 0,0 C 6,1 C 86 % 1014,2 hPa 0,0 l/m 11,3 km/h (2 Bft) O-NO 74 0 min 0,000 mm 0,0 UV-I 65 W/m 3,6 C 2,1 C 17,7 km/h (3 Bft) 97,87 %
11.04.2019 08:06 5,8 C 0,0 C 6,1 C 85 % 1014,2 hPa 0,0 l/m 12,6 km/h (3 Bft) O-NO 61 0 min 0,000 mm 0,0 UV-I 65 W/m 3,5 C 1,3 C 22,5 km/h (4 Bft) 97,96 %
11.04.2019 08:08 5,8 C 0,0 C 6,1 C 85 % 1014,2 hPa 0,0 l/m 14,9 km/h (3 Bft) NO 54 0 min 0,000 mm 0,0 UV-I 65 W/m 3,5 C 0,1 C 22,5 km/h (4 Bft) 100,00 %
11.04.2019 08:10 5,8 C 0,0 C 6,1 C 85 % 1014,2 hPa 0,0 l/m 12,1 km/h (2 Bft) NO 46 0 min 0,000 mm 0,0 UV-I 69 W/m 3,5 C 1,6 C 17,7 km/h (3 Bft) 97,87 %
11.04.2019 08:12 5,8 C 0,0 C 6,1 C 85 % 1014,2 hPa 0,0 l/m 11,3 km/h (2 Bft) O-NO 59 0 min 0,000 mm 0,0 UV-I 77 W/m 3,5 C 2,1 C 17,7 km/h (3 Bft) 100,00 %
11.04.2019 08:14 5,8 C 0,0 C 6,1 C 85 % 1014,3 hPa 0,0 l/m 15,8 km/h (3 Bft) NO 55 0 min 0,000 mm 0,0 UV-I 84 W/m 3,5 C -0,3 C 19,3 km/h (3 Bft) 100,00 %
11.04.2019 08:16 5,8 C 0,0 C 6,1 C 85 % 1014,3 hPa 0,0 l/m 15,3 km/h (3 Bft) NO 50 0 min 0,000 mm 0,0 UV-I 90 W/m 3,5 C -0,1 C 17,7 km/h (3 Bft) 100,00 %
11.04.2019 08:18 5,8 C 0,0 C 6,1 C 85 % 1014,3 hPa 0,0 l/m 11,7 km/h (2 Bft) NO 47 0 min 0,000 mm 0,0 UV-I 94 W/m 3,5 C 1,9 C 16,1 km/h (3 Bft) 100,00 %
11.04.2019 08:20 5,8 C 0,0 C 6,7 C 84 % 1014,4 hPa 0,0 l/m 8,9 km/h (2 Bft) O-NO 58 0 min 0,000 mm 0,0 UV-I 100 W/m 3,3 C 3,7 C 14,5 km/h (3 Bft) 100,00 %
11.04.2019 08:22 5,8 C 0,0 C 6,7 C 84 % 1014,4 hPa 0,0 l/m 7,8 km/h (2 Bft) NO 51 0 min 0,000 mm 0,0 UV-I 113 W/m 3,3 C 4,6 C 12,9 km/h (3 Bft) 100,00 %
11.04.2019 08:24 5,9 C 0,0 C 6,7 C 84 % 1014,4 hPa 0,0 l/m 8,7 km/h (2 Bft) O-NO 78 0 min 0,000 mm 0,0 UV-I 124 W/m 3,4 C 4,0 C 14,5 km/h (3 Bft) 100,00 %
11.04.2019 08:26 5,9 C 0,0 C 7,2 C 84 % 1014,4 hPa 0,0 l/m 8,2 km/h (2 Bft) O-NO 71 0 min 0,000 mm 0,0 UV-I 132 W/m 3,4 C 4,4 C 11,3 km/h (2 Bft) 97,87 %
11.04.2019 08:28 6,0 C 0,0 C 7,2 C 84 % 1014,4 hPa 0,0 l/m 9,3 km/h (2 Bft) O-NO 63 0 min 0,000 mm 0,0 UV-I 135 W/m 3,5 C 3,7 C 14,5 km/h (3 Bft) 100,00 %
11.04.2019 08:30 6,1 C 0,0 C 7,8 C 84 % 1014,4 hPa 0,0 l/m 8,6 km/h (2 Bft) NO 53 0 min 0,000 mm 0,0 UV-I 134 W/m 3,6 C 4,3 C 14,5 km/h (3 Bft) 100,00 %
11.04.2019 08:32 6,1 C 0,0 C 7,8 C 84 % 1014,4 hPa 0,0 l/m 6,0 km/h (2 Bft) NO 54 0 min 0,000 mm 0,0 UV-I 131 W/m 3,6 C 6,1 C 9,7 km/h (2 Bft) 100,00 %
11.04.2019 08:34 6,1 C 0,0 C 7,2 C 83 % 1014,4 hPa 0,0 l/m 8,2 km/h (2 Bft) O-NO 61 0 min 0,000 mm 0,0 UV-I 122 W/m 3,4 C 4,6 C 12,9 km/h (3 Bft) 95,74 %
11.04.2019 08:36 6,1 C 0,0 C 7,2 C 84 % 1014,5 hPa 0,0 l/m 7,1 km/h (2 Bft) O-NO 72 0 min 0,000 mm 0,0 UV-I 117 W/m 3,6 C 5,5 C 11,3 km/h (2 Bft) 95,74 %
11.04.2019 08:38 6,1 C 0,0 C 7,2 C 84 % 1014,5 hPa 0,0 l/m 8,1 km/h (2 Bft) NO 51 0 min 0,000 mm 0,0 UV-I 119 W/m 3,6 C 4,7 C 14,5 km/h (3 Bft) 97,87 %
11.04.2019 08:40 6,2 C 0,0 C 7,8 C 84 % 1014,5 hPa 0,0 l/m 7,0 km/h (2 Bft) O-NO 57 0 min 0,000 mm 0,0 UV-I 125 W/m 3,7 C 5,7 C 11,3 km/h (2 Bft) 97,87 %
11.04.2019 08:42 6,2 C 0,0 C 7,8 C 84 % 1014,5 hPa 0,0 l/m 8,3 km/h (2 Bft) O-NO 64 0 min 0,000 mm 0,0 UV-I 131 W/m 3,7 C 4,6 C 12,9 km/h (3 Bft) 95,74 %
11.04.2019 08:44 6,2 C 0,0 C 7,8 C 84 % 1014,5 hPa 0,0 l/m 6,9 km/h (2 Bft) O 85 0 min 0,000 mm 0,0 UV-I 129 W/m 3,7 C 5,8 C 11,3 km/h (2 Bft) 95,74 %
11.04.2019 08:46 6,2 C 0,0 C 7,8 C 84 % 1014,5 hPa 0,0 l/m 8,9 km/h (2 Bft) O-NO 67 0 min 0,000 mm 0,0 UV-I 127 W/m 3,7 C 4,2 C 12,9 km/h (3 Bft) 93,62 %
11.04.2019 08:48 6,2 C 0,0 C 7,8 C 84 % 1014,5 hPa 0,0 l/m 8,4 km/h (2 Bft) NO 43 0 min 0,000 mm 0,0 UV-I 127 W/m 3,7 C 4,6 C 12,9 km/h (3 Bft) 95,74 %
11.04.2019 08:50 6,3 C 0,0 C 7,8 C 85 % 1014,5 hPa 0,0 l/m 10,3 km/h (2 Bft) O-NO 67 0 min 0,000 mm 0,0 UV-I 127 W/m 4,0 C 3,3 C 16,1 km/h (3 Bft) 89,36 %
11.04.2019 08:52 6,3 C 0,0 C 7,2 C 84 % 1014,6 hPa 0,0 l/m 9,8 km/h (2 Bft) O-NO 61 0 min 0,000 mm 0,0 UV-I 125 W/m 3,8 C 3,6 C 14,5 km/h (3 Bft) 100,00 %
11.04.2019 08:54 6,3 C 0,0 C 7,8 C 85 % 1014,6 hPa 0,0 l/m 8,8 km/h (2 Bft) O-NO 69 0 min 0,000 mm 0,0 UV-I 125 W/m 4,0 C 4,4 C 14,5 km/h (3 Bft) 91,67 %
11.04.2019 08:56 6,3 C 0,0 C 7,8 C 83 % 1014,6 hPa 0,0 l/m 7,1 km/h (2 Bft) NO 46 0 min 0,000 mm 0,0 UV-I 125 W/m 3,6 C 5,7 C 12,9 km/h (3 Bft) 95,74 %
11.04.2019 08:58 6,3 C 0,0 C 7,8 C 84 % 1014,6 hPa 0,0 l/m 9,1 km/h (2 Bft) O-NO 66 0 min 0,000 mm 0,0 UV-I 123 W/m 3,8 C 4,1 C 14,5 km/h (3 Bft) 95,74 %
11.04.2019 09:00 6,3 C 0,0 C 7,2 C 84 % 1014,6 hPa 0,0 l/m 11,6 km/h (2 Bft) O-NO 59 0 min 0,051 mm 0,0 UV-I 122 W/m 3,8 C 2,5 C 19,3 km/h (3 Bft) 96,00 %
11.04.2019 09:02 6,3 C 0,0 C 7,2 C 83 % 1014,6 hPa 0,0 l/m 11,7 km/h (2 Bft) NO 39 0 min 0,000 mm 0,0 UV-I 124 W/m 3,6 C 2,4 C 16,1 km/h (3 Bft) 95,74 %
11.04.2019 09:04 6,2 C 0,0 C 6,7 C 83 % 1014,7 hPa 0,0 l/m 13,0 km/h (3 Bft) NO 56 0 min 0,000 mm 0,0 UV-I 125 W/m 3,5 C 1,6 C 19,3 km/h (3 Bft) 97,87 %
11.04.2019 09:06 6,2 C 0,0 C 6,7 C 82 % 1014,7 hPa 0,0 l/m 11,6 km/h (2 Bft) NO 43 0 min 0,000 mm 0,0 UV-I 129 W/m 3,4 C 2,4 C 17,7 km/h (3 Bft) 98,00 %
11.04.2019 09:08 6,2 C 0,0 C 7,2 C 83 % 1014,7 hPa 0,0 l/m 10,1 km/h (2 Bft) NO 50 0 min 0,000 mm 0,0 UV-I 135 W/m 3,5 C 3,3 C 16,1 km/h (3 Bft) 97,87 %
11.04.2019 09:10 6,2 C 0,0 C 7,2 C 83 % 1014,7 hPa 0,0 l/m 12,5 km/h (3 Bft) NO 45 0 min 0,000 mm 0,0 UV-I 142 W/m 3,5 C 1,8 C 17,7 km/h (3 Bft) 97,87 %
11.04.2019 09:12 6,2 C 0,0 C 6,7 C 82 % 1014,7 hPa 0,0 l/m 13,0 km/h (3 Bft) O-NO 63 0 min 0,000 mm 0,0 UV-I 148 W/m 3,4 C 1,6 C 19,3 km/h (3 Bft) 97,87 %
11.04.2019 09:14 6,2 C 0,0 C 7,2 C 82 % 1014,7 hPa 0,0 l/m 11,7 km/h (2 Bft) NO 39 0 min 0,000 mm 0,0 UV-I 153 W/m 3,4 C 2,3 C 19,3 km/h (3 Bft) 100,00 %
11.04.2019 09:16 6,3 C 0,0 C 7,2 C 82 % 1014,7 hPa 0,0 l/m 12,8 km/h (3 Bft) N-NO 22 0 min 0,000 mm 0,0 UV-I 153 W/m 3,5 C 1,8 C 16,1 km/h (3 Bft) 100,00 %
11.04.2019 09:18 6,3 C 0,0 C 7,8 C 83 % 1014,7 hPa 0,0 l/m 11,3 km/h (2 Bft) NO 51 0 min 0,000 mm 0,0 UV-I 150 W/m 3,6 C 2,7 C 16,1 km/h (3 Bft) 95,74 %
11.04.2019 09:20 6,4 C 0,0 C 7,8 C 83 % 1014,7 hPa 0,0 l/m 9,3 km/h (2 Bft) N-NO 26 0 min 0,000 mm 0,0 UV-I 143 W/m 3,7 C 4,1 C 12,9 km/h (3 Bft) 100,00 %
11.04.2019 09:22 6,4 C 0,0 C 7,2 C 83 % 1014,7 hPa 0,0 l/m 10,9 km/h (2 Bft) NO 36 0 min 0,000 mm 0,0 UV-I 140 W/m 3,7 C 3,0 C 14,5 km/h (3 Bft) 98,11 %
11.04.2019 09:24 6,4 C 0,0 C 7,2 C 83 % 1014,8 hPa 0,0 l/m 10,1 km/h (2 Bft) NO 46 0 min 0,000 mm 0,0 UV-I 141 W/m 3,7 C 3,6 C 14,5 km/h (3 Bft) 97,87 %
11.04.2019 09:26 6,4 C 0,0 C 7,8 C 83 % 1014,8 hPa 0,0 l/m 10,7 km/h (2 Bft) O-NO 71 0 min 0,000 mm 0,0 UV-I 145 W/m 3,7 C 3,2 C 16,1 km/h (3 Bft) 100,00 %
11.04.2019 09:28 6,4 C 0,0 C 7,8 C 82 % 1014,8 hPa 0,0 l/m 10,2 km/h (2 Bft) NO 49 0 min 0,000 mm 0,3 UV-I 149 W/m 3,6 C 3,5 C 16,1 km/h (3 Bft) 100,00 %
11.04.2019 09:30 6,4 C 0,0 C 7,2 C 82 % 1014,8 hPa 0,0 l/m 13,3 km/h (3 Bft) NO 48 0 min 0,000 mm 0,5 UV-I 155 W/m 3,6 C 1,6 C 16,1 km/h (3 Bft) 91,49 %
11.04.2019 09:32 6,4 C 0,0 C 7,8 C 82 % 1014,8 hPa 0,0 l/m 9,8 km/h (2 Bft) N-NO 33 0 min 0,000 mm 0,5 UV-I 160 W/m 3,6 C 3,8 C 14,5 km/h (3 Bft) 97,87 %
11.04.2019 09:34 6,5 C 0,0 C 7,8 C 83 % 1014,8 hPa 0,0 l/m 10,7 km/h (2 Bft) N-NO 29 0 min 0,000 mm 0,5 UV-I 163 W/m 3,8 C 3,3 C 16,1 km/h (3 Bft) 94,74 %
11.04.2019 09:36 6,6 C 0,0 C 8,3 C 83 % 1014,8 hPa 0,0 l/m 8,9 km/h (2 Bft) NO 53 0 min 0,000 mm 0,5 UV-I 165 W/m 3,9 C 4,6 C 14,5 km/h (3 Bft) 97,92 %
11.04.2019 09:38 6,6 C 0,0 C 8,3 C 83 % 1014,8 hPa 0,0 l/m 10,9 km/h (2 Bft) N-NO 19 0 min 0,000 mm 0,6 UV-I 173 W/m 3,9 C 3,3 C 17,7 km/h (3 Bft) 96,00 %
11.04.2019 09:40 6,7 C 0,0 C 8,3 C 83 % 1014,8 hPa 0,0 l/m 10,6 km/h (2 Bft) NO 40 0 min 0,000 mm 0,6 UV-I 177 W/m 4,0 C 3,6 C 14,5 km/h (3 Bft) 97,87 %
11.04.2019 09:42 6,8 C 0,0 C 8,3 C 83 % 1014,9 hPa 0,0 l/m 12,4 km/h (3 Bft) NO 47 0 min 0,000 mm 0,6 UV-I 179 W/m 4,1 C 2,6 C 17,7 km/h (3 Bft) 97,87 %
11.04.2019 09:44 6,7 C 0,0 C 8,3 C 81 % 1014,8 hPa 0,0 l/m 14,9 km/h (3 Bft) NO 36 0 min 0,000 mm 0,6 UV-I 181 W/m 3,7 C 1,2 C 17,7 km/h (3 Bft) 97,87 %
11.04.2019 09:46 6,7 C 0,0 C 8,3 C 80 % 1014,9 hPa 0,0 l/m 16,8 km/h (3 Bft) NO 36 0 min 0,000 mm 0,6 UV-I 186 W/m 3,5 C 0,3 C 19,3 km/h (3 Bft) 96,00 %
11.04.2019 09:48 6,6 C 0,0 C 7,8 C 80 % 1014,9 hPa 0,0 l/m 15,5 km/h (3 Bft) N-NO 29 0 min 0,000 mm 0,7 UV-I 195 W/m 3,4 C 0,8 C 20,9 km/h (4 Bft) 97,37 %
11.04.2019 09:50 6,6 C 0,0 C 8,3 C 80 % 1014,9 hPa 0,0 l/m 13,4 km/h (3 Bft) NO 51 0 min 0,000 mm 0,7 UV-I 207 W/m 3,4 C 1,8 C 19,3 km/h (3 Bft) 95,74 %
11.04.2019 09:52 6,7 C 0,0 C 8,3 C 81 % 1014,9 hPa 0,0 l/m 10,0 km/h (2 Bft) NO 47 0 min 0,000 mm 0,7 UV-I 211 W/m 3,7 C 4,0 C 14,5 km/h (3 Bft) 98,00 %
11.04.2019 09:54 6,7 C 0,0 C 8,3 C 81 % 1015,0 hPa 0,0 l/m 10,7 km/h (2 Bft) NO 44 0 min 0,000 mm 0,7 UV-I 209 W/m 3,7 C 3,5 C 14,5 km/h (3 Bft) 98,00 %
11.04.2019 09:56 6,8 C 0,0 C 8,9 C 80 % 1015,0 hPa 0,0 l/m 11,2 km/h (2 Bft) NO 34 0 min 0,000 mm 0,7 UV-I 212 W/m 3,6 C 3,3 C 16,1 km/h (3 Bft) 97,87 %
11.04.2019 09:58 6,8 C 0,0 C 9,4 C 79 % 1015,0 hPa 0,0 l/m 9,0 km/h (2 Bft) O-NO 74 0 min 0,000 mm 0,8 UV-I 220 W/m 3,4 C 4,7 C 12,9 km/h (3 Bft) 98,00 %
11.04.2019 10:00 6,8 C 0,0 C 9,4 C 78 % 1014,9 hPa 0,0 l/m 11,5 km/h (2 Bft) NO 50 0 min 0,076 mm 0,8 UV-I 222 W/m 3,2 C 3,1 C 14,5 km/h (3 Bft) 100,00 %
11.04.2019 10:02 6,8 C 0,0 C 9,4 C 79 % 1015,0 hPa 0,0 l/m 12,6 km/h (3 Bft) NO 34 0 min 0,000 mm 0,8 UV-I 219 W/m 3,4 C 2,5 C 19,3 km/h (3 Bft) 93,62 %
11.04.2019 10:04 6,9 C 0,0 C 9,4 C 81 % 1015,0 hPa 0,0 l/m 11,4 km/h (2 Bft) O-NO 69 0 min 0,000 mm 0,8 UV-I 221 W/m 3,9 C 3,3 C 16,1 km/h (3 Bft) 92,00 %
11.04.2019 10:06 6,9 C 0,0 C 8,9 C 80 % 1015,0 hPa 0,0 l/m 11,8 km/h (2 Bft) NO 40 0 min 0,000 mm 0,8 UV-I 228 W/m 3,7 C 3,1 C 14,5 km/h (3 Bft) 95,74 %
11.04.2019 10:08 6,9 C 0,0 C 9,4 C 80 % 1015,0 hPa 0,0 l/m 11,4 km/h (2 Bft) NO 49 0 min 0,000 mm 0,9 UV-I 236 W/m 3,7 C 3,3 C 14,5 km/h (3 Bft) 95,74 %
11.04.2019 10:10 7,1 C 0,0 C 8,9 C 81 % 1015,0 hPa 0,0 l/m 15,4 km/h (3 Bft) NO 46 0 min 0,000 mm 0,9 UV-I 240 W/m 4,1 C 1,4 C 19,3 km/h (3 Bft) 94,00 %
11.04.2019 10:12 7,1 C 0,0 C 8,9 C 80 % 1015,0 hPa 0,0 l/m 14,2 km/h (3 Bft) O-NO 61 0 min 0,000 mm 0,9 UV-I 244 W/m 3,9 C 2,0 C 17,7 km/h (3 Bft) 94,00 %
11.04.2019 10:14 7,1 C 0,0 C 9,4 C 80 % 1015,0 hPa 0,0 l/m 10,7 km/h (2 Bft) O 88 0 min 0,000 mm 0,9 UV-I 251 W/m 3,9 C 3,9 C 16,1 km/h (3 Bft) 93,62 %
11.04.2019 10:16 7,1 C 0,0 C 10,0 C 79 % 1015,0 hPa 0,0 l/m 11,4 km/h (2 Bft) O 86 0 min 0,000 mm 0,9 UV-I 250 W/m 3,7 C 3,5 C 17,7 km/h (3 Bft) 95,74 %
11.04.2019 10:18 7,1 C 0,0 C 10,0 C 77 % 1015,0 hPa 0,0 l/m 11,0 km/h (2 Bft) O-NO 69 0 min 0,000 mm 0,9 UV-I 246 W/m 3,3 C 3,8 C 17,7 km/h (3 Bft) 95,83 %
11.04.2019 10:20 7,0 C 0,0 C 10,0 C 78 % 1015,1 hPa 0,0 l/m 11,8 km/h (2 Bft) O-NO 62 0 min 0,000 mm 0,9 UV-I 242 W/m 3,4 C 3,2 C 20,9 km/h (4 Bft) 95,74 %
11.04.2019 10:22 7,0 C 0,0 C 10,0 C 77 % 1015,1 hPa 0,0 l/m 13,4 km/h (3 Bft) O 79 0 min 0,000 mm 0,9 UV-I 238 W/m 3,2 C 2,3 C 19,3 km/h (3 Bft) 95,74 %
11.04.2019 10:24 6,9 C 0,0 C 10,0 C 77 % 1015,1 hPa 0,0 l/m 8,3 km/h (2 Bft) N-NO 26 0 min 0,000 mm 1,0 UV-I 242 W/m 3,2 C 5,4 C 14,5 km/h (3 Bft) 95,74 %
11.04.2019 10:26 7,1 C 0,0 C 10,0 C 79 % 1015,1 hPa 0,0 l/m 11,3 km/h (2 Bft) NO 34 0 min 0,000 mm 1,0 UV-I 249 W/m 3,7 C 3,6 C 16,1 km/h (3 Bft) 97,37 %
11.04.2019 10:28 7,2 C 0,0 C 10,0 C 79 % 1015,1 hPa 0,0 l/m 15,4 km/h (3 Bft) NO 56 0 min 0,000 mm 1,0 UV-I 253 W/m 3,8 C 1,6 C 19,3 km/h (3 Bft) 95,74 %
11.04.2019 10:30 7,2 C 0,0 C 10,0 C 79 % 1015,2 hPa 0,0 l/m 14,0 km/h (3 Bft) NO 44 0 min 0,000 mm 1,0 UV-I 252 W/m 3,8 C 2,2 C 19,3 km/h (3 Bft) 93,62 %
11.04.2019 10:32 7,2 C 0,0 C 10,6 C 77 % 1015,2 hPa 0,0 l/m 8,7 km/h (2 Bft) O-NO 67 0 min 0,000 mm 1,0 UV-I 257 W/m 3,4 C 5,4 C 14,5 km/h (3 Bft) 93,62 %
11.04.2019 10:34 7,2 C 0,0 C 11,1 C 78 % 1015,2 hPa 0,0 l/m 10,4 km/h (2 Bft) O 81 0 min 0,000 mm 1,0 UV-I 272 W/m 3,6 C 4,2 C 14,5 km/h (3 Bft) 94,00 %
11.04.2019 10:36 7,3 C 0,0 C 11,1 C 80 % 1015,2 hPa 0,0 l/m 8,7 km/h (2 Bft) NO 37 0 min 0,000 mm 1,1 UV-I 281 W/m 4,1 C 5,5 C 11,3 km/h (2 Bft) 93,62 %
11.04.2019 10:38 7,4 C 0,0 C 11,7 C 80 % 1015,2 hPa 0,0 l/m 9,3 km/h (2 Bft) O-NO 63 0 min 0,000 mm 1,1 UV-I 273 W/m 4,2 C 5,2 C 14,5 km/h (3 Bft) 97,37 %
11.04.2019 10:40 7,4 C 0,0 C 11,7 C 78 % 1015,2 hPa 0,0 l/m 8,5 km/h (2 Bft) O 80 0 min 0,000 mm 1,0 UV-I 258 W/m 3,8 C 5,8 C 14,5 km/h (3 Bft) 94,00 %
11.04.2019 10:42 7,4 C 0,0 C 11,1 C 78 % 1015,2 hPa 0,0 l/m 10,3 km/h (2 Bft) O-NO 77 0 min 0,000 mm 1,0 UV-I 249 W/m 3,8 C 4,5 C 16,1 km/h (3 Bft) 95,74 %
11.04.2019 10:44 7,3 C 0,0 C 11,1 C 76 % 1015,3 hPa 0,0 l/m 10,7 km/h (2 Bft) O-NO 75 0 min 0,000 mm 1,0 UV-I 236 W/m 3,4 C 4,2 C 14,5 km/h (3 Bft) 91,49 %
11.04.2019 10:46 7,2 C 0,0 C 11,1 C 77 % 1015,3 hPa 0,0 l/m 11,2 km/h (2 Bft) O 80 0 min 0,000 mm 0,9 UV-I 221 W/m 3,4 C 3,8 C 16,1 km/h (3 Bft) 95,74 %
11.04.2019 10:48 7,2 C 0,0 C 11,1 C 77 % 1015,3 hPa 0,0 l/m 9,8 km/h (2 Bft) O-NO 57 0 min 0,000 mm 0,9 UV-I 213 W/m 3,4 C 4,6 C 14,5 km/h (3 Bft) 95,74 %
11.04.2019 10:50 7,2 C 0,0 C 11,1 C 79 % 1015,3 hPa 0,0 l/m 8,6 km/h (2 Bft) NO 53 0 min 0,000 mm 1,0 UV-I 225 W/m 3,8 C 5,5 C 16,1 km/h (3 Bft) 96,00 %
11.04.2019 10:52 7,3 C 0,0 C 11,1 C 78 % 1015,3 hPa 0,0 l/m 13,8 km/h (3 Bft) NO 45 0 min 0,000 mm 1,0 UV-I 237 W/m 3,7 C 2,4 C 19,3 km/h (3 Bft) 92,45 %
11.04.2019 10:54 7,3 C 0,0 C 11,1 C 79 % 1015,3 hPa 0,0 l/m 10,6 km/h (2 Bft) NO 39 0 min 0,000 mm 1,0 UV-I 248 W/m 3,9 C 4,2 C 14,5 km/h (3 Bft) 100,00 %
11.04.2019 10:56 7,3 C 0,0 C 11,1 C 79 % 1015,3 hPa 0,0 l/m 9,9 km/h (2 Bft) N-NO 31 0 min 0,000 mm 1,1 UV-I 255 W/m 3,9 C 4,7 C 16,1 km/h (3 Bft) 95,74 %
11.04.2019 10:58 7,3 C 0,0 C 10,6 C 78 % 1015,4 hPa 0,0 l/m 12,4 km/h (3 Bft) O-NO 58 0 min 0,000 mm 1,1 UV-I 238 W/m 3,7 C 3,2 C 19,3 km/h (3 Bft) 96,00 %
11.04.2019 11:00 7,4 C 0,0 C 10,6 C 78 % 1015,3 hPa 0,0 l/m 7,9 km/h (2 Bft) O-NO 67 0 min 0,127 mm 1,0 UV-I 216 W/m 3,8 C 6,2 C 12,9 km/h (3 Bft) 100,00 %
11.04.2019 11:02 7,4 C 0,0 C 11,1 C 78 % 1015,4 hPa 0,0 l/m 9,4 km/h (2 Bft) O-NO 65 0 min 0,000 mm 0,9 UV-I 198 W/m 3,8 C 5,1 C 16,1 km/h (3 Bft) 100,00 %
11.04.2019 11:04 7,4 C 0,0 C 10,6 C 78 % 1015,3 hPa 0,0 l/m 11,7 km/h (2 Bft) O-NO 71 0 min 0,000 mm 0,9 UV-I 195 W/m 3,8 C 3,7 C 16,1 km/h (3 Bft) 97,14 %
11.04.2019 11:06 7,3 C 0,0 C 11,1 C 77 % 1015,3 hPa 0,0 l/m 9,6 km/h (2 Bft) O 94 0 min 0,000 mm 0,9 UV-I 221 W/m 3,5 C 4,9 C 14,5 km/h (3 Bft) 96,23 %
11.04.2019 11:08 7,3 C 0,0 C 11,1 C 77 % 1015,3 hPa 0,0 l/m 11,0 km/h (2 Bft) O-NO 75 0 min 0,000 mm 1,0 UV-I 230 W/m 3,5 C 4,0 C 16,1 km/h (3 Bft) 100,00 %
11.04.2019 11:10 7,4 C 0,0 C 11,1 C 78 % 1015,4 hPa 0,0 l/m 7,2 km/h (2 Bft) NO 49 0 min 0,000 mm 1,0 UV-I 229 W/m 3,8 C 6,8 C 11,3 km/h (2 Bft) 97,87 %
11.04.2019 11:12 7,5 C 0,0 C 11,1 C 79 % 1015,4 hPa 0,0 l/m 8,4 km/h (2 Bft) O-NO 70 0 min 0,000 mm 1,0 UV-I 225 W/m 4,1 C 5,9 C 12,9 km/h (3 Bft) 100,00 %
11.04.2019 11:14 7,4 C 0,0 C 11,1 C 76 % 1015,4 hPa 0,0 l/m 7,6 km/h (2 Bft) O 80 0 min 0,000 mm 1,0 UV-I 223 W/m 3,5 C 6,4 C 12,9 km/h (3 Bft) 97,87 %
11.04.2019 11:16 7,3 C 0,0 C 11,7 C 76 % 1015,4 hPa 0,0 l/m 5,6 km/h (1 Bft) O-NO 65 0 min 0,000 mm 1,0 UV-I 233 W/m 3,4 C 7,3 C 8,0 km/h (2 Bft) 95,74 %
11.04.2019 11:18 7,5 C 0,0 C 11,7 C 78 % 1015,4 hPa 0,0 l/m 6,1 km/h (2 Bft) NO 38 0 min 0,000 mm 1,0 UV-I 234 W/m 3,9 C 7,5 C 8,0 km/h (2 Bft) 100,00 %
11.04.2019 11:20 7,7 C 0,0 C 12,2 C 79 % 1015,4 hPa 0,0 l/m 7,5 km/h (2 Bft) NO 44 0 min 0,000 mm 1,1 UV-I 239 W/m 4,3 C 6,8 C 9,7 km/h (2 Bft) 100,00 %
11.04.2019 11:22 7,8 C 0,0 C 12,2 C 79 % 1015,4 hPa 0,0 l/m 10,1 km/h (2 Bft) O 84 0 min 0,000 mm 1,2 UV-I 253 W/m 4,4 C 5,1 C 14,5 km/h (3 Bft) 97,37 %
11.04.2019 11:24 7,7 C 0,0 C 12,8 C 76 % 1015,4 hPa 0,0 l/m 6,9 km/h (2 Bft) O 90 0 min 0,000 mm 1,3 UV-I 270 W/m 3,7 C 7,3 C 11,3 km/h (2 Bft) 94,00 %
11.04.2019 11:26 7,7 C 0,0 C 12,8 C 75 % 1015,4 hPa 0,0 l/m 10,5 km/h (2 Bft) O-NO 75 0 min 0,000 mm 1,3 UV-I 277 W/m 3,6 C 4,7 C 14,5 km/h (3 Bft) 97,87 %
11.04.2019 11:28 7,7 C 0,0 C 12,8 C 74 % 1015,4 hPa 0,0 l/m 9,1 km/h (2 Bft) O-NO 67 0 min 0,000 mm 1,3 UV-I 275 W/m 3,4 C 5,6 C 14,5 km/h (3 Bft) 94,00 %
11.04.2019 11:30 7,6 C 0,0 C 12,8 C 75 % 1015,5 hPa 0,0 l/m 7,1 km/h (2 Bft) O-NO 74 0 min 0,000 mm 1,3 UV-I 268 W/m 3,5 C 7,0 C 11,3 km/h (2 Bft) 97,92 %
11.04.2019 11:32 7,6 C 0,0 C 12,8 C 75 % 1015,5 hPa 0,0 l/m 8,1 km/h (2 Bft) O 89 0 min 0,000 mm 1,3 UV-I 268 W/m 3,5 C 6,3 C 12,9 km/h (3 Bft) 97,87 %
11.04.2019 11:34 7,6 C 0,0 C 12,8 C 74 % 1015,4 hPa 0,0 l/m 5,1 km/h (1 Bft) O-NO 70 0 min 0,000 mm 1,3 UV-I 270 W/m 3,3 C 7,6 C 6,4 km/h (2 Bft) 95,74 %
11.04.2019 11:36 7,7 C 0,0 C 12,8 C 75 % 1015,5 hPa 0,0 l/m 7,9 km/h (2 Bft) O-NO 62 0 min 0,000 mm 1,3 UV-I 264 W/m 3,6 C 6,5 C 12,9 km/h (3 Bft) 93,62 %
11.04.2019 11:38 7,7 C 0,0 C 13,3 C 74 % 1015,5 hPa 0,0 l/m 9,9 km/h (2 Bft) O 98 0 min 0,000 mm 1,3 UV-I 280 W/m 3,4 C 5,1 C 14,5 km/h (3 Bft) 97,87 %
11.04.2019 11:40 7,7 C 0,0 C 13,3 C 74 % 1015,4 hPa 0,0 l/m 4,0 km/h (1 Bft) O 91 0 min 0,000 mm 1,4 UV-I 304 W/m 3,4 C 7,7 C 11,3 km/h (2 Bft) 96,00 %
11.04.2019 11:42 7,7 C 0,0 C 13,9 C 74 % 1015,4 hPa 0,0 l/m 8,9 km/h (2 Bft) O-SO 109 0 min 0,000 mm 1,4 UV-I 312 W/m 3,4 C 5,8 C 14,5 km/h (3 Bft) 95,74 %
11.04.2019 11:44 7,9 C 0,0 C 14,4 C 76 % 1015,5 hPa 0,0 l/m 7,2 km/h (2 Bft) O 88 0 min 0,000 mm 1,5 UV-I 327 W/m 3,9 C 7,3 C 12,9 km/h (3 Bft) 97,87 %
11.04.2019 11:46 8,0 C 0,0 C 14,4 C 74 % 1015,5 hPa 0,0 l/m 7,0 km/h (2 Bft) SO 139 0 min 0,000 mm 1,5 UV-I 333 W/m 3,7 C 7,5 C 12,9 km/h (3 Bft) 97,37 %
11.04.2019 11:48 7,9 C 0,0 C 14,4 C 74 % 1015,5 hPa 0,0 l/m 5,0 km/h (1 Bft) O-NO 61 0 min 0,000 mm 1,5 UV-I 336 W/m 3,6 C 7,9 C 9,7 km/h (2 Bft) 100,00 %
11.04.2019 11:50 7,9 C 0,0 C 14,4 C 73 % 1015,5 hPa 0,0 l/m 5,5 km/h (1 Bft) NO 50 0 min 0,000 mm 1,6 UV-I 347 W/m 3,4 C 7,9 C 8,0 km/h (2 Bft) 98,11 %
11.04.2019 11:52 7,9 C 0,0 C 14,4 C 73 % 1015,4 hPa 0,0 l/m 3,7 km/h (1 Bft) O-NO 71 0 min 0,000 mm 1,6 UV-I 350 W/m 3,4 C 7,9 C 6,4 km/h (2 Bft) 100,00 %
11.04.2019 11:54 7,9 C 0,0 C 15,0 C 73 % 1015,5 hPa 0,0 l/m 6,5 km/h (2 Bft) O-SO 120 0 min 0,000 mm 1,6 UV-I 387 W/m 3,4 C 7,8 C 11,3 km/h (2 Bft) 97,37 %
11.04.2019 11:56 8,1 C 0,0 C 15,0 C 75 % 1015,4 hPa 0,0 l/m 6,3 km/h (2 Bft) O-NO 71 0 min 0,000 mm 1,7 UV-I 387 W/m 3,9 C 8,1 C 9,7 km/h (2 Bft) 100,00 %
11.04.2019 11:58 8,2 C 0,0 C 15,6 C 73 % 1015,4 hPa 0,0 l/m 8,6 km/h (2 Bft) O 81 2 min 0,000 mm 1,9 UV-I 471 W/m 3,7 C 6,5 C 12,9 km/h (3 Bft) 100,00 %
11.04.2019 12:00 8,4 C 0,0 C 16,7 C 74 % 1015,5 hPa 0,0 l/m 9,7 km/h (2 Bft) O-NO 73 2 min 0,153 mm 1,9 UV-I 495 W/m 4,0 C 6,0 C 12,9 km/h (3 Bft) 100,00 %
11.04.2019 12:02 8,4 C 0,0 C 17,2 C 73 % 1015,5 hPa 0,0 l/m 5,7 km/h (1 Bft) O-NO 62 2 min 0,000 mm 1,8 UV-I 466 W/m 3,8 C 8,4 C 8,0 km/h (2 Bft) 100,00 %
11.04.2019 12:04 8,4 C 0,0 C 17,2 C 72 % 1015,4 hPa 0,0 l/m 3,7 km/h (1 Bft) O 83 2 min 0,000 mm 1,7 UV-I 465 W/m 3,7 C 8,4 C 6,4 km/h (2 Bft) 95,74 %
11.04.2019 12:06 8,5 C 0,0 C 17,2 C 72 % 1015,5 hPa 0,0 l/m 4,7 km/h (1 Bft) O 80 2 min 0,000 mm 1,6 UV-I 421 W/m 3,7 C 8,5 C 11,3 km/h (2 Bft) 100,00 %
11.04.2019 12:08 8,6 C 0,0 C 16,7 C 72 % 1015,5 hPa 0,0 l/m 6,2 km/h (2 Bft) NO 38 0 min 0,000 mm 1,4 UV-I 354 W/m 3,8 C 8,6 C 8,0 km/h (2 Bft) 98,00 %
11.04.2019 12:10 8,6 C 0,0 C 15,0 C 75 % 1015,5 hPa 0,0 l/m 7,9 km/h (2 Bft) O-NO 65 0 min 0,000 mm 1,3 UV-I 304 W/m 4,4 C 7,5 C 11,3 km/h (2 Bft) 100,00 %
11.04.2019 12:12 8,5 C 0,0 C 13,9 C 73 % 1015,5 hPa 0,0 l/m 9,0 km/h (2 Bft) NO 44 0 min 0,000 mm 1,1 UV-I 263 W/m 3,9 C 6,6 C 14,5 km/h (3 Bft) 100,00 %
11.04.2019 12:14 8,4 C 0,0 C 13,3 C 74 % 1015,5 hPa 0,0 l/m 8,1 km/h (2 Bft) NO 49 0 min 0,000 mm 1,0 UV-I 242 W/m 4,0 C 7,1 C 11,3 km/h (2 Bft) 100,00 %
11.04.2019 12:16 8,4 C 0,0 C 12,8 C 73 % 1015,5 hPa 0,0 l/m 5,2 km/h (1 Bft) O 84 0 min 0,000 mm 1,0 UV-I 238 W/m 3,8 C 8,4 C 9,7 km/h (2 Bft) 100,00 %
11.04.2019 12:18 8,2 C 0,0 C 12,8 C 71 % 1015,5 hPa 0,0 l/m 3,9 km/h (1 Bft) NO 53 0 min 0,000 mm 1,0 UV-I 228 W/m 3,3 C 8,2 C 6,4 km/h (2 Bft) 97,56 %
11.04.2019 12:20 8,2 C 0,0 C 12,8 C 72 % 1015,5 hPa 0,0 l/m 2,1 km/h (1 Bft) NO 53 0 min 0,000 mm 1,0 UV-I 230 W/m 3,5 C 8,2 C 4,8 km/h (1 Bft) 97,87 %
11.04.2019 12:22 8,1 C 0,0 C 13,3 C 71 % 1015,5 hPa 0,0 l/m 2,5 km/h (1 Bft) O 101 0 min 0,000 mm 1,0 UV-I 242 W/m 3,2 C 8,1 C 4,8 km/h (1 Bft) 93,62 %
11.04.2019 12:24 8,1 C 0,0 C 13,3 C 71 % 1015,5 hPa 0,0 l/m 4,9 km/h (1 Bft) O-NO 76 0 min 0,000 mm 1,2 UV-I 262 W/m 3,2 C 8,1 C 6,4 km/h (2 Bft) 91,49 %
11.04.2019 12:26 8,2 C 0,0 C 13,3 C 74 % 1015,5 hPa 0,0 l/m 7,6 km/h (2 Bft) NO 34 0 min 0,000 mm 1,3 UV-I 285 W/m 3,8 C 7,3 C 12,9 km/h (3 Bft) 96,00 %
11.04.2019 12:28 8,4 C 0,0 C 13,3 C 75 % 1015,5 hPa 0,0 l/m 7,5 km/h (2 Bft) O-NO 57 0 min 0,000 mm 1,3 UV-I 296 W/m 4,2 C 7,5 C 9,7 km/h (2 Bft) 95,74 %
11.04.2019 12:30 8,5 C 0,0 C 13,3 C 75 % 1015,4 hPa 0,0 l/m 6,3 km/h (2 Bft) N-NO 30 0 min 0,000 mm 1,3 UV-I 284 W/m 4,3 C 8,5 C 9,7 km/h (2 Bft) 97,87 %
11.04.2019 12:32 8,5 C 0,0 C 13,3 C 71 % 1015,5 hPa 0,0 l/m 4,0 km/h (1 Bft) NO 40 0 min 0,000 mm 1,3 UV-I 274 W/m 3,5 C 8,5 C 6,4 km/h (2 Bft) 97,87 %
11.04.2019 12:34 8,6 C 0,0 C 13,9 C 74 % 1015,5 hPa 0,0 l/m 6,2 km/h (2 Bft) NO 42 0 min 0,000 mm 1,3 UV-I 273 W/m 4,2 C 8,6 C 9,7 km/h (2 Bft) 95,74 %
11.04.2019 12:36 8,8 C 0,0 C 13,9 C 73 % 1015,5 hPa 0,0 l/m 4,6 km/h (1 Bft) O-NO 63 0 min 0,000 mm 1,3 UV-I 272 W/m 4,2 C 8,8 C 8,0 km/h (2 Bft) 94,00 %
11.04.2019 12:38 8,7 C 0,0 C 13,9 C 71 % 1015,5 hPa 0,0 l/m 6,9 km/h (2 Bft) O-NO 59 0 min 0,000 mm 1,2 UV-I 263 W/m 3,7 C 8,3 C 9,7 km/h (2 Bft) 97,87 %
11.04.2019 12:40 8,7 C 0,0 C 13,9 C 72 % 1015,5 hPa 0,0 l/m 7,3 km/h (2 Bft) O-NO 65 0 min 0,000 mm 1,1 UV-I 247 W/m 3,9 C 8,0 C 12,9 km/h (3 Bft) 95,74 %
11.04.2019 12:42 8,6 C 0,0 C 13,9 C 71 % 1015,5 hPa 0,0 l/m 3,6 km/h (1 Bft) O 84 0 min 0,000 mm 1,2 UV-I 251 W/m 3,6 C 8,6 C 4,8 km/h (1 Bft) 100,00 %
11.04.2019 12:44 8,5 C 0,0 C 13,9 C 71 % 1015,5 hPa 0,0 l/m 6,1 km/h (2 Bft) O 93 0 min 0,000 mm 1,3 UV-I 282 W/m 3,5 C 8,5 C 14,5 km/h (3 Bft) 96,77 %
11.04.2019 12:46 8,5 C 0,0 C 15,0 C 72 % 1015,5 hPa 0,0 l/m 9,0 km/h (2 Bft) O-SO 114 0 min 0,000 mm 1,5 UV-I 359 W/m 3,7 C 6,6 C 14,5 km/h (3 Bft) 89,36 %
11.04.2019 12:48 8,8 C 0,0 C 16,7 C 72 % 1015,5 hPa 0,0 l/m 5,1 km/h (1 Bft) O 92 2 min 0,000 mm 1,8 UV-I 469 W/m 4,0 C 8,8 C 9,7 km/h (2 Bft) 95,74 %
11.04.2019 12:50 8,9 C 0,0 C 17,2 C 70 % 1015,5 hPa 0,0 l/m 8,6 km/h (2 Bft) O 98 0 min 0,000 mm 1,7 UV-I 389 W/m 3,7 C 7,3 C 14,5 km/h (3 Bft) 97,87 %
11.04.2019 12:52 8,7 C 0,0 C 17,2 C 69 % 1015,5 hPa 0,0 l/m 7,4 km/h (2 Bft) O 97 0 min 0,000 mm 1,7 UV-I 353 W/m 3,3 C 7,9 C 11,3 km/h (2 Bft) 98,00 %
11.04.2019 12:54 8,7 C 0,0 C 17,2 C 71 % 1015,5 hPa 0,0 l/m 5,1 km/h (1 Bft) SO 140 0 min 0,000 mm 2,0 UV-I 399 W/m 3,7 C 8,7 C 8,0 km/h (2 Bft) 97,87 %
11.04.2019 12:56 8,8 C 0,0 C 17,8 C 70 % 1015,6 hPa 0,0 l/m 8,3 km/h (2 Bft) SO 130 2 min 0,000 mm 2,0 UV-I 493 W/m 3,6 C 7,4 C 12,9 km/h (3 Bft) 95,74 %
11.04.2019 12:58 8,8 C 0,0 C 17,8 C 71 % 1015,6 hPa 0,0 l/m 7,1 km/h (2 Bft) SO 127 2 min 0,000 mm 1,7 UV-I 474 W/m 3,8 C 8,3 C 14,5 km/h (3 Bft) 97,87 %
11.04.2019 13:00 8,9 C 0,0 C 16,7 C 70 % 1015,6 hPa 0,0 l/m 7,5 km/h (2 Bft) S-SO 159 0 min 0,152 mm 1,4 UV-I 304 W/m 3,7 C 8,1 C 11,3 km/h (2 Bft) 95,74 %
11.04.2019 13:02 8,7 C 0,0 C 15,6 C 69 % 1015,6 hPa 0,0 l/m 7,4 km/h (2 Bft) SO 126 0 min 0,000 mm 1,2 UV-I 268 W/m 3,3 C 7,9 C 12,9 km/h (3 Bft) 97,87 %
11.04.2019 13:04 8,7 C 0,0 C 15,6 C 72 % 1015,6 hPa 0,0 l/m 7,6 km/h (2 Bft) O 92 0 min 0,000 mm 1,2 UV-I 261 W/m 3,9 C 7,8 C 12,9 km/h (3 Bft) 94,00 %
11.04.2019 13:06 8,8 C 0,0 C 14,4 C 70 % 1015,6 hPa 0,0 l/m 8,9 km/h (2 Bft) O-SO 123 0 min 0,000 mm 1,2 UV-I 256 W/m 3,6 C 7,0 C 12,9 km/h (3 Bft) 97,87 %
11.04.2019 13:08 8,7 C 0,0 C 13,9 C 69 % 1015,6 hPa 0,0 l/m 7,6 km/h (2 Bft) SO 128 0 min 0,000 mm 1,2 UV-I 241 W/m 3,3 C 7,8 C 12,9 km/h (3 Bft) 97,37 %
11.04.2019 13:10 8,7 C 0,0 C 13,9 C 70 % 1015,6 hPa 0,0 l/m 7,0 km/h (2 Bft) O 91 0 min 0,000 mm 1,0 UV-I 213 W/m 3,5 C 8,2 C 11,3 km/h (2 Bft) 100,00 %
11.04.2019 13:12 8,7 C 0,0 C 13,9 C 72 % 1015,6 hPa 0,0 l/m 6,6 km/h (2 Bft) S 177 0 min 0,000 mm 0,8 UV-I 180 W/m 3,9 C 8,6 C 11,3 km/h (2 Bft) 98,00 %
11.04.2019 13:14 8,7 C 0,0 C 12,8 C 70 % 1015,6 hPa 0,0 l/m 5,4 km/h (1 Bft) SO 126 0 min 0,000 mm 0,8 UV-I 158 W/m 3,5 C 8,7 C 8,0 km/h (2 Bft) 100,00 %
11.04.2019 13:16 8,6 C 0,0 C 12,8 C 70 % 1015,6 hPa 0,0 l/m 3,9 km/h (1 Bft) O 81 0 min 0,000 mm 0,7 UV-I 148 W/m 3,4 C 8,6 C 9,7 km/h (2 Bft) 100,00 %
11.04.2019 13:18 8,4 C 0,0 C 12,2 C 71 % 1015,6 hPa 0,0 l/m 7,7 km/h (2 Bft) O 94 0 min 0,000 mm 0,7 UV-I 142 W/m 3,5 C 7,4 C 12,9 km/h (3 Bft) 100,00 %
11.04.2019 13:20 8,3 C 0,0 C 11,7 C 71 % 1015,6 hPa 0,0 l/m 7,2 km/h (2 Bft) O-SO 103 0 min 0,000 mm 0,7 UV-I 140 W/m 3,4 C 7,7 C 12,9 km/h (3 Bft) 97,87 %
11.04.2019 13:22 8,3 C 0,0 C 11,7 C 72 % 1015,6 hPa 0,0 l/m 10,7 km/h (2 Bft) SO 138 0 min 0,000 mm 0,7 UV-I 142 W/m 3,6 C 5,3 C 14,5 km/h (3 Bft) 100,00 %
11.04.2019 13:24 8,2 C 0,0 C 11,7 C 72 % 1015,7 hPa 0,0 l/m 6,7 km/h (2 Bft) O-SO 109 0 min 0,000 mm 0,7 UV-I 140 W/m 3,5 C 8,0 C 11,3 km/h (2 Bft) 100,00 %
11.04.2019 13:26 8,2 C 0,0 C 11,1 C 73 % 1015,7 hPa 0,0 l/m 7,8 km/h (2 Bft) O 98 0 min 0,000 mm 0,7 UV-I 133 W/m 3,7 C 7,1 C 11,3 km/h (2 Bft) 100,00 %
11.04.2019 13:28 8,2 C 0,0 C 11,1 C 73 % 1015,7 hPa 0,0 l/m 9,8 km/h (2 Bft) O-SO 121 0 min 0,000 mm 0,6 UV-I 124 W/m 3,7 C 5,7 C 16,1 km/h (3 Bft) 100,00 %
11.04.2019 13:30 8,2 C 0,0 C 11,1 C 73 % 1015,7 hPa 0,0 l/m 5,4 km/h (1 Bft) S-SO 163 0 min 0,000 mm 0,6 UV-I 113 W/m 3,7 C 8,2 C 11,3 km/h (2 Bft) 100,00 %
11.04.2019 13:32 8,2 C 0,0 C 10,6 C 72 % 1015,7 hPa 0,0 l/m 6,9 km/h (2 Bft) O-SO 113 0 min 0,000 mm 0,6 UV-I 105 W/m 3,5 C 7,8 C 12,9 km/h (3 Bft) 97,87 %
11.04.2019 13:34 8,1 C 0,0 C 10,6 C 74 % 1015,7 hPa 0,0 l/m 11,5 km/h (2 Bft) SO 134 0 min 0,000 mm 0,5 UV-I 98 W/m 3,8 C 4,6 C 14,5 km/h (3 Bft) 100,00 %
11.04.2019 13:36 8,0 C 0,0 C 10,0 C 72 % 1015,7 hPa 0,0 l/m 9,6 km/h (2 Bft) SO 127 0 min 0,000 mm 0,5 UV-I 93 W/m 3,3 C 5,6 C 12,9 km/h (3 Bft) 97,87 %
11.04.2019 13:38 7,9 C 0,0 C 10,0 C 72 % 1015,7 hPa 0,0 l/m 8,4 km/h (2 Bft) O-SO 120 0 min 0,000 mm 0,3 UV-I 87 W/m 3,2 C 6,4 C 12,9 km/h (3 Bft) 100,00 %
11.04.2019 13:40 7,9 C 0,0 C 9,4 C 73 % 1015,7 hPa 0,0 l/m 7,0 km/h (2 Bft) O-SO 121 0 min 0,000 mm 0,0 UV-I 84 W/m 3,4 C 7,4 C 12,9 km/h (3 Bft) 100,00 %
11.04.2019 13:42 7,9 C 0,0 C 9,4 C 73 % 1015,8 hPa 0,0 l/m 4,9 km/h (1 Bft) O-SO 119 0 min 0,000 mm 0,2 UV-I 87 W/m 3,4 C 7,9 C 9,7 km/h (2 Bft) 100,00 %
11.04.2019 13:44 7,9 C 0,0 C 10,0 C 73 % 1015,8 hPa 0,0 l/m 2,9 km/h (1 Bft) O-SO 119 0 min 0,000 mm 0,5 UV-I 96 W/m 3,4 C 7,9 C 4,8 km/h (1 Bft) 100,00 %
11.04.2019 13:46 7,9 C 0,0 C 10,0 C 73 % 1015,8 hPa 0,0 l/m 4,0 km/h (1 Bft) O-SO 119 0 min 0,000 mm 0,6 UV-I 106 W/m 3,4 C 7,9 C 6,4 km/h (2 Bft) 100,00 %
11.04.2019 13:48 8,0 C 0,0 C 10,0 C 73 % 1015,8 hPa 0,0 l/m 5,0 km/h (1 Bft) SO 139 0 min 0,000 mm 0,6 UV-I 119 W/m 3,5 C 8,0 C 8,0 km/h (2 Bft) 97,87 %
11.04.2019 13:50 8,0 C 0,0 C 10,0 C 73 % 1015,8 hPa 0,0 l/m 5,4 km/h (1 Bft) O-SO 123 0 min 0,000 mm 0,6 UV-I 130 W/m 3,5 C 8,0 C 9,7 km/h (2 Bft) 97,87 %
11.04.2019 13:52 8,1 C 0,0 C 10,6 C 73 % 1015,8 hPa 0,0 l/m 2,0 km/h (1 Bft) O-SO 123 0 min 0,000 mm 0,7 UV-I 136 W/m 3,6 C 8,1 C 3,2 km/h (1 Bft) 100,00 %
11.04.2019 13:54 8,1 C 0,0 C 10,6 C 74 % 1015,8 hPa 0,0 l/m 4,3 km/h (1 Bft) SO 138 0 min 0,000 mm 0,7 UV-I 143 W/m 3,8 C 8,1 C 6,4 km/h (2 Bft) 100,00 %
11.04.2019 13:56 8,1 C 0,0 C 10,6 C 72 % 1015,8 hPa 0,0 l/m 5,2 km/h (1 Bft) SO 127 0 min 0,000 mm 0,7 UV-I 152 W/m 3,4 C 8,1 C 8,0 km/h (2 Bft) 100,00 %
11.04.2019 13:58 8,1 C 0,0 C 11,1 C 71 % 1015,8 hPa 0,0 l/m 3,5 km/h (1 Bft) SO 127 0 min 0,000 mm 0,8 UV-I 161 W/m 3,2 C 8,1 C 6,4 km/h (2 Bft) 100,00 %
11.04.2019 14:00 8,0 C 0,0 C 11,1 C 71 % 1015,8 hPa 0,0 l/m 2,4 km/h (1 Bft) SO 127 0 min 0,000 mm 0,8 UV-I 167 W/m 3,1 C 8,0 C 4,8 km/h (1 Bft) 100,00 %
11.04.2019 14:02 8,1 C 0,0 C 11,7 C 73 % 1015,8 hPa 0,0 l/m 3,4 km/h (1 Bft) SO 142 0 min 0,076 mm 0,8 UV-I 158 W/m 3,6 C 8,1 C 6,4 km/h (2 Bft) 100,00 %
11.04.2019 14:04 8,2 C 0,0 C 11,1 C 72 % 1015,9 hPa 0,0 l/m 4,8 km/h (1 Bft) S-SO 148 0 min 0,000 mm 0,7 UV-I 148 W/m 3,5 C 8,2 C 8,0 km/h (2 Bft) 100,00 %
11.04.2019 14:06 8,2 C 0,0 C 11,1 C 72 % 1015,9 hPa 0,0 l/m 4,9 km/h (1 Bft) SO 140 0 min 0,000 mm 0,7 UV-I 145 W/m 3,5 C 8,2 C 8,0 km/h (2 Bft) 100,00 %
11.04.2019 14:08 8,3 C 0,0 C 11,7 C 73 % 1015,9 hPa 0,0 l/m 4,7 km/h (1 Bft) O-SO 121 0 min 0,000 mm 0,7 UV-I 143 W/m 3,8 C 8,3 C 6,4 km/h (2 Bft) 97,37 %
11.04.2019 14:10 8,3 C 0,0 C 11,1 C 72 % 1015,9 hPa 0,0 l/m 4,7 km/h (1 Bft) O 95 0 min 0,000 mm 0,6 UV-I 136 W/m 3,6 C 8,3 C 11,3 km/h (2 Bft) 98,21 %
11.04.2019 14:12 8,3 C 0,0 C 11,1 C 71 % 1015,9 hPa 0,0 l/m 4,7 km/h (1 Bft) O-SO 111 0 min 0,000 mm 0,6 UV-I 127 W/m 3,4 C 8,3 C 9,7 km/h (2 Bft) 96,00 %
11.04.2019 14:14 8,2 C 0,0 C 11,1 C 71 % 1015,9 hPa 0,0 l/m 5,3 km/h (1 Bft) SO 143 0 min 0,000 mm 0,6 UV-I 119 W/m 3,3 C 8,2 C 8,0 km/h (2 Bft) 93,62 %
11.04.2019 14:16 8,2 C 0,0 C 10,6 C 71 % 1015,9 hPa 0,0 l/m 2,9 km/h (1 Bft) S-SO 159 0 min 0,000 mm 0,5 UV-I 115 W/m 3,3 C 8,2 C 4,8 km/h (1 Bft) 94,74 %
11.04.2019 14:18 8,2 C 0,0 C 10,6 C 72 % 1015,9 hPa 0,0 l/m 2,0 km/h (1 Bft) S-SO 159 0 min 0,000 mm 0,5 UV-I 114 W/m 3,5 C 8,2 C 3,2 km/h (1 Bft) 95,74 %
11.04.2019 14:20 8,3 C 0,0 C 10,6 C 73 % 1015,9 hPa 0,0 l/m 4,1 km/h (1 Bft) O 97 0 min 0,000 mm 0,5 UV-I 114 W/m 3,8 C 8,3 C 6,4 km/h (2 Bft) 97,87 %
11.04.2019 14:22 8,2 C 0,0 C 10,6 C 71 % 1015,9 hPa 0,0 l/m 7,2 km/h (2 Bft) SO 130 0 min 0,000 mm 0,5 UV-I 116 W/m 3,3 C 7,6 C 11,3 km/h (2 Bft) 93,62 %
11.04.2019 14:24 8,2 C 0,0 C 10,6 C 71 % 1015,9 hPa 0,0 l/m 4,5 km/h (1 Bft) S-SO 148 0 min 0,000 mm 0,5 UV-I 117 W/m 3,3 C 8,2 C 8,0 km/h (2 Bft) 95,74 %
11.04.2019 14:26 8,1 C 0,0 C 10,6 C 72 % 1015,9 hPa 0,0 l/m 5,7 km/h (1 Bft) SO 141 0 min 0,000 mm 0,5 UV-I 118 W/m 3,4 C 8,1 C 8,0 km/h (2 Bft) 91,49 %
11.04.2019 14:28 8,1 C 0,0 C 10,6 C 71 % 1015,9 hPa 0,0 l/m 6,5 km/h (2 Bft) SO 126 0 min 0,000 mm 0,5 UV-I 121 W/m 3,2 C 8,0 C 11,3 km/h (2 Bft) 95,74 %
11.04.2019 14:30 8,1 C 0,0 C 10,6 C 71 % 1015,9 hPa 0,0 l/m 8,4 km/h (2 Bft) O-SO 111 0 min 0,000 mm 0,6 UV-I 130 W/m 3,2 C 6,6 C 11,3 km/h (2 Bft) 92,00 %
11.04.2019 14:32 8,1 C 0,0 C 10,6 C 72 % 1015,9 hPa 0,0 l/m 4,8 km/h (1 Bft) O-SO 103 0 min 0,000 mm 0,6 UV-I 136 W/m 3,4 C 8,1 C 6,4 km/h (2 Bft) 93,62 %
11.04.2019 14:34 8,2 C 0,0 C 10,6 C 71 % 1015,9 hPa 0,0 l/m 2,9 km/h (1 Bft) O-SO 103 0 min 0,000 mm 0,6 UV-I 142 W/m 3,3 C 8,2 C 4,8 km/h (1 Bft) 95,74 %
11.04.2019 14:36 8,2 C 0,0 C 10,6 C 72 % 1015,9 hPa 0,0 l/m 4,9 km/h (1 Bft) O-SO 115 0 min 0,000 mm 0,7 UV-I 145 W/m 3,5 C 8,2 C 9,7 km/h (2 Bft) 94,00 %
11.04.2019 14:38 8,2 C 0,0 C 10,6 C 71 % 1015,9 hPa 0,0 l/m 4,7 km/h (1 Bft) SO 127 0 min 0,000 mm 0,7 UV-I 142 W/m 3,3 C 8,2 C 8,0 km/h (2 Bft) 93,75 %
11.04.2019 14:40 8,2 C 0,0 C 10,6 C 72 % 1015,8 hPa 0,0 l/m 5,9 km/h (2 Bft) S-SO 162 0 min 0,000 mm 0,6 UV-I 135 W/m 3,5 C 8,2 C 11,3 km/h (2 Bft) 93,62 %
11.04.2019 14:42 8,2 C 0,0 C 10,6 C 71 % 1015,9 hPa 0,0 l/m 5,6 km/h (1 Bft) SO 139 0 min 0,000 mm 0,6 UV-I 128 W/m 3,3 C 8,2 C 11,3 km/h (2 Bft) 95,74 %
11.04.2019 14:44 8,2 C 0,0 C 10,6 C 72 % 1015,9 hPa 0,0 l/m 5,9 km/h (2 Bft) O-SO 123 0 min 0,000 mm 0,6 UV-I 123 W/m 3,5 C 8,2 C 8,0 km/h (2 Bft) 94,74 %
11.04.2019 14:46 8,2 C 0,0 C 10,6 C 71 % 1015,8 hPa 0,0 l/m 5,0 km/h (1 Bft) S-SO 148 0 min 0,000 mm 0,6 UV-I 118 W/m 3,3 C 8,2 C 8,0 km/h (2 Bft) 95,74 %
11.04.2019 14:48 8,2 C 0,0 C 10,6 C 71 % 1015,8 hPa 0,0 l/m 5,7 km/h (1 Bft) SO 146 0 min 0,000 mm 0,5 UV-I 115 W/m 3,3 C 8,2 C 9,7 km/h (2 Bft) 97,87 %
11.04.2019 14:50 8,2 C 0,0 C 10,0 C 71 % 1015,8 hPa 0,0 l/m 7,1 km/h (2 Bft) SO 130 0 min 0,000 mm 0,5 UV-I 113 W/m 3,3 C 7,7 C 11,3 km/h (2 Bft) 97,87 %
11.04.2019 14:52 8,2 C 0,0 C 10,0 C 71 % 1015,8 hPa 0,0 l/m 3,1 km/h (1 Bft) SO 134 0 min 0,000 mm 0,5 UV-I 113 W/m 3,3 C 8,2 C 4,8 km/h (1 Bft) 95,74 %
11.04.2019 14:54 8,2 C 0,0 C 10,0 C 70 % 1015,8 hPa 0,0 l/m 2,9 km/h (1 Bft) S 169 0 min 0,000 mm 0,5 UV-I 113 W/m 3,1 C 8,2 C 8,0 km/h (2 Bft) 95,74 %
11.04.2019 14:56 8,2 C 0,0 C 10,0 C 71 % 1015,9 hPa 0,0 l/m 5,2 km/h (1 Bft) SO 142 0 min 0,000 mm 0,5 UV-I 112 W/m 3,3 C 8,2 C 8,0 km/h (2 Bft) 96,00 %
11.04.2019 14:58 8,2 C 0,0 C 10,0 C 72 % 1015,9 hPa 0,0 l/m 6,3 km/h (2 Bft) SO 131 0 min 0,000 mm 0,5 UV-I 109 W/m 3,5 C 8,2 C 11,3 km/h (2 Bft) 97,87 %
11.04.2019 15:00 8,2 C 0,0 C 10,0 C 72 % 1015,8 hPa 0,0 l/m 6,4 km/h (2 Bft) SO 135 0 min 0,076 mm 0,5 UV-I 108 W/m 3,5 C 8,2 C 11,3 km/h (2 Bft) 94,74 %
11.04.2019 15:05 8,2 C 0,0 C 10,0 C 72 % 1015,9 hPa 0,0 l/m 6,4 km/h (2 Bft) SO 135 0 min 0,000 mm 0,5 UV-I 112 W/m 3,5 C 8,2 C 11,3 km/h (2 Bft) 96,49 %
11.04.2019 15:06 8,2 C 0,0 C 10,0 C 72 % 1015,9 hPa 0,0 l/m 4,6 km/h (1 Bft) SO 132 0 min 0,001 mm 0,5 UV-I 112 W/m 3,5 C 8,2 C 6,4 km/h (2 Bft) 97,34 %
11.04.2019 15:08 8,2 C 0,0 C 10,6 C 72 % 1015,8 hPa 0,0 l/m 4,1 km/h (1 Bft) SO 136 0 min 0,000 mm 0,5 UV-I 118 W/m 3,5 C 8,2 C 6,4 km/h (2 Bft) 93,62 %
11.04.2019 15:10 8,3 C 0,0 C 10,6 C 72 % 1015,8 hPa 0,0 l/m 6,0 km/h (2 Bft) SO 135 0 min 0,000 mm 0,5 UV-I 122 W/m 3,6 C 8,3 C 8,0 km/h (2 Bft) 98,00 %
11.04.2019 15:12 8,3 C 0,0 C 10,6 C 71 % 1015,8 hPa 0,0 l/m 4,5 km/h (1 Bft) S 175 0 min 0,000 mm 0,5 UV-I 125 W/m 3,4 C 8,3 C 6,4 km/h (2 Bft) 94,74 %
11.04.2019 15:14 8,2 C 0,0 C 10,6 C 70 % 1015,8 hPa 0,0 l/m 4,5 km/h (1 Bft) O-SO 112 0 min 0,000 mm 0,5 UV-I 127 W/m 3,1 C 8,2 C 9,7 km/h (2 Bft) 95,74 %
11.04.2019 15:16 8,2 C 0,0 C 10,6 C 71 % 1015,8 hPa 0,0 l/m 4,3 km/h (1 Bft) SO 127 0 min 0,000 mm 0,5 UV-I 128 W/m 3,3 C 8,2 C 6,4 km/h (2 Bft) 95,74 %
11.04.2019 15:18 8,2 C 0,0 C 10,6 C 71 % 1015,8 hPa 0,0 l/m 4,1 km/h (1 Bft) O-SO 110 0 min 0,000 mm 0,5 UV-I 124 W/m 3,3 C 8,2 C 6,4 km/h (2 Bft) 95,74 %
11.04.2019 15:20 8,2 C 0,0 C 10,6 C 71 % 1015,9 hPa 0,0 l/m 3,4 km/h (1 Bft) O-SO 115 0 min 0,000 mm 0,5 UV-I 116 W/m 3,3 C 8,2 C 4,8 km/h (1 Bft) 96,00 %
11.04.2019 15:22 8,3 C 0,0 C 10,6 C 71 % 1015,8 hPa 0,0 l/m 3,6 km/h (1 Bft) SO 130 0 min 0,000 mm 0,1 UV-I 109 W/m 3,4 C 8,3 C 4,8 km/h (1 Bft) 96,00 %
11.04.2019 15:24 8,3 C 0,0 C 10,6 C 71 % 1015,9 hPa 0,0 l/m 3,6 km/h (1 Bft) SO 130 0 min 0,000 mm 0,0 UV-I 105 W/m 3,4 C 8,3 C 4,8 km/h (1 Bft) 97,87 %
11.04.2019 15:26 8,3 C 0,0 C 10,6 C 71 % 1015,8 hPa 0,0 l/m 6,6 km/h (2 Bft) SO 138 0 min 0,000 mm 0,0 UV-I 102 W/m 3,4 C 8,2 C 8,0 km/h (2 Bft) 97,87 %
11.04.2019 15:28 8,3 C 0,0 C 10,0 C 72 % 1015,9 hPa 0,0 l/m 7,8 km/h (2 Bft) SO 136 0 min 0,000 mm 0,0 UV-I 103 W/m 3,6 C 7,2 C 11,3 km/h (2 Bft) 97,87 %
11.04.2019 15:30 8,2 C 0,0 C 10,0 C 72 % 1015,9 hPa 0,0 l/m 8,0 km/h (2 Bft) SO 142 0 min 0,000 mm 0,0 UV-I 104 W/m 3,5 C 7,0 C 11,3 km/h (2 Bft) 97,87 %
11.04.2019 15:32 8,2 C 0,0 C 10,0 C 71 % 1015,8 hPa 0,0 l/m 6,8 km/h (2 Bft) SO 129 0 min 0,000 mm 0,0 UV-I 104 W/m 3,3 C 7,9 C 11,3 km/h (2 Bft) 93,62 %
11.04.2019 15:34 8,2 C 0,0 C 10,0 C 72 % 1015,9 hPa 0,0 l/m 6,2 km/h (2 Bft) SO 134 0 min 0,000 mm 0,0 UV-I 104 W/m 3,5 C 8,2 C 8,0 km/h (2 Bft) 92,31 %
11.04.2019 15:36 8,3 C 0,0 C 10,0 C 72 % 1015,9 hPa 0,0 l/m 4,2 km/h (1 Bft) SO 143 0 min 0,000 mm 0,0 UV-I 104 W/m 3,6 C 8,3 C 6,4 km/h (2 Bft) 95,74 %
11.04.2019 15:38 8,3 C 0,0 C 10,0 C 71 % 1015,9 hPa 0,0 l/m 6,4 km/h (2 Bft) SO 138 0 min 0,000 mm 0,0 UV-I 101 W/m 3,4 C 8,3 C 8,0 km/h (2 Bft) 97,87 %
11.04.2019 15:40 8,3 C 0,0 C 10,0 C 71 % 1015,9 hPa 0,0 l/m 4,7 km/h (1 Bft) SO 143 0 min 0,000 mm 0,0 UV-I 98 W/m 3,4 C 8,3 C 6,4 km/h (2 Bft) 94,00 %
11.04.2019 15:42 8,3 C 0,0 C 10,0 C 72 % 1015,9 hPa 0,0 l/m 5,2 km/h (1 Bft) SO 128 0 min 0,000 mm 0,0 UV-I 97 W/m 3,6 C 8,3 C 8,0 km/h (2 Bft) 93,62 %
11.04.2019 15:44 8,3 C 0,0 C 10,0 C 71 % 1015,9 hPa 0,0 l/m 4,0 km/h (1 Bft) SO 128 0 min 0,000 mm 0,0 UV-I 93 W/m 3,4 C 8,3 C 6,4 km/h (2 Bft) 94,00 %
11.04.2019 15:46 8,3 C 0,0 C 10,0 C 72 % 1015,9 hPa 0,0 l/m 5,2 km/h (1 Bft) SO 128 0 min 0,000 mm 0,0 UV-I 91 W/m 3,6 C 8,3 C 9,7 km/h (2 Bft) 96,00 %
11.04.2019 15:48 8,3 C 0,0 C 10,0 C 72 % 1015,9 hPa 0,0 l/m 6,1 km/h (2 Bft) SO 128 0 min 0,000 mm 0,0 UV-I 91 W/m 3,6 C 8,3 C 8,0 km/h (2 Bft) 97,87 %
11.04.2019 15:50 8,2 C 0,0 C 10,0 C 71 % 1016,0 hPa 0,0 l/m 5,1 km/h (1 Bft) SO 130 0 min 0,000 mm 0,0 UV-I 90 W/m 3,3 C 8,2 C 8,0 km/h (2 Bft) 94,29 %
11.04.2019 15:52 8,2 C 0,0 C 10,0 C 71 % 1016,0 hPa 0,0 l/m 4,8 km/h (1 Bft) SO 136 0 min 0,000 mm 0,0 UV-I 90 W/m 3,3 C 8,2 C 6,4 km/h (2 Bft) 95,74 %
11.04.2019 15:54 8,2 C 0,0 C 10,0 C 72 % 1016,0 hPa 0,0 l/m 4,6 km/h (1 Bft) S-SO 148 0 min 0,000 mm 0,0 UV-I 90 W/m 3,5 C 8,2 C 8,0 km/h (2 Bft) 95,74 %
11.04.2019 15:56 8,2 C 0,0 C 10,0 C 71 % 1016,0 hPa 0,0 l/m 5,2 km/h (1 Bft) SO 133 0 min 0,000 mm 0,0 UV-I 87 W/m 3,3 C 8,2 C 8,0 km/h (2 Bft) 100,00 %
11.04.2019 15:58 8,3 C 0,0 C 10,0 C 71 % 1016,0 hPa 0,0 l/m 4,7 km/h (1 Bft) O-SO 122 0 min 0,000 mm 0,0 UV-I 86 W/m 3,4 C 8,3 C 6,4 km/h (2 Bft) 100,00 %
11.04.2019 16:00 8,2 C 0,0 C 10,0 C 70 % 1015,9 hPa 0,0 l/m 3,9 km/h (1 Bft) O-SO 122 0 min 0,000 mm 0,0 UV-I 84 W/m 3,1 C 8,2 C 4,8 km/h (1 Bft) 97,87 %
11.04.2019 16:02 8,2 C 0,0 C 10,0 C 71 % 1016,0 hPa 0,0 l/m 2,2 km/h (1 Bft) O-SO 122 0 min 0,050 mm 0,0 UV-I 84 W/m 3,3 C 8,2 C 4,8 km/h (1 Bft) 98,00 %
11.04.2019 16:04 8,2 C 0,0 C 10,0 C 70 % 1016,0 hPa 0,0 l/m 4,2 km/h (1 Bft) SO 137 0 min 0,000 mm 0,0 UV-I 84 W/m 3,1 C 8,2 C 6,4 km/h (2 Bft) 95,74 %
11.04.2019 16:06 8,2 C 0,0 C 10,0 C 71 % 1016,0 hPa 0,0 l/m 2,9 km/h (1 Bft) SO 137 0 min 0,000 mm 0,0 UV-I 84 W/m 3,3 C 8,2 C 4,8 km/h (1 Bft) 98,00 %
11.04.2019 16:08 8,2 C 0,0 C 10,0 C 72 % 1016,0 hPa 0,0 l/m 2,5 km/h (1 Bft) SO 136 0 min 0,000 mm 0,0 UV-I 85 W/m 3,5 C 8,2 C 4,8 km/h (1 Bft) 95,74 %
11.04.2019 16:10 8,3 C 0,0 C 10,0 C 72 % 1016,1 hPa 0,0 l/m 2,1 km/h (1 Bft) SO 136 0 min 0,000 mm 0,0 UV-I 86 W/m 3,6 C 8,3 C 4,8 km/h (1 Bft) 100,00 %
11.04.2019 16:12 8,2 C 0,0 C 10,0 C 71 % 1016,0 hPa 0,0 l/m 2,6 km/h (1 Bft) SO 136 0 min 0,000 mm 0,0 UV-I 88 W/m 3,3 C 8,2 C 3,2 km/h (1 Bft) 97,87 %
11.04.2019 16:14 8,3 C 0,0 C 10,0 C 72 % 1016,1 hPa 0,0 l/m 2,2 km/h (1 Bft) SO 137 0 min 0,000 mm 0,0 UV-I 87 W/m 3,6 C 8,3 C 4,8 km/h (1 Bft) 97,92 %
11.04.2019 16:16 8,3 C 0,0 C 10,0 C 70 % 1016,1 hPa 0,0 l/m 2,5 km/h (1 Bft) SO 137 0 min 0,000 mm 0,0 UV-I 86 W/m 3,2 C 8,3 C 4,8 km/h (1 Bft) 97,14 %
11.04.2019 16:18 8,3 C 0,0 C 10,0 C 70 % 1016,1 hPa 0,0 l/m 2,6 km/h (1 Bft) SO 137 0 min 0,000 mm 0,0 UV-I 85 W/m 3,2 C 8,3 C 4,8 km/h (1 Bft) 98,04 %
11.04.2019 16:20 8,3 C 0,0 C 10,0 C 72 % 1016,1 hPa 0,0 l/m 1,7 km/h (1 Bft) SO 137 0 min 0,000 mm 0,0 UV-I 84 W/m 3,6 C 8,3 C 3,2 km/h (1 Bft) 97,87 %
11.04.2019 16:22 8,3 C 0,0 C 10,0 C 70 % 1016,1 hPa 0,0 l/m 2,9 km/h (1 Bft) S-SO 165 0 min 0,000 mm 0,0 UV-I 84 W/m 3,2 C 8,3 C 6,4 km/h (2 Bft) 95,74 %
11.04.2019 16:24 8,2 C 0,0 C 10,0 C 70 % 1016,0 hPa 0,0 l/m 3,3 km/h (1 Bft) S-SO 166 0 min 0,000 mm 0,0 UV-I 84 W/m 3,1 C 8,2 C 4,8 km/h (1 Bft) 92,00 %
11.04.2019 16:26 8,2 C 0,0 C 10,0 C 72 % 1016,0 hPa 0,0 l/m 4,6 km/h (1 Bft) S-SO 166 0 min 0,000 mm 0,0 UV-I 84 W/m 3,5 C 8,2 C 6,4 km/h (2 Bft) 93,62 %
11.04.2019 16:28 8,3 C 0,0 C 10,0 C 71 % 1016,1 hPa 0,0 l/m 4,1 km/h (1 Bft) S-SO 168 0 min 0,000 mm 0,0 UV-I 84 W/m 3,4 C 8,3 C 8,0 km/h (2 Bft) 97,56 %
11.04.2019 16:30 8,3 C 0,0 C 9,4 C 72 % 1016,1 hPa 0,0 l/m 3,2 km/h (1 Bft) S-SO 167 0 min 0,000 mm 0,0 UV-I 84 W/m 3,6 C 8,3 C 6,4 km/h (2 Bft) 97,87 %
11.04.2019 16:32 8,2 C 0,0 C 9,4 C 71 % 1016,1 hPa 0,0 l/m 3,7 km/h (1 Bft) S-SO 168 0 min 0,000 mm 0,0 UV-I 84 W/m 3,3 C 8,2 C 6,4 km/h (2 Bft) 95,74 %
11.04.2019 16:34 8,2 C 0,0 C 9,4 C 72 % 1016,1 hPa 0,0 l/m 2,3 km/h (1 Bft) S-SO 167 0 min 0,000 mm 0,0 UV-I 82 W/m 3,5 C 8,2 C 6,4 km/h (2 Bft) 96,00 %
11.04.2019 16:36 8,2 C 0,0 C 9,4 C 72 % 1016,1 hPa 0,0 l/m 3,8 km/h (1 Bft) S 169 0 min 0,000 mm 0,0 UV-I 80 W/m 3,5 C 8,2 C 8,0 km/h (2 Bft) 97,87 %
11.04.2019 16:38 8,2 C 0,0 C 9,4 C 72 % 1016,0 hPa 0,0 l/m 2,0 km/h (1 Bft) S 169 0 min 0,000 mm 0,0 UV-I 79 W/m 3,5 C 8,2 C 3,2 km/h (1 Bft) 94,00 %
11.04.2019 16:40 8,3 C 0,0 C 9,4 C 72 % 1016,1 hPa 0,0 l/m 2,5 km/h (1 Bft) S-SO 160 0 min 0,000 mm 0,0 UV-I 79 W/m 3,6 C 8,3 C 3,2 km/h (1 Bft) 93,62 %
11.04.2019 16:42 8,3 C 0,0 C 9,4 C 72 % 1016,1 hPa 0,0 l/m 1,8 km/h (1 Bft) S-SO 160 0 min 0,000 mm 0,0 UV-I 79 W/m 3,6 C 8,3 C 6,4 km/h (2 Bft) 97,87 %
11.04.2019 16:44 8,3 C 0,0 C 9,4 C 71 % 1016,1 hPa 0,0 l/m 2,9 km/h (1 Bft) S-SO 161 0 min 0,000 mm 0,0 UV-I 79 W/m 3,4 C 8,3 C 6,4 km/h (2 Bft) 93,62 %
11.04.2019 16:46 8,3 C 0,0 C 9,4 C 71 % 1016,1 hPa 0,0 l/m 2,3 km/h (1 Bft) S-SO 160 0 min 0,000 mm 0,0 UV-I 79 W/m 3,4 C 8,3 C 6,4 km/h (2 Bft) 95,74 %
11.04.2019 16:48 8,2 C 0,0 C 9,4 C 71 % 1016,1 hPa 0,0 l/m 1,1 km/h (1 Bft) S-SO 160 0 min 0,000 mm 0,0 UV-I 78 W/m 3,3 C 8,2 C 3,2 km/h (1 Bft) 95,74 %
11.04.2019 16:50 8,3 C 0,0 C 9,4 C 72 % 1016,1 hPa 0,0 l/m 2,3 km/h (1 Bft) S-SO 160 0 min 0,000 mm 0,0 UV-I 77 W/m 3,6 C 8,3 C 6,4 km/h (2 Bft) 97,92 %
11.04.2019 16:52 8,2 C 0,0 C 9,4 C 70 % 1016,1 hPa 0,0 l/m 2,8 km/h (1 Bft) S-SO 160 0 min 0,000 mm 0,0 UV-I 76 W/m 3,1 C 8,2 C 6,4 km/h (2 Bft) 100,00 %
11.04.2019 16:54 8,2 C 0,0 C 9,4 C 71 % 1016,1 hPa 0,0 l/m 0,7 km/h (0 Bft) S-SO 160 0 min 0,000 mm 0,0 UV-I 75 W/m 3,3 C 8,2 C 3,2 km/h (1 Bft) 100,00 %
11.04.2019 16:56 8,2 C 0,0 C 9,4 C 72 % 1016,2 hPa 0,0 l/m 2,2 km/h (1 Bft) S-SO 160 0 min 0,000 mm 0,0 UV-I 73 W/m 3,5 C 8,2 C 3,2 km/h (1 Bft) 94,74 %
11.04.2019 16:58 8,2 C 0,0 C 9,4 C 72 % 1016,2 hPa 0,0 l/m 2,6 km/h (1 Bft) S-SO 160 0 min 0,000 mm 0,0 UV-I 72 W/m 3,5 C 8,2 C 3,2 km/h (1 Bft) 91,49 %
11.04.2019 17:00 8,2 C 0,0 C 9,4 C 72 % 1016,2 hPa 0,0 l/m 1,8 km/h (1 Bft) S-SO 160 0 min 0,051 mm 0,0 UV-I 73 W/m 3,5 C 8,2 C 3,2 km/h (1 Bft) 95,74 %
11.04.2019 17:02 8,3 C 0,0 C 9,4 C 72 % 1016,2 hPa 0,0 l/m 1,0 km/h (0 Bft) S-SO 160 0 min 0,000 mm 0,0 UV-I 74 W/m 3,6 C 8,3 C 1,6 km/h (1 Bft) 95,74 %
11.04.2019 17:04 8,3 C 0,0 C 9,4 C 72 % 1016,2 hPa 0,0 l/m 1,7 km/h (1 Bft) S-SO 160 0 min 0,000 mm 0,0 UV-I 76 W/m 3,6 C 8,3 C 6,4 km/h (2 Bft) 89,36 %
11.04.2019 17:06 8,3 C 0,0 C 9,4 C 71 % 1016,3 hPa 0,0 l/m 4,4 km/h (1 Bft) SO 138 0 min 0,000 mm 0,0 UV-I 76 W/m 3,4 C 8,3 C 6,4 km/h (2 Bft) 95,74 %
11.04.2019 17:08 8,2 C 0,0 C 9,4 C 71 % 1016,2 hPa 0,0 l/m 2,2 km/h (1 Bft) SO 138 0 min 0,000 mm 0,0 UV-I 77 W/m 3,3 C 8,2 C 4,8 km/h (1 Bft) 95,74 %
11.04.2019 17:10 8,2 C 0,0 C 9,4 C 71 % 1016,3 hPa 0,0 l/m 3,6 km/h (1 Bft) SO 138 0 min 0,000 mm 0,0 UV-I 76 W/m 3,3 C 8,2 C 4,8 km/h (1 Bft) 95,74 %
11.04.2019 17:12 8,3 C 0,0 C 9,4 C 72 % 1016,3 hPa 0,0 l/m 3,0 km/h (1 Bft) O-SO 117 0 min 0,000 mm 0,0 UV-I 76 W/m 3,6 C 8,3 C 4,8 km/h (1 Bft) 97,87 %
11.04.2019 17:14 8,3 C 0,0 C 9,4 C 73 % 1016,3 hPa 0,0 l/m 9,0 km/h (2 Bft) SO 125 0 min 0,000 mm 0,0 UV-I 76 W/m 3,8 C 6,4 C 16,1 km/h (3 Bft) 98,00 %
11.04.2019 17:16 8,2 C 0,0 C 9,4 C 74 % 1016,3 hPa 0,0 l/m 7,2 km/h (2 Bft) S-SO 150 0 min 0,000 mm 0,0 UV-I 78 W/m 3,8 C 7,6 C 11,3 km/h (2 Bft) 97,87 %
11.04.2019 17:18 8,1 C 0,0 C 9,4 C 74 % 1016,3 hPa 0,0 l/m 5,7 km/h (1 Bft) S 175 0 min 0,000 mm 0,0 UV-I 81 W/m 3,8 C 8,1 C 9,7 km/h (2 Bft) 100,00 %
11.04.2019 17:20 8,0 C 0,0 C 9,4 C 74 % 1016,3 hPa 0,0 l/m 8,1 km/h (2 Bft) S-SO 159 0 min 0,000 mm 0,0 UV-I 80 W/m 3,7 C 6,7 C 12,9 km/h (3 Bft) 97,87 %
11.04.2019 17:22 7,9 C 0,0 C 9,4 C 75 % 1016,3 hPa 0,0 l/m 4,2 km/h (1 Bft) S-SO 164 0 min 0,000 mm 0,0 UV-I 79 W/m 3,7 C 7,9 C 9,7 km/h (2 Bft) 100,00 %
11.04.2019 17:24 7,9 C 0,0 C 8,9 C 75 % 1016,3 hPa 0,0 l/m 5,2 km/h (1 Bft) S-SO 151 0 min 0,000 mm 0,0 UV-I 77 W/m 3,7 C 7,9 C 9,7 km/h (2 Bft) 97,87 %
11.04.2019 17:26 7,9 C 0,0 C 8,9 C 75 % 1016,3 hPa 0,0 l/m 6,5 km/h (2 Bft) S-SO 148 0 min 0,000 mm 0,0 UV-I 76 W/m 3,7 C 7,8 C 11,3 km/h (2 Bft) 97,87 %
11.04.2019 17:28 7,9 C 0,0 C 8,9 C 76 % 1016,3 hPa 0,0 l/m 5,1 km/h (1 Bft) S 173 0 min 0,000 mm 0,0 UV-I 74 W/m 3,9 C 7,9 C 8,0 km/h (2 Bft) 97,92 %
11.04.2019 17:30 7,9 C 0,0 C 8,9 C 76 % 1016,3 hPa 0,0 l/m 4,3 km/h (1 Bft) S 182 0 min 0,000 mm 0,0 UV-I 70 W/m 3,9 C 7,9 C 8,0 km/h (2 Bft) 97,87 %
11.04.2019 17:32 7,8 C 0,0 C 8,9 C 76 % 1016,3 hPa 0,0 l/m 6,3 km/h (2 Bft) SO 136 0 min 0,000 mm 0,0 UV-I 68 W/m 3,8 C 7,8 C 9,7 km/h (2 Bft) 100,00 %
11.04.2019 17:34 7,8 C 0,0 C 8,9 C 76 % 1016,3 hPa 0,0 l/m 6,5 km/h (2 Bft) SO 142 0 min 0,000 mm 0,0 UV-I 65 W/m 3,8 C 7,7 C 9,7 km/h (2 Bft) 97,87 %
11.04.2019 17:36 7,8 C 0,0 C 8,9 C 76 % 1016,3 hPa 0,0 l/m 7,2 km/h (2 Bft) S-SO 167 0 min 0,000 mm 0,0 UV-I 63 W/m 3,8 C 7,2 C 12,9 km/h (3 Bft) 100,00 %
11.04.2019 17:38 7,8 C 0,0 C 8,9 C 75 % 1016,3 hPa 0,0 l/m 6,1 km/h (2 Bft) S-SO 152 0 min 0,000 mm 0,0 UV-I 62 W/m 3,7 C 7,8 C 9,7 km/h (2 Bft) 100,00 %
11.04.2019 17:40 7,7 C 0,0 C 8,3 C 75 % 1016,3 hPa 0,0 l/m 5,8 km/h (2 Bft) S-SO 156 0 min 0,000 mm 0,0 UV-I 62 W/m 3,6 C 7,7 C 8,0 km/h (2 Bft) 100,00 %
11.04.2019 17:42 7,7 C 0,0 C 8,3 C 75 % 1016,4 hPa 0,0 l/m 7,6 km/h (2 Bft) SO 136 0 min 0,000 mm 0,0 UV-I 62 W/m 3,6 C 6,7 C 11,3 km/h (2 Bft) 97,87 %
11.04.2019 17:44 7,8 C 0,0 C 8,3 C 75 % 1016,4 hPa 0,0 l/m 5,1 km/h (1 Bft) SO 142 0 min 0,000 mm 0,0 UV-I 63 W/m 3,7 C 7,8 C 8,0 km/h (2 Bft) 100,00 %
11.04.2019 17:46 7,8 C 0,0 C 8,9 C 76 % 1016,4 hPa 0,0 l/m 5,1 km/h (1 Bft) S-SO 157 0 min 0,000 mm 0,0 UV-I 65 W/m 3,8 C 7,8 C 8,0 km/h (2 Bft) 100,00 %
11.04.2019 17:48 7,8 C 0,0 C 8,9 C 75 % 1016,4 hPa 0,0 l/m 5,2 km/h (1 Bft) SO 140 0 min 0,000 mm 0,0 UV-I 68 W/m 3,7 C 7,8 C 8,0 km/h (2 Bft) 97,87 %
11.04.2019 17:50 7,8 C 0,0 C 8,9 C 75 % 1016,4 hPa 0,0 l/m 6,6 km/h (2 Bft) SO 139 0 min 0,000 mm 0,0 UV-I 70 W/m 3,7 C 7,7 C 9,7 km/h (2 Bft) 100,00 %
11.04.2019 17:52 7,8 C 0,0 C 8,9 C 75 % 1016,4 hPa 0,0 l/m 5,5 km/h (1 Bft) S-SO 154 0 min 0,000 mm 0,0 UV-I 70 W/m 3,7 C 7,8 C 8,0 km/h (2 Bft) 100,00 %
11.04.2019 17:54 7,8 C 0,0 C 8,9 C 75 % 1016,4 hPa 0,0 l/m 6,1 km/h (2 Bft) SO 136 0 min 0,000 mm 0,0 UV-I 71 W/m 3,7 C 7,8 C 8,0 km/h (2 Bft) 100,00 %
11.04.2019 17:56 7,8 C 0,0 C 8,9 C 75 % 1016,4 hPa 0,0 l/m 5,9 km/h (2 Bft) SO 136 0 min 0,000 mm 0,0 UV-I 72 W/m 3,7 C 7,8 C 8,0 km/h (2 Bft) 98,00 %
11.04.2019 17:58 7,8 C 0,0 C 8,9 C 75 % 1016,4 hPa 0,0 l/m 6,3 km/h (2 Bft) SO 134 0 min 0,000 mm 0,0 UV-I 72 W/m 3,7 C 7,8 C 9,7 km/h (2 Bft) 100,00 %
11.04.2019 18:00 7,8 C 0,0 C 8,9 C 75 % 1016,4 hPa 0,0 l/m 5,5 km/h (1 Bft) SO 138 0 min 0,051 mm 0,0 UV-I 72 W/m 3,7 C 7,8 C 8,0 km/h (2 Bft) 100,00 %
11.04.2019 18:02 7,9 C 0,0 C 8,9 C 75 % 1016,4 hPa 0,0 l/m 5,9 km/h (2 Bft) SO 140 0 min 0,000 mm 0,0 UV-I 71 W/m 3,7 C 7,9 C 9,7 km/h (2 Bft) 97,44 %
11.04.2019 18:04 7,9 C 0,0 C 8,9 C 75 % 1016,4 hPa 0,0 l/m 3,4 km/h (1 Bft) S-SO 163 0 min 0,000 mm 0,0 UV-I 68 W/m 3,7 C 7,9 C 6,4 km/h (2 Bft) 100,00 %
11.04.2019 18:06 7,8 C 0,0 C 8,9 C 75 % 1016,4 hPa 0,0 l/m 3,7 km/h (1 Bft) S 169 0 min 0,000 mm 0,0 UV-I 64 W/m 3,7 C 7,8 C 6,4 km/h (2 Bft) 100,00 %
11.04.2019 18:09 7,8 C 0,0 C 8,9 C 75 % 1016,5 hPa 0,0 l/m 5,2 km/h (1 Bft) S 180 0 min 0,000 mm 0,0 UV-I 58 W/m 3,7 C 7,8 C 8,0 km/h (2 Bft) 100,00 %
11.04.2019 18:10 7,8 C 0,0 C 8,3 C 75 % 1016,5 hPa 0,0 l/m 4,4 km/h (1 Bft) S-SO 168 0 min 0,000 mm 0,0 UV-I 53 W/m 3,7 C 7,8 C 6,4 km/h (2 Bft) 100,00 %
11.04.2019 18:12 7,8 C 0,0 C 8,3 C 75 % 1016,5 hPa 0,0 l/m 2,3 km/h (1 Bft) S-SO 168 0 min 0,000 mm 0,0 UV-I 52 W/m 3,7 C 7,8 C 6,4 km/h (2 Bft) 100,00 %
11.04.2019 18:14 7,8 C 0,0 C 8,3 C 75 % 1016,5 hPa 0,0 l/m 2,8 km/h (1 Bft) S-SO 158 0 min 0,000 mm 0,0 UV-I 49 W/m 3,7 C 7,8 C 6,4 km/h (2 Bft) 100,00 %
11.04.2019 18:16 7,8 C 0,0 C 8,3 C 75 % 1016,5 hPa 0,0 l/m 4,2 km/h (1 Bft) SO 138 0 min 0,000 mm 0,0 UV-I 47 W/m 3,7 C 7,8 C 6,4 km/h (2 Bft) 100,00 %
11.04.2019 18:18 7,8 C 0,0 C 8,3 C 76 % 1016,5 hPa 0,0 l/m 2,6 km/h (1 Bft) SO 140 0 min 0,000 mm 0,0 UV-I 47 W/m 3,8 C 7,8 C 4,8 km/h (1 Bft) 93,62 %
11.04.2019 18:20 7,8 C 0,0 C 8,3 C 75 % 1016,5 hPa 0,0 l/m 2,7 km/h (1 Bft) SO 143 0 min 0,000 mm 0,0 UV-I 47 W/m 3,7 C 7,8 C 4,8 km/h (1 Bft) 96,00 %
11.04.2019 18:22 7,8 C 0,0 C 8,3 C 75 % 1016,5 hPa 0,0 l/m 2,7 km/h (1 Bft) S 174 0 min 0,000 mm 0,0 UV-I 48 W/m 3,7 C 7,8 C 4,8 km/h (1 Bft) 93,62 %
11.04.2019 18:24 7,8 C 0,0 C 8,3 C 75 % 1016,5 hPa 0,0 l/m 1,6 km/h (1 Bft) S 174 0 min 0,000 mm 0,0 UV-I 48 W/m 3,7 C 7,8 C 3,2 km/h (1 Bft) 95,74 %
11.04.2019 18:26 7,8 C 0,0 C 8,3 C 75 % 1016,5 hPa 0,0 l/m 1,0 km/h (0 Bft) S 174 0 min 0,000 mm 0,0 UV-I 47 W/m 3,7 C 7,8 C 3,2 km/h (1 Bft) 95,74 %
11.04.2019 18:28 7,8 C 0,0 C 8,3 C 75 % 1016,5 hPa 0,0 l/m 0,6 km/h (0 Bft) S 174 0 min 0,000 mm 0,0 UV-I 47 W/m 3,7 C 7,8 C 1,6 km/h (1 Bft) 93,62 %
11.04.2019 18:30 7,8 C 0,0 C 8,3 C 74 % 1016,5 hPa 0,0 l/m 2,7 km/h (1 Bft) O-SO 106 0 min 0,000 mm 0,0 UV-I 46 W/m 3,5 C 7,8 C 6,4 km/h (2 Bft) 93,62 %
11.04.2019 18:32 7,8 C 0,0 C 8,3 C 73 % 1016,5 hPa 0,0 l/m 4,4 km/h (1 Bft) O 85 0 min 0,000 mm 0,0 UV-I 46 W/m 3,3 C 7,8 C 8,0 km/h (2 Bft) 93,62 %
11.04.2019 18:34 7,8 C 0,0 C 8,3 C 72 % 1016,5 hPa 0,0 l/m 3,6 km/h (1 Bft) O-SO 122 0 min 0,000 mm 0,0 UV-I 44 W/m 3,1 C 7,8 C 6,4 km/h (2 Bft) 91,49 %
11.04.2019 18:36 7,7 C 0,0 C 8,3 C 72 % 1016,5 hPa 0,0 l/m 4,0 km/h (1 Bft) O 90 0 min 0,000 mm 0,0 UV-I 44 W/m 3,0 C 7,7 C 6,4 km/h (2 Bft) 93,62 %
11.04.2019 18:38 7,7 C 0,0 C 7,8 C 72 % 1016,6 hPa 0,0 l/m 11,3 km/h (2 Bft) O-SO 117 0 min 0,000 mm 0,0 UV-I 42 W/m 3,0 C 4,3 C 14,5 km/h (3 Bft) 93,62 %
11.04.2019 18:40 7,7 C 0,0 C 7,8 C 72 % 1016,6 hPa 0,0 l/m 8,5 km/h (2 Bft) O-SO 115 0 min 0,000 mm 0,0 UV-I 40 W/m 3,0 C 6,1 C 16,1 km/h (3 Bft) 91,49 %
11.04.2019 18:42 7,7 C 0,0 C 7,8 C 72 % 1016,5 hPa 0,0 l/m 8,6 km/h (2 Bft) O-SO 111 0 min 0,000 mm 0,0 UV-I 38 W/m 3,0 C 6,0 C 14,5 km/h (3 Bft) 97,22 %
11.04.2019 18:44 7,7 C 0,0 C 7,8 C 73 % 1016,6 hPa 0,0 l/m 8,8 km/h (2 Bft) O-SO 121 0 min 0,000 mm 0,0 UV-I 35 W/m 3,2 C 5,9 C 11,3 km/h (2 Bft) 94,00 %
11.04.2019 18:46 7,6 C 0,0 C 7,8 C 73 % 1016,6 hPa 0,0 l/m 7,0 km/h (2 Bft) O-SO 120 0 min 0,000 mm 0,0 UV-I 33 W/m 3,1 C 7,1 C 11,3 km/h (2 Bft) 95,74 %
11.04.2019 18:48 7,6 C 0,0 C 7,8 C 73 % 1016,7 hPa 0,0 l/m 5,9 km/h (2 Bft) O-SO 122 0 min 0,000 mm 0,0 UV-I 31 W/m 3,1 C 7,6 C 8,0 km/h (2 Bft) 94,00 %
11.04.2019 18:50 7,6 C 0,0 C 7,8 C 73 % 1016,7 hPa 0,0 l/m 6,0 km/h (2 Bft) O-SO 117 0 min 0,000 mm 0,0 UV-I 30 W/m 3,1 C 7,6 C 11,3 km/h (2 Bft) 96,00 %
11.04.2019 18:52 7,4 C 0,0 C 7,8 C 73 % 1016,7 hPa 0,0 l/m 6,9 km/h (2 Bft) O-SO 121 0 min 0,000 mm 0,0 UV-I 30 W/m 2,9 C 7,0 C 11,3 km/h (2 Bft) 95,74 %
11.04.2019 18:54 7,4 C 0,0 C 7,2 C 72 % 1016,7 hPa 0,0 l/m 8,3 km/h (2 Bft) O-SO 109 0 min 0,000 mm 0,0 UV-I 29 W/m 2,7 C 5,9 C 11,3 km/h (2 Bft) 97,87 %
11.04.2019 18:56 7,3 C 0,0 C 7,2 C 73 % 1016,8 hPa 0,0 l/m 7,0 km/h (2 Bft) O-SO 105 0 min 0,000 mm 0,0 UV-I 28 W/m 2,8 C 6,8 C 11,3 km/h (2 Bft) 97,87 %
11.04.2019 18:58 7,3 C 0,0 C 7,2 C 74 % 1016,8 hPa 0,0 l/m 6,0 km/h (2 Bft) O-SO 110 0 min 0,000 mm 0,0 UV-I 28 W/m 3,0 C 7,3 C 9,7 km/h (2 Bft) 97,56 %
11.04.2019 19:00 7,3 C 0,0 C 7,2 C 74 % 1016,8 hPa 0,0 l/m 6,2 km/h (2 Bft) O 92 0 min 0,025 mm 0,0 UV-I 28 W/m 3,0 C 7,3 C 11,3 km/h (2 Bft) 95,74 %
11.04.2019 19:02 7,3 C 0,0 C 7,2 C 74 % 1016,8 hPa 0,0 l/m 7,8 km/h (2 Bft) O-SO 111 0 min 0,000 mm 0,0 UV-I 28 W/m 3,0 C 6,2 C 11,3 km/h (2 Bft) 96,00 %
11.04.2019 19:04 7,2 C 0,0 C 7,2 C 74 % 1016,8 hPa 0,0 l/m 4,4 km/h (1 Bft) O-SO 120 0 min 0,000 mm 0,0 UV-I 26 W/m 2,9 C 7,2 C 8,0 km/h (2 Bft) 95,74 %
11.04.2019 19:06 7,2 C 0,0 C 7,2 C 74 % 1016,8 hPa 0,0 l/m 5,6 km/h (1 Bft) SO 130 0 min 0,000 mm 0,0 UV-I 25 W/m 2,9 C 7,2 C 8,0 km/h (2 Bft) 97,87 %
11.04.2019 19:08 7,1 C 0,0 C 7,2 C 74 % 1016,8 hPa 0,0 l/m 5,2 km/h (1 Bft) O-SO 113 0 min 0,000 mm 0,0 UV-I 24 W/m 2,8 C 7,1 C 6,4 km/h (2 Bft) 95,74 %
11.04.2019 19:10 7,1 C 0,0 C 7,2 C 74 % 1016,9 hPa 0,0 l/m 7,6 km/h (2 Bft) O-SO 120 0 min 0,000 mm 0,0 UV-I 21 W/m 2,8 C 6,1 C 11,3 km/h (2 Bft) 96,00 %
11.04.2019 19:12 7,1 C 0,0 C 7,2 C 75 % 1016,9 hPa 0,0 l/m 4,7 km/h (1 Bft) O-SO 122 0 min 0,000 mm 0,0 UV-I 19 W/m 3,0 C 7,1 C 6,4 km/h (2 Bft) 97,87 %
11.04.2019 19:14 7,1 C 0,0 C 7,2 C 75 % 1016,9 hPa 0,0 l/m 3,3 km/h (1 Bft) O 84 0 min 0,000 mm 0,0 UV-I 18 W/m 3,0 C 7,1 C 4,8 km/h (1 Bft) 97,87 %
11.04.2019 19:16 7,1 C 0,0 C 7,2 C 76 % 1016,9 hPa 0,0 l/m 3,5 km/h (1 Bft) O-SO 107 0 min 0,000 mm 0,0 UV-I 16 W/m 3,2 C 7,1 C 6,4 km/h (2 Bft) 97,22 %
11.04.2019 19:18 7,1 C 0,0 C 6,7 C 75 % 1016,9 hPa 0,0 l/m 3,6 km/h (1 Bft) SO 132 0 min 0,000 mm 0,0 UV-I 15 W/m 3,0 C 7,1 C 6,4 km/h (2 Bft) 96,00 %
11.04.2019 19:20 7,0 C 0,0 C 6,7 C 75 % 1016,9 hPa 0,0 l/m 5,1 km/h (1 Bft) O 96 0 min 0,000 mm 0,0 UV-I 14 W/m 2,9 C 7,0 C 6,4 km/h (2 Bft) 97,87 %
11.04.2019 19:22 7,0 C 0,0 C 6,7 C 75 % 1016,9 hPa 0,0 l/m 2,5 km/h (1 Bft) O-SO 109 0 min 0,000 mm 0,0 UV-I 14 W/m 2,9 C 7,0 C 4,8 km/h (1 Bft) 96,00 %
11.04.2019 19:24 6,9 C 0,0 C 6,7 C 75 % 1017,0 hPa 0,0 l/m 3,9 km/h (1 Bft) O 100 0 min 0,000 mm 0,0 UV-I 12 W/m 2,8 C 6,9 C 6,4 km/h (2 Bft) 97,87 %
11.04.2019 19:26 6,9 C 0,0 C 6,7 C 75 % 1016,9 hPa 0,0 l/m 4,2 km/h (1 Bft) O-SO 119 0 min 0,000 mm 0,0 UV-I 12 W/m 2,8 C 6,9 C 6,4 km/h (2 Bft) 97,87 %
11.04.2019 19:28 6,9 C 0,0 C 6,7 C 74 % 1016,9 hPa 0,0 l/m 4,6 km/h (1 Bft) O-SO 105 0 min 0,000 mm 0,0 UV-I 12 W/m 2,6 C 6,9 C 9,7 km/h (2 Bft) 95,74 %
11.04.2019 19:30 6,9 C 0,0 C 6,7 C 75 % 1016,9 hPa 0,0 l/m 6,0 km/h (2 Bft) O-SO 115 0 min 0,000 mm 0,0 UV-I 12 W/m 2,8 C 6,9 C 9,7 km/h (2 Bft) 95,74 %
11.04.2019 19:32 6,9 C 0,0 C 6,7 C 74 % 1017,0 hPa 0,0 l/m 6,7 km/h (2 Bft) O 92 0 min 0,000 mm 0,0 UV-I 12 W/m 2,6 C 6,7 C 12,9 km/h (3 Bft) 93,62 %
11.04.2019 19:34 6,9 C 0,0 C 6,7 C 74 % 1017,0 hPa 0,0 l/m 6,6 km/h (2 Bft) O 96 0 min 0,000 mm 0,0 UV-I 12 W/m 2,6 C 6,8 C 11,3 km/h (2 Bft) 95,74 %
11.04.2019 19:36 6,9 C 0,0 C 6,7 C 74 % 1017,0 hPa 0,0 l/m 9,5 km/h (2 Bft) O-SO 109 2 min 0,000 mm 0,0 UV-I 11 W/m 2,6 C 4,5 C 12,9 km/h (3 Bft) 97,87 %
11.04.2019 19:38 6,9 C 0,0 C 6,1 C 74 % 1017,0 hPa 0,0 l/m 8,5 km/h (2 Bft) O 90 0 min 0,000 mm 0,0 UV-I 10 W/m 2,6 C 5,2 C 11,3 km/h (2 Bft) 100,00 %
11.04.2019 19:40 6,8 C 0,0 C 6,1 C 74 % 1017,0 hPa 0,0 l/m 8,4 km/h (2 Bft) O-SO 111 0 min 0,000 mm 0,0 UV-I 9 W/m 2,5 C 5,2 C 14,5 km/h (3 Bft) 94,74 %
11.04.2019 19:42 6,8 C 0,0 C 6,1 C 74 % 1017,1 hPa 0,0 l/m 8,8 km/h (2 Bft) O 100 0 min 0,000 mm 0,0 UV-I 9 W/m 2,5 C 4,9 C 12,9 km/h (3 Bft) 97,87 %
11.04.2019 19:44 6,8 C 0,0 C 6,1 C 73 % 1017,1 hPa 0,0 l/m 10,0 km/h (2 Bft) O-NO 77 0 min 0,000 mm 0,0 UV-I 8 W/m 2,3 C 4,1 C 14,5 km/h (3 Bft) 94,00 %
11.04.2019 19:46 6,8 C 0,0 C 6,1 C 73 % 1017,1 hPa 0,0 l/m 10,0 km/h (2 Bft) O-NO 78 0 min 0,000 mm 0,0 UV-I 7 W/m 2,3 C 4,1 C 16,1 km/h (3 Bft) 96,00 %
11.04.2019 19:48 6,8 C 0,0 C 6,1 C 73 % 1017,1 hPa 0,0 l/m 10,0 km/h (2 Bft) O-NO 69 0 min 0,000 mm 0,0 UV-I 7 W/m 2,3 C 4,1 C 14,5 km/h (3 Bft) 95,74 %
11.04.2019 19:50 6,8 C 0,0 C 6,1 C 72 % 1017,1 hPa 0,0 l/m 9,3 km/h (2 Bft) O-NO 77 0 min 0,000 mm 0,0 UV-I 6 W/m 2,1 C 4,5 C 14,5 km/h (3 Bft) 95,74 %
11.04.2019 19:52 6,8 C 0,0 C 6,1 C 73 % 1017,2 hPa 0,0 l/m 9,8 km/h (2 Bft) O-NO 59 0 min 0,000 mm 0,0 UV-I 5 W/m 2,3 C 4,2 C 14,5 km/h (3 Bft) 93,62 %
11.04.2019 19:54 6,8 C 0,0 C 6,1 C 73 % 1017,3 hPa 0,0 l/m 7,0 km/h (2 Bft) O 84 0 min 0,000 mm 0,0 UV-I 2 W/m 2,3 C 6,3 C 11,3 km/h (2 Bft) 95,74 %
11.04.2019 19:56 6,7 C 0,0 C 6,1 C 74 % 1017,2 hPa 0,0 l/m 9,2 km/h (2 Bft) O 86 0 min 0,000 mm 0,0 UV-I 0 W/m 2,4 C 4,5 C 14,5 km/h (3 Bft) 97,87 %
11.04.2019 19:58 6,7 C 0,0 C 6,1 C 74 % 1017,3 hPa 0,0 l/m 7,8 km/h (2 Bft) O 88 0 min 0,000 mm 0,0 UV-I 0 W/m 2,4 C 5,5 C 12,9 km/h (3 Bft) 97,87 %
11.04.2019 20:00 6,7 C 0,0 C 6,1 C 74 % 1017,3 hPa 0,0 l/m 10,6 km/h (2 Bft) O 92 0 min 0,026 mm 0,0 UV-I 0 W/m 2,4 C 3,6 C 14,5 km/h (3 Bft) 97,87 %
11.04.2019 20:02 6,7 C 0,0 C 6,1 C 73 % 1017,3 hPa 0,0 l/m 11,2 km/h (2 Bft) O 92 0 min 0,000 mm 0,0 UV-I 0 W/m 2,2 C 3,2 C 16,1 km/h (3 Bft) 97,92 %
11.04.2019 20:04 6,7 C 0,0 C 6,1 C 73 % 1017,4 hPa 0,0 l/m 9,8 km/h (2 Bft) O 101 0 min 0,000 mm 0,0 UV-I 0 W/m 2,2 C 4,1 C 14,5 km/h (3 Bft) 100,00 %
11.04.2019 20:06 6,7 C 0,0 C 6,1 C 73 % 1017,4 hPa 0,0 l/m 6,7 km/h (2 Bft) O-SO 107 0 min 0,000 mm 0,0 UV-I 0 W/m 2,2 C 6,5 C 11,3 km/h (2 Bft) 100,00 %
11.04.2019 20:08 6,7 C 0,0 C 6,1 C 74 % 1017,4 hPa 0,0 l/m 7,1 km/h (2 Bft) O-SO 108 0 min 0,000 mm 0,0 UV-I 0 W/m 2,4 C 6,1 C 11,3 km/h (2 Bft) 100,00 %
11.04.2019 20:10 6,7 C 0,0 C 6,1 C 73 % 1017,4 hPa 0,0 l/m 6,2 km/h (2 Bft) SO 131 0 min 0,000 mm 0,0 UV-I 0 W/m 2,2 C 6,7 C 9,7 km/h (2 Bft) 98,00 %
11.04.2019 20:12 6,6 C 0,0 C 6,1 C 74 % 1017,4 hPa 0,0 l/m 6,8 km/h (2 Bft) O-SO 113 0 min 0,000 mm 0,0 UV-I 0 W/m 2,3 C 6,3 C 8,0 km/h (2 Bft) 100,00 %
11.04.2019 20:14 6,6 C 0,0 C 6,1 C 75 % 1017,4 hPa 0,0 l/m 6,4 km/h (2 Bft) SO 134 0 min 0,000 mm 0,0 UV-I 0 W/m 2,5 C 6,6 C 11,3 km/h (2 Bft) 97,14 %
11.04.2019 20:16 6,6 C 0,0 C 6,1 C 75 % 1017,5 hPa 0,0 l/m 9,1 km/h (2 Bft) SO 136 0 min 0,000 mm 0,0 UV-I 0 W/m 2,5 C 4,5 C 12,9 km/h (3 Bft) 100,00 %
11.04.2019 20:18 6,6 C 0,0 C 6,1 C 75 % 1017,5 hPa 0,0 l/m 9,2 km/h (2 Bft) O-SO 121 0 min 0,000 mm 0,0 UV-I 0 W/m 2,5 C 4,4 C 12,9 km/h (3 Bft) 97,87 %
11.04.2019 20:20 6,5 C 0,0 C 6,1 C 75 % 1017,5 hPa 0,0 l/m 6,4 km/h (2 Bft) O-SO 122 0 min 0,000 mm 0,0 UV-I 0 W/m 2,4 C 6,5 C 11,3 km/h (2 Bft) 95,74 %
11.04.2019 20:22 6,5 C 0,0 C 6,1 C 75 % 1017,5 hPa 0,0 l/m 6,2 km/h (2 Bft) O-SO 121 0 min 0,000 mm 0,0 UV-I 0 W/m 2,4 C 6,5 C 11,3 km/h (2 Bft) 97,87 %
11.04.2019 20:24 6,5 C 0,0 C 6,1 C 76 % 1017,5 hPa 0,0 l/m 6,6 km/h (2 Bft) O-SO 113 0 min 0,000 mm 0,0 UV-I 0 W/m 2,6 C 6,4 C 9,7 km/h (2 Bft) 97,87 %
11.04.2019 20:26 6,5 C 0,0 C 6,1 C 75 % 1017,5 hPa 0,0 l/m 6,6 km/h (2 Bft) O-SO 123 0 min 0,000 mm 0,0 UV-I 0 W/m 2,4 C 6,4 C 11,3 km/h (2 Bft) 95,74 %
11.04.2019 20:28 6,4 C 0,0 C 6,1 C 76 % 1017,6 hPa 0,0 l/m 3,7 km/h (1 Bft) SO 133 0 min 0,000 mm 0,0 UV-I 0 W/m 2,5 C 6,4 C 6,4 km/h (2 Bft) 98,00 %
11.04.2019 20:30 6,4 C 0,0 C 6,1 C 76 % 1017,6 hPa 0,0 l/m 5,0 km/h (1 Bft) SO 142 0 min 0,000 mm 0,0 UV-I 0 W/m 2,5 C 6,4 C 6,4 km/h (2 Bft) 97,87 %
11.04.2019 20:32 6,4 C 0,0 C 6,1 C 76 % 1017,6 hPa 0,0 l/m 5,9 km/h (2 Bft) SO 135 0 min 0,000 mm 0,0 UV-I 0 W/m 2,5 C 6,4 C 8,0 km/h (2 Bft) 97,87 %
11.04.2019 20:34 6,4 C 0,0 C 6,1 C 76 % 1017,6 hPa 0,0 l/m 5,4 km/h (1 Bft) SO 143 0 min 0,000 mm 0,0 UV-I 0 W/m 2,5 C 6,4 C 8,0 km/h (2 Bft) 97,87 %
11.04.2019 20:36 6,4 C 0,0 C 6,1 C 77 % 1017,6 hPa 0,0 l/m 5,6 km/h (1 Bft) SO 129 0 min 0,000 mm 0,0 UV-I 0 W/m 2,7 C 6,4 C 11,3 km/h (2 Bft) 97,92 %
11.04.2019 20:38 6,3 C 0,0 C 6,1 C 77 % 1017,6 hPa 0,0 l/m 6,5 km/h (2 Bft) SO 131 0 min 0,000 mm 0,0 UV-I 0 W/m 2,6 C 6,2 C 11,3 km/h (2 Bft) 97,87 %
11.04.2019 20:40 6,3 C 0,0 C 6,1 C 77 % 1017,6 hPa 0,0 l/m 7,1 km/h (2 Bft) SO 138 0 min 0,000 mm 0,0 UV-I 0 W/m 2,6 C 5,7 C 11,3 km/h (2 Bft) 95,74 %
11.04.2019 20:42 6,3 C 0,0 C 6,1 C 77 % 1017,7 hPa 0,0 l/m 6,1 km/h (2 Bft) SO 136 0 min 0,000 mm 0,0 UV-I 0 W/m 2,6 C 6,3 C 8,0 km/h (2 Bft) 97,37 %
11.04.2019 20:44 6,3 C 0,0 C 6,1 C 78 % 1017,7 hPa 0,0 l/m 5,2 km/h (1 Bft) SO 135 0 min 0,000 mm 0,0 UV-I 0 W/m 2,8 C 6,3 C 8,0 km/h (2 Bft) 95,74 %
11.04.2019 20:46 6,3 C 0,0 C 6,1 C 78 % 1017,7 hPa 0,0 l/m 5,3 km/h (1 Bft) SO 146 0 min 0,000 mm 0,0 UV-I 0 W/m 2,8 C 6,3 C 8,0 km/h (2 Bft) 97,87 %
11.04.2019 20:48 6,3 C 0,0 C 6,1 C 78 % 1017,7 hPa 0,0 l/m 4,1 km/h (1 Bft) S-SO 147 0 min 0,000 mm 0,0 UV-I 0 W/m 2,8 C 6,3 C 6,4 km/h (2 Bft) 97,87 %
11.04.2019 20:50 6,3 C 0,0 C 6,1 C 78 % 1017,7 hPa 0,0 l/m 4,3 km/h (1 Bft) S-SO 147 0 min 0,000 mm 0,0 UV-I 0 W/m 2,8 C 6,3 C 6,4 km/h (2 Bft) 97,87 %
11.04.2019 20:52 6,2 C 0,0 C 6,1 C 78 % 1017,7 hPa 0,0 l/m 2,9 km/h (1 Bft) SO 146 0 min 0,000 mm 0,0 UV-I 0 W/m 2,7 C 6,2 C 4,8 km/h (1 Bft) 100,00 %
11.04.2019 20:54 6,2 C 0,0 C 6,1 C 78 % 1017,7 hPa 0,0 l/m 4,3 km/h (1 Bft) SO 145 0 min 0,000 mm 0,0 UV-I 0 W/m 2,7 C 6,2 C 6,4 km/h (2 Bft) 100,00 %
11.04.2019 20:56 6,2 C 0,0 C 6,1 C 78 % 1017,7 hPa 0,0 l/m 3,6 km/h (1 Bft) S-SO 147 0 min 0,000 mm 0,0 UV-I 0 W/m 2,7 C 6,2 C 6,4 km/h (2 Bft) 100,00 %
11.04.2019 20:58 6,2 C 0,0 C 6,1 C 78 % 1017,8 hPa 0,0 l/m 3,2 km/h (1 Bft) S-SO 162 0 min 0,000 mm 0,0 UV-I 0 W/m 2,7 C 6,2 C 9,7 km/h (2 Bft) 97,87 %
11.04.2019 21:00 6,2 C 0,0 C 6,1 C 79 % 1017,8 hPa 0,0 l/m 4,3 km/h (1 Bft) S-SO 150 0 min 0,025 mm 0,0 UV-I 0 W/m 2,8 C 6,2 C 8,0 km/h (2 Bft) 95,74 %
11.04.2019 21:02 6,2 C 0,0 C 6,1 C 78 % 1017,8 hPa 0,0 l/m 3,3 km/h (1 Bft) S-SO 150 0 min 0,000 mm 0,0 UV-I 0 W/m 2,7 C 6,2 C 6,4 km/h (2 Bft) 95,74 %
11.04.2019 21:04 6,2 C 0,0 C 6,1 C 78 % 1017,8 hPa 0,0 l/m 4,0 km/h (1 Bft) S-SO 165 0 min 0,000 mm 0,0 UV-I 0 W/m 2,7 C 6,2 C 6,4 km/h (2 Bft) 97,87 %
11.04.2019 21:06 6,1 C 0,0 C 6,1 C 79 % 1017,8 hPa 0,0 l/m 3,8 km/h (1 Bft) S-SO 166 0 min 0,000 mm 0,0 UV-I 0 W/m 2,7 C 6,1 C 6,4 km/h (2 Bft) 95,74 %
11.04.2019 21:09 6,1 C 0,0 C 5,6 C 79 % 1017,8 hPa 0,0 l/m 3,1 km/h (1 Bft) S-SO 165 0 min 0,000 mm 0,0 UV-I 0 W/m 2,7 C 6,1 C 6,4 km/h (2 Bft) 97,30 %
11.04.2019 21:10 6,1 C 0,0 C 5,6 C 79 % 1017,8 hPa 0,0 l/m 4,7 km/h (1 Bft) S 170 0 min 0,000 mm 0,0 UV-I 0 W/m 2,7 C 6,1 C 6,4 km/h (2 Bft) 100,00 %
11.04.2019 21:12 6,1 C 0,0 C 5,6 C 79 % 1017,8 hPa 0,0 l/m 2,8 km/h (1 Bft) S 169 0 min 0,000 mm 0,0 UV-I 0 W/m 2,7 C 6,1 C 6,4 km/h (2 Bft) 94,00 %
11.04.2019 21:14 6,1 C 0,0 C 5,6 C 79 % 1017,8 hPa 0,0 l/m 3,6 km/h (1 Bft) S-SO 167 0 min 0,000 mm 0,0 UV-I 0 W/m 2,7 C 6,1 C 6,4 km/h (2 Bft) 97,87 %
11.04.2019 21:16 6,1 C 0,0 C 5,6 C 79 % 1017,8 hPa 0,0 l/m 3,7 km/h (1 Bft) S-SO 167 0 min 0,000 mm 0,0 UV-I 0 W/m 2,7 C 6,1 C 6,4 km/h (2 Bft) 97,87 %
11.04.2019 21:18 6,1 C 0,0 C 5,6 C 79 % 1017,9 hPa 0,0 l/m 3,2 km/h (1 Bft) S-SO 167 0 min 0,000 mm 0,0 UV-I 0 W/m 2,7 C 6,1 C 6,4 km/h (2 Bft) 91,49 %
11.04.2019 21:20 6,1 C 0,0 C 5,6 C 79 % 1017,8 hPa 0,0 l/m 5,1 km/h (1 Bft) S-SO 167 0 min 0,000 mm 0,0 UV-I 0 W/m 2,7 C 6,1 C 6,4 km/h (2 Bft) 97,87 %
11.04.2019 21:22 6,0 C 0,0 C 5,6 C 79 % 1017,8 hPa 0,0 l/m 4,5 km/h (1 Bft) S-SO 167 0 min 0,000 mm 0,0 UV-I 0 W/m 2,6 C 6,0 C 6,4 km/h (2 Bft) 97,87 %
11.04.2019 21:24 6,1 C 0,0 C 5,6 C 80 % 1017,8 hPa 0,0 l/m 4,1 km/h (1 Bft) S-SO 150 0 min 0,000 mm 0,0 UV-I 0 W/m 2,9 C 6,1 C 8,0 km/h (2 Bft) 100,00 %
11.04.2019 21:26 6,0 C 0,0 C 5,6 C 80 % 1017,8 hPa 0,0 l/m 2,4 km/h (1 Bft) S-SO 152 0 min 0,000 mm 0,0 UV-I 0 W/m 2,8 C 6,0 C 4,8 km/h (1 Bft) 97,87 %
11.04.2019 21:28 6,1 C 0,0 C 5,6 C 80 % 1017,8 hPa 0,0 l/m 2,3 km/h (1 Bft) S-SO 153 0 min 0,000 mm 0,0 UV-I 0 W/m 2,9 C 6,1 C 3,2 km/h (1 Bft) 100,00 %
11.04.2019 21:30 6,1 C 0,0 C 5,6 C 80 % 1017,8 hPa 0,0 l/m 2,2 km/h (1 Bft) S-SO 154 0 min 0,000 mm 0,0 UV-I 0 W/m 2,9 C 6,1 C 4,8 km/h (1 Bft) 98,00 %
11.04.2019 21:32 6,1 C 0,0 C 5,6 C 80 % 1017,8 hPa 0,0 l/m 2,7 km/h (1 Bft) S-SO 154 0 min 0,000 mm 0,0 UV-I 0 W/m 2,9 C 6,1 C 4,8 km/h (1 Bft) 100,00 %
11.04.2019 21:34 6,0 C 0,0 C 5,6 C 80 % 1017,8 hPa 0,0 l/m 3,2 km/h (1 Bft) S 170 0 min 0,000 mm 0,0 UV-I 0 W/m 2,8 C 6,0 C 8,0 km/h (2 Bft) 100,00 %
11.04.2019 21:36 6,0 C 0,0 C 5,6 C 80 % 1017,8 hPa 0,0 l/m 2,6 km/h (1 Bft) S 170 0 min 0,000 mm 0,0 UV-I 0 W/m 2,8 C 6,0 C 3,2 km/h (1 Bft) 100,00 %
11.04.2019 21:38 6,0 C 0,0 C 5,6 C 80 % 1017,8 hPa 0,0 l/m 4,4 km/h (1 Bft) S-SO 163 0 min 0,000 mm 0,0 UV-I 0 W/m 2,8 C 6,0 C 8,0 km/h (2 Bft) 100,00 %
11.04.2019 21:40 6,0 C 0,0 C 5,6 C 80 % 1017,8 hPa 0,0 l/m 3,1 km/h (1 Bft) S-SO 165 0 min 0,000 mm 0,0 UV-I 0 W/m 2,8 C 6,0 C 6,4 km/h (2 Bft) 100,00 %
11.04.2019 21:42 6,0 C 0,0 C 5,6 C 80 % 1017,8 hPa 0,0 l/m 3,4 km/h (1 Bft) S-SO 165 0 min 0,000 mm 0,0 UV-I 0 W/m 2,8 C 6,0 C 6,4 km/h (2 Bft) 95,74 %
11.04.2019 21:44 6,0 C 0,0 C 5,6 C 80 % 1017,8 hPa 0,0 l/m 4,4 km/h (1 Bft) S-SW 192 0 min 0,000 mm 0,0 UV-I 0 W/m 2,8 C 6,0 C 6,4 km/h (2 Bft) 97,87 %
11.04.2019 21:46 6,0 C 0,0 C 5,6 C 80 % 1017,8 hPa 0,0 l/m 2,2 km/h (1 Bft) S-SW 192 0 min 0,000 mm 0,0 UV-I 0 W/m 2,8 C 6,0 C 3,2 km/h (1 Bft) 98,00 %
11.04.2019 21:48 6,0 C 0,0 C 5,6 C 81 % 1017,8 hPa 0,0 l/m 3,4 km/h (1 Bft) S 190 0 min 0,000 mm 0,0 UV-I 0 W/m 3,0 C 6,0 C 4,8 km/h (1 Bft) 100,00 %
11.04.2019 21:50 6,1 C 0,0 C 5,6 C 80 % 1017,8 hPa 0,0 l/m 2,9 km/h (1 Bft) S 181 0 min 0,000 mm 0,0 UV-I 0 W/m 2,9 C 6,1 C 4,8 km/h (1 Bft) 100,00 %
11.04.2019 21:52 6,1 C 0,0 C 5,6 C 80 % 1017,8 hPa 0,0 l/m 2,0 km/h (1 Bft) S 181 0 min 0,000 mm 0,0 UV-I 0 W/m 2,9 C 6,1 C 3,2 km/h (1 Bft) 100,00 %
11.04.2019 21:54 6,1 C 0,0 C 5,6 C 80 % 1017,8 hPa 0,0 l/m 2,1 km/h (1 Bft) S 181 0 min 0,000 mm 0,0 UV-I 0 W/m 2,9 C 6,1 C 3,2 km/h (1 Bft) 97,87 %
11.04.2019 21:56 6,1 C 0,0 C 5,6 C 80 % 1017,8 hPa 0,0 l/m 1,8 km/h (1 Bft) S 181 0 min 0,000 mm 0,0 UV-I 0 W/m 2,9 C 6,1 C 3,2 km/h (1 Bft) 100,00 %
11.04.2019 21:58 6,1 C 0,0 C 5,6 C 81 % 1017,8 hPa 0,0 l/m 1,9 km/h (1 Bft) S 181 0 min 0,000 mm 0,0 UV-I 0 W/m 3,1 C 6,1 C 3,2 km/h (1 Bft) 98,00 %
11.04.2019 22:00 6,0 C 0,0 C 5,6 C 80 % 1017,9 hPa 0,0 l/m 3,3 km/h (1 Bft) S 181 0 min 0,000 mm 0,0 UV-I 0 W/m 2,8 C 6,0 C 4,8 km/h (1 Bft) 97,37 %
11.04.2019 22:02 5,9 C 0,0 C 5,6 C 80 % 1017,9 hPa 0,0 l/m 2,7 km/h (1 Bft) S 181 0 min 0,000 mm 0,0 UV-I 0 W/m 2,7 C 5,9 C 4,8 km/h (1 Bft) 100,00 %
11.04.2019 22:04 6,0 C 0,0 C 5,6 C 80 % 1017,9 hPa 0,0 l/m 1,7 km/h (1 Bft) S 181 0 min 0,000 mm 0,0 UV-I 0 W/m 2,8 C 6,0 C 3,2 km/h (1 Bft) 100,00 %
11.04.2019 22:06 5,9 C 0,0 C 5,6 C 80 % 1017,9 hPa 0,0 l/m 0,6 km/h (0 Bft) S 181 0 min 0,000 mm 0,0 UV-I 0 W/m 2,7 C 5,9 C 1,6 km/h (1 Bft) 100,00 %
11.04.2019 22:08 5,9 C 0,0 C 5,6 C 81 % 1017,9 hPa 0,0 l/m 1,6 km/h (1 Bft) S 181 0 min 0,000 mm 0,0 UV-I 0 W/m 2,9 C 5,9 C 3,2 km/h (1 Bft) 97,87 %
11.04.2019 22:10 5,9 C 0,0 C 5,6 C 80 % 1017,9 hPa 0,0 l/m 0,9 km/h (0 Bft) S 181 0 min 0,000 mm 0,0 UV-I 0 W/m 2,7 C 5,9 C 1,6 km/h (1 Bft) 95,74 %
11.04.2019 22:12 5,9 C 0,0 C 5,6 C 80 % 1017,8 hPa 0,0 l/m 1,2 km/h (1 Bft) S 181 0 min 0,000 mm 0,0 UV-I 0 W/m 2,7 C 5,9 C 1,6 km/h (1 Bft) 100,00 %
11.04.2019 22:14 5,9 C 0,0 C 5,6 C 80 % 1017,9 hPa 0,0 l/m 3,1 km/h (1 Bft) S 181 0 min 0,000 mm 0,0 UV-I 0 W/m 2,7 C 5,9 C 4,8 km/h (1 Bft) 100,00 %
11.04.2019 22:16 5,9 C 0,0 C 5,6 C 81 % 1017,8 hPa 0,0 l/m 3,0 km/h (1 Bft) S 181 0 min 0,000 mm 0,0 UV-I 0 W/m 2,9 C 5,9 C 3,2 km/h (1 Bft) 100,00 %
11.04.2019 22:18 5,8 C 0,0 C 5,6 C 81 % 1017,9 hPa 0,0 l/m 2,6 km/h (1 Bft) S 181 0 min 0,000 mm 0,0 UV-I 0 W/m 2,8 C 5,8 C 3,2 km/h (1 Bft) 95,74 %
11.04.2019 22:20 5,8 C 0,0 C 5,6 C 81 % 1017,9 hPa 0,0 l/m 1,5 km/h (1 Bft) S 181 0 min 0,000 mm 0,0 UV-I 0 W/m 2,8 C 5,8 C 3,2 km/h (1 Bft) 94,74 %
11.04.2019 22:22 5,8 C 0,0 C 5,6 C 82 % 1017,9 hPa 0,0 l/m 2,1 km/h (1 Bft) S 181 0 min 0,000 mm 0,0 UV-I 0 W/m 3,0 C 5,8 C 3,2 km/h (1 Bft) 93,62 %
11.04.2019 22:24 5,8 C 0,0 C 5,0 C 82 % 1018,0 hPa 0,0 l/m 1,5 km/h (1 Bft) S 181 0 min 0,000 mm 0,0 UV-I 0 W/m 3,0 C 5,8 C 3,2 km/h (1 Bft) 92,00 %
11.04.2019 22:26 5,7 C 0,0 C 5,0 C 83 % 1018,0 hPa 0,0 l/m 1,2 km/h (1 Bft) S 181 0 min 0,000 mm 0,0 UV-I 0 W/m 3,0 C 5,7 C 1,6 km/h (1 Bft) 92,00 %
11.04.2019 22:28 5,6 C 0,0 C 5,0 C 83 % 1018,0 hPa 0,0 l/m 1,3 km/h (1 Bft) S 181 0 min 0,000 mm 0,0 UV-I 0 W/m 2,9 C 5,6 C 3,2 km/h (1 Bft) 91,49 %
11.04.2019 22:30 5,7 C 0,0 C 5,0 C 83 % 1018,0 hPa 0,0 l/m 2,5 km/h (1 Bft) S 181 0 min 0,000 mm 0,0 UV-I 0 W/m 3,0 C 5,7 C 3,2 km/h (1 Bft) 91,67 %
11.04.2019 22:32 5,7 C 0,0 C 5,0 C 83 % 1018,0 hPa 0,0 l/m 3,4 km/h (1 Bft) S 181 0 min 0,000 mm 0,0 UV-I 0 W/m 3,0 C 5,7 C 4,8 km/h (1 Bft) 94,00 %
11.04.2019 22:34 5,8 C 0,0 C 5,0 C 82 % 1018,0 hPa 0,0 l/m 3,3 km/h (1 Bft) S 181 0 min 0,000 mm 0,0 UV-I 0 W/m 3,0 C 5,8 C 4,8 km/h (1 Bft) 92,45 %
11.04.2019 22:36 5,8 C 0,0 C 5,0 C 82 % 1018,0 hPa 0,0 l/m 4,2 km/h (1 Bft) N-NW 347 0 min 0,000 mm 0,0 UV-I 0 W/m 3,0 C 5,8 C 4,8 km/h (1 Bft) 93,62 %
11.04.2019 22:38 5,7 C 0,0 C 5,0 C 84 % 1018,0 hPa 0,0 l/m 4,1 km/h (1 Bft) N-NW 347 0 min 0,000 mm 0,0 UV-I 0 W/m 3,2 C 5,7 C 4,8 km/h (1 Bft) 89,36 %
11.04.2019 22:40 5,6 C 0,0 C 5,0 C 85 % 1018,0 hPa 0,0 l/m 1,3 km/h (1 Bft) N-NW 347 0 min 0,000 mm 0,0 UV-I 0 W/m 3,3 C 5,6 C 3,2 km/h (1 Bft) 94,00 %
11.04.2019 22:42 5,5 C 0,0 C 5,0 C 85 % 1018,0 hPa 0,0 l/m 0,3 km/h (0 Bft) N-NW 347 0 min 0,000 mm 0,0 UV-I 0 W/m 3,2 C 5,5 C 1,6 km/h (1 Bft) 95,12 %
11.04.2019 22:44 5,5 C 0,0 C 5,0 C 85 % 1018,0 hPa 0,0 l/m 0,5 km/h (0 Bft) N-NW 347 0 min 0,000 mm 0,0 UV-I 0 W/m 3,2 C 5,5 C 1,6 km/h (1 Bft) 87,23 %
11.04.2019 22:46 5,5 C 0,0 C 5,0 C 85 % 1018,1 hPa 0,0 l/m 2,0 km/h (1 Bft) N-NW 347 0 min 0,000 mm 0,0 UV-I 0 W/m 3,2 C 5,5 C 3,2 km/h (1 Bft) 95,74 %
11.04.2019 22:48 5,4 C 0,0 C 5,0 C 85 % 1018,2 hPa 0,0 l/m 1,5 km/h (1 Bft) N-NW 347 0 min 0,000 mm 0,0 UV-I 0 W/m 3,1 C 5,4 C 3,2 km/h (1 Bft) 96,00 %
11.04.2019 22:50 5,4 C 0,0 C 5,0 C 86 % 1018,2 hPa 0,0 l/m 0,2 km/h (0 Bft) N-NW 347 0 min 0,000 mm 0,0 UV-I 0 W/m 3,3 C 5,4 C 1,6 km/h (1 Bft) 95,74 %
11.04.2019 22:52 5,4 C 0,0 C 5,0 C 86 % 1018,2 hPa 0,0 l/m 1,7 km/h (1 Bft) N-NW 347 0 min 0,000 mm 0,0 UV-I 0 W/m 3,3 C 5,4 C 3,2 km/h (1 Bft) 95,74 %
11.04.2019 22:54 5,4 C 0,0 C 5,0 C 86 % 1018,2 hPa 0,0 l/m 1,1 km/h (1 Bft) N-NW 347 0 min 0,000 mm 0,0 UV-I 0 W/m 3,3 C 5,4 C 3,2 km/h (1 Bft) 95,74 %
11.04.2019 22:56 5,4 C 0,0 C 5,0 C 86 % 1018,2 hPa 0,0 l/m 1,2 km/h (1 Bft) N-NW 347 0 min 0,000 mm 0,0 UV-I 0 W/m 3,3 C 5,4 C 3,2 km/h (1 Bft) 94,74 %
11.04.2019 22:58 5,4 C 0,0 C 5,0 C 85 % 1018,2 hPa 0,0 l/m 1,3 km/h (1 Bft) N-NW 347 0 min 0,000 mm 0,0 UV-I 0 W/m 3,1 C 5,4 C 1,6 km/h (1 Bft) 95,74 %
11.04.2019 23:00 5,5 C 0,0 C 5,0 C 85 % 1018,2 hPa 0,0 l/m 1,0 km/h (0 Bft) N-NW 347 0 min 0,000 mm 0,0 UV-I 0 W/m 3,2 C 5,5 C 1,6 km/h (1 Bft) 97,87 %
11.04.2019 23:02 5,5 C 0,0 C 5,0 C 85 % 1018,2 hPa 0,0 l/m 0,9 km/h (0 Bft) N-NW 347 0 min 0,000 mm 0,0 UV-I 0 W/m 3,2 C 5,5 C 3,2 km/h (1 Bft) 97,92 %
11.04.2019 23:04 5,6 C 0,0 C 5,0 C 84 % 1018,2 hPa 0,0 l/m 1,4 km/h (1 Bft) N-NW 347 0 min 0,000 mm 0,0 UV-I 0 W/m 3,1 C 5,6 C 3,2 km/h (1 Bft) 96,00 %
11.04.2019 23:06 5,6 C 0,0 C 5,0 C 84 % 1018,2 hPa 0,0 l/m 1,2 km/h (1 Bft) N-NW 347 0 min 0,000 mm 0,0 UV-I 0 W/m 3,1 C 5,6 C 3,2 km/h (1 Bft) 93,62 %
11.04.2019 23:08 5,7 C 0,0 C 5,0 C 84 % 1018,2 hPa 0,0 l/m 1,4 km/h (1 Bft) N-NW 347 0 min 0,000 mm 0,0 UV-I 0 W/m 3,2 C 5,7 C 3,2 km/h (1 Bft) 96,00 %
11.04.2019 23:10 5,7 C 0,0 C 5,0 C 83 % 1018,2 hPa 0,0 l/m 1,0 km/h (0 Bft) N-NW 348 0 min 0,000 mm 0,0 UV-I 0 W/m 3,0 C 5,7 C 1,6 km/h (1 Bft) 94,00 %
11.04.2019 23:12 5,7 C 0,0 C 5,0 C 83 % 1018,2 hPa 0,0 l/m 0,0 km/h (0 Bft) N-NW 348 0 min 0,000 mm 0,0 UV-I 0 W/m 3,0 C 5,7 C 0,0 km/h (0 Bft) 97,87 %
11.04.2019 23:14 5,7 C 0,0 C 5,0 C 83 % 1018,2 hPa 0,0 l/m 1,0 km/h (0 Bft) N-NW 348 0 min 0,000 mm 0,0 UV-I 0 W/m 3,0 C 5,7 C 1,6 km/h (1 Bft) 97,87 %
11.04.2019 23:16 5,7 C 0,0 C 5,0 C 83 % 1018,2 hPa 0,0 l/m 0,4 km/h (0 Bft) N-NW 348 0 min 0,000 mm 0,0 UV-I 0 W/m 3,0 C 5,7 C 1,6 km/h (1 Bft) 97,14 %
11.04.2019 23:19 5,6 C 0,0 C 5,0 C 84 % 1018,2 hPa 0,0 l/m 0,8 km/h (0 Bft) N-NW 348 0 min 0,000 mm 0,0 UV-I 0 W/m 3,1 C 5,6 C 1,6 km/h (1 Bft) 98,78 %
11.04.2019 23:20 5,6 C 0,0 C 5,0 C 84 % 1018,2 hPa 0,0 l/m 0,0 km/h (0 Bft) N-NW 348 0 min 0,000 mm 0,0 UV-I 0 W/m 3,1 C 5,6 C 0,0 km/h (0 Bft) 100,00 %
11.04.2019 23:22 5,6 C 0,0 C 5,0 C 84 % 1018,2 hPa 0,0 l/m 0,5 km/h (0 Bft) N-NW 348 0 min 0,000 mm 0,0 UV-I 0 W/m 3,1 C 5,6 C 3,2 km/h (1 Bft) 100,00 %
11.04.2019 23:24 5,6 C 0,0 C 5,0 C 84 % 1018,2 hPa 0,0 l/m 3,9 km/h (1 Bft) N-NO 30 0 min 0,000 mm 0,0 UV-I 0 W/m 3,1 C 5,6 C 8,0 km/h (2 Bft) 100,00 %
11.04.2019 23:26 5,6 C 0,0 C 5,0 C 83 % 1018,2 hPa 0,0 l/m 3,9 km/h (1 Bft) NO 35 0 min 0,000 mm 0,0 UV-I 0 W/m 2,9 C 5,6 C 6,4 km/h (2 Bft) 97,87 %
11.04.2019 23:28 5,6 C 0,0 C 5,0 C 81 % 1018,2 hPa 0,0 l/m 7,0 km/h (2 Bft) N-NO 18 0 min 0,000 mm 0,0 UV-I 0 W/m 2,6 C 5,1 C 16,1 km/h (3 Bft) 98,11 %
11.04.2019 23:30 5,7 C 0,0 C 5,0 C 78 % 1018,3 hPa 0,0 l/m 8,0 km/h (2 Bft) N-NO 32 0 min 0,000 mm 0,0 UV-I 0 W/m 2,2 C 4,3 C 12,9 km/h (3 Bft) 95,74 %
11.04.2019 23:32 5,8 C 0,0 C 5,0 C 76 % 1018,3 hPa 0,0 l/m 7,6 km/h (2 Bft) NO 40 0 min 0,000 mm 0,0 UV-I 0 W/m 1,9 C 4,8 C 9,7 km/h (2 Bft) 97,87 %
11.04.2019 23:34 5,8 C 0,0 C 5,0 C 76 % 1018,3 hPa 0,0 l/m 8,4 km/h (2 Bft) NO 41 0 min 0,000 mm 0,0 UV-I 0 W/m 1,9 C 4,1 C 12,9 km/h (3 Bft) 100,00 %
11.04.2019 23:36 5,8 C 0,0 C 5,0 C 76 % 1018,3 hPa 0,0 l/m 8,2 km/h (2 Bft) N-NO 26 0 min 0,000 mm 0,0 UV-I 0 W/m 1,9 C 4,3 C 12,9 km/h (3 Bft) 100,00 %
11.04.2019 23:39 5,8 C 0,0 C 5,0 C 72 % 1018,2 hPa 0,0 l/m 9,7 km/h (2 Bft) NO 49 0 min 0,000 mm 0,0 UV-I 0 W/m 1,2 C 3,2 C 17,7 km/h (3 Bft) 95,77 %
11.04.2019 23:40 5,8 C 0,0 C 5,0 C 72 % 1018,2 hPa 0,0 l/m 10,6 km/h (2 Bft) N-NO 27 0 min 0,000 mm 0,0 UV-I 0 W/m 1,2 C 2,6 C 14,5 km/h (3 Bft) 95,65 %
11.04.2019 23:42 5,8 C 0,0 C 5,0 C 70 % 1018,3 hPa 0,0 l/m 8,8 km/h (2 Bft) NO 40 0 min 0,000 mm 0,0 UV-I 0 W/m 0,8 C 3,8 C 12,9 km/h (3 Bft) 94,87 %
11.04.2019 23:44 5,8 C 0,0 C 5,0 C 69 % 1018,2 hPa 0,0 l/m 12,5 km/h (3 Bft) NO 48 0 min 0,000 mm 0,0 UV-I 0 W/m 0,6 C 1,4 C 17,7 km/h (3 Bft) 97,87 %
11.04.2019 23:46 5,9 C 0,0 C 5,0 C 69 % 1018,2 hPa 0,0 l/m 9,6 km/h (2 Bft) NO 52 0 min 0,000 mm 0,0 UV-I 0 W/m 0,7 C 3,3 C 14,5 km/h (3 Bft) 96,00 %
11.04.2019 23:49 5,8 C 0,0 C 5,0 C 68 % 1018,3 hPa 0,0 l/m 10,1 km/h (2 Bft) NO 49 0 min 0,000 mm 0,0 UV-I 0 W/m 0,4 C 2,9 C 17,7 km/h (3 Bft) 95,71 %
11.04.2019 23:50 5,8 C 0,0 C 5,0 C 67 % 1018,2 hPa 0,0 l/m 15,0 km/h (3 Bft) NO 42 0 min 0,000 mm 0,0 UV-I 0 W/m 0,2 C 0,0 C 17,7 km/h (3 Bft) 100,00 %
11.04.2019 23:52 5,9 C 0,0 C 5,0 C 66 % 1018,3 hPa 0,0 l/m 13,8 km/h (3 Bft) NO 50 0 min 0,000 mm 0,0 UV-I 0 W/m 0,0 C 0,8 C 17,7 km/h (3 Bft) 97,87 %
11.04.2019 23:54 5,9 C 0,0 C 5,0 C 66 % 1018,3 hPa 0,0 l/m 11,7 km/h (2 Bft) NO 36 0 min 0,000 mm 0,0 UV-I 0 W/m 0,0 C 2,0 C 19,3 km/h (3 Bft) 91,43 %
11.04.2019 23:56 5,8 C 0,0 C 5,0 C 67 % 1018,2 hPa 0,0 l/m 12,3 km/h (3 Bft) NO 40 0 min 0,000 mm 0,0 UV-I 0 W/m 0,2 C 1,5 C 16,1 km/h (3 Bft) 98,00 %
11.04.2019 23:59 5,8 C 0,0 C 5,0 C 66 % 1018,2 hPa 0,0 l/m 15,4 km/h (3 Bft) NO 50 0 min 0,000 mm 0,0 UV-I 0 W/m -0,0 C -0,2 C 19,3 km/h (3 Bft) 95,12 %
_ Min-Zeit 22:48 00:01 22:24 23:52 00:01 - 23:12 - - - - - - 23:59 08:14 23:12 22:44
Minimum _ 5,4 C 0,0 C 5,0 C 66 % 1011,5 hPa - 0,0 km/h (0 Bft) - - - - - - -0,0 C -0,3 C 0,0 km/h (0 Bft) 87,23 %
_ Max-Zeit 12:50 00:01 12:56 00:01 23:30 00:04 09:46 - - 11:58 12:00 12:54 12:00 00:01 12:36 08:06 00:01
Maximum _ 8,9 C 0,0 C 17,8 C 96 % 1018,3 hPa 0,2 l/m 16,8 km/h
NO (3 Bft)
- - 2 min 0,153 mm 2,0 UV-I 495 W/m 7,1 C 8,8 C 22,5 km/h
O-NO (4 Bft)
100,00 %
Durchschnitt _ 7,1 C 0,0 C 8,1 C 82 % 1015,0 hPa #0,6 l/m 6,8 km/h (2 Bft) NO - #18 min. #0,965 mm 0,9 UV-I 132 W/m 4,1 C 6,0 C 10,5 km/h (2 Bft) 97,08 %